[[{"header":{"parameterUnit":"m.s-1","parameterCategory":1,"la1":30.6,"la2":28.766,"lo1":-90.7593,"lo2":-88.6598,"dy":0.0162,"dx":0.0183,"nx":116,"ny":114,"refTime":"2024-03-14T18:00:00:Z","depth":0,"parameterNumber":2,"parameterNumberName":"U-component_of_WINDS"},"data":[0.0,0.0,0.0,0.0,0.0,0.0,0.0,0.0,0.0,0.0,0.0,0.0,0.0,0.0,0.0,0.0,0.0,0.0,0.0,0.0,0.0,0.0,0.0,0.0,0.0,0.0,0.0,0.0,0.0,0.0,0.0,0.0,0.0,0.0,0.0,0.0,0.0,0.0,0.0,0.0,0.0,0.0,0.0,0.0,0.0,0.0,0.0,0.0,0.0,0.0,0.0,0.0,0.0,0.0,0.0,0.0,0.0,0.0,0.0,0.0,0.0,0.0,0.0,0.0,0.0,0.0,0.0,0.0,0.0,0.0,0.0,0.0,0.0,0.0,0.0,0.0,0.0,0.0,0.0,0.0,0.0,0.0,0.0,0.0,0.0,0.0,0.0,0.0,0.0,0.0,0.0,0.0,0.0,0.0,0.0,0.0,0.0,0.0,0.0,0.0,0.0,0.0,0.0,0.0,0.0,0.0,0.0,0.0,0.0,0.0,0.0,0.0,0.0,0.0,0.0,0.0,0.0,0.0,0.0,0.0,0.0,0.0,0.0,0.0,0.0,0.0,0.0,0.0,0.0,0.0,0.0,0.0,0.0,0.0,0.0,0.0,0.0,0.0,0.0,0.0,0.0,0.0,0.0,0.0,0.0,0.0,0.0,0.0,0.0,0.0,0.0,0.0,0.0,0.0,0.0,0.0,0.0,0.0,0.0,0.0,0.0,0.0,0.0,0.0,0.0,0.0,0.0,0.0,0.0,0.0,0.0,0.0,0.0,0.0,0.0,0.0,0.0,0.0,0.0,0.0,0.0,0.0,0.0,0.0,0.0,0.0,0.0,0.0,0.0,0.0,0.0,0.0,0.0,0.0,0.0,0.0,0.0,0.0,0.0,0.0,0.0,0.0,0.0,0.0,0.0,0.0,0.0,0.0,0.0,0.0,0.0,0.0,0.0,0.0,0.0,0.0,0.0,0.0,0.0,0.0,0.0,0.0,0.0,0.0,0.0,0.0,0.0,0.0,0.0,0.0,0.0,0.0,0.0,0.0,0.0,0.0,0.0,0.0,0.0,0.0,0.0,0.0,0.0,0.0,0.0,0.0,0.0,0.0,0.0,0.0,0.0,0.0,0.0,0.0,0.0,0.0,0.0,0.0,0.0,0.0,0.0,0.0,0.0,0.0,0.0,0.0,0.0,0.0,0.0,0.0,0.0,0.0,0.0,0.0,0.0,0.0,0.0,0.0,0.0,0.0,0.0,0.0,0.0,0.0,0.0,0.0,0.0,0.0,0.0,0.0,0.0,0.0,0.0,0.0,0.0,0.0,0.0,0.0,0.0,0.0,0.0,0.0,0.0,0.0,0.0,0.0,0.0,0.0,0.0,0.0,0.0,0.0,0.0,0.0,0.0,0.0,0.0,0.0,0.0,0.0,0.0,0.0,0.0,0.0,0.0,0.0,0.0,0.0,0.0,0.0,0.0,0.0,0.0,0.0,0.0,0.0,0.0,0.0,0.0,0.0,0.0,0.0,0.0,0.0,0.0,0.0,0.0,0.0,0.0,0.0,0.0,0.0,0.0,0.0,0.0,0.0,0.0,0.0,0.0,0.0,0.0,0.0,0.0,0.0,0.0,0.0,0.0,0.0,0.0,0.0,0.0,0.0,0.0,0.0,0.0,0.0,0.0,0.0,0.0,0.0,0.0,0.0,0.0,0.0,0.0,0.0,0.0,0.0,0.0,0.0,0.0,0.0,0.0,0.0,0.0,0.0,0.0,0.0,0.0,0.0,0.0,0.0,0.0,0.0,0.0,0.0,0.0,0.0,0.0,0.0,0.0,0.0,0.0,0.0,0.0,0.0,0.0,0.0,0.0,0.0,0.0,0.0,0.0,0.0,0.0,0.0,0.0,0.0,0.0,0.0,0.0,0.0,0.0,0.0,0.0,0.0,0.0,0.0,0.0,0.0,0.0,0.0,0.0,0.0,0.0,0.0,0.0,0.0,0.0,0.0,0.0,0.0,0.0,0.0,0.0,0.0,0.0,0.0,0.0,0.0,0.0,0.0,0.0,0.0,0.0,0.0,0.0,0.0,0.0,0.0,0.0,0.0,0.0,0.0,0.0,0.0,0.0,0.0,0.0,0.0,0.0,0.0,0.0,0.0,0.0,0.0,0.0,0.0,0.0,0.0,0.0,0.0,0.0,0.0,0.0,0.0,0.0,0.0,0.0,0.0,0.0,0.0,0.0,0.0,0.0,0.0,0.0,0.0,0.0,0.0,0.0,0.0,0.0,0.0,0.0,0.0,0.0,0.0,0.0,0.0,0.0,0.0,0.0,0.0,0.0,0.0,0.0,0.0,0.0,0.0,0.0,0.0,0.0,0.0,0.0,0.0,0.0,0.0,0.0,0.0,0.0,0.0,0.0,0.0,0.0,0.0,0.0,0.0,0.0,0.0,0.0,0.0,0.0,0.0,0.0,0.0,0.0,0.0,0.0,0.0,0.0,0.0,0.0,0.0,0.0,0.0,0.0,0.0,0.0,0.0,0.0,0.0,0.0,0.0,0.0,0.0,0.0,0.0,0.0,0.0,0.0,0.0,0.0,0.0,0.0,0.0,0.0,0.0,0.0,0.0,0.0,0.0,0.0,0.0,0.0,0.0,0.0,0.0,0.0,0.0,0.0,0.0,0.0,0.0,0.0,0.0,0.0,0.0,0.0,0.0,0.0,0.0,0.0,0.0,0.0,0.0,0.0,0.0,0.0,0.0,0.0,0.0,0.0,0.0,0.0,0.0,0.0,0.0,0.0,0.0,0.0,0.0,0.0,0.0,0.0,0.0,0.0,0.0,0.0,0.0,0.0,0.0,0.0,0.0,0.0,0.0,0.0,0.0,0.0,0.0,0.0,0.0,0.0,0.0,0.0,0.0,0.0,0.0,0.0,0.0,0.0,0.0,0.0,0.0,0.0,0.0,0.0,0.0,0.0,0.0,0.0,0.0,0.0,0.0,0.0,0.0,0.0,0.0,0.0,0.0,0.0,0.0,0.0,0.0,0.0,0.0,0.0,0.0,0.0,0.0,0.0,0.0,0.0,0.0,0.0,0.0,0.0,0.0,0.0,0.0,0.0,0.0,0.0,0.0,0.0,0.0,0.0,0.0,0.0,0.0,0.0,0.0,0.0,0.0,0.0,0.0,0.0,0.0,0.0,0.0,0.0,0.0,0.0,0.0,0.0,0.0,0.0,0.0,0.0,0.0,0.0,0.0,0.0,0.0,0.0,0.0,0.0,0.0,0.0,0.0,0.0,0.0,0.0,0.0,0.0,0.0,0.0,0.0,0.0,0.0,0.0,0.0,0.0,0.0,0.0,0.0,0.0,0.0,0.0,0.0,0.0,0.0,0.0,0.0,0.0,0.0,0.0,0.0,0.0,0.0,0.0,0.0,0.0,0.0,0.0,0.0,0.0,0.0,0.0,0.0,0.0,0.0,0.0,0.0,0.0,0.0,0.0,0.0,0.0,0.0,0.0,0.0,0.0,0.0,0.0,0.0,0.0,0.0,0.0,0.0,0.0,0.0,0.0,0.0,0.0,0.0,0.0,0.0,0.0,0.0,0.0,0.0,0.0,0.0,0.0,0.0,0.0,0.0,0.0,0.0,0.0,0.0,0.0,0.0,0.0,0.0,0.0,0.0,0.0,0.0,0.0,0.0,0.0,0.0,0.0,0.0,0.0,0.0,0.0,0.0,0.0,0.0,0.0,0.0,0.0,0.0,0.0,0.0,0.0,0.0,0.0,0.0,0.0,0.0,0.0,0.0,0.0,0.0,0.0,0.0,0.0,0.0,0.0,0.0,0.0,0.0,0.0,0.0,0.0,0.0,0.0,0.0,0.0,0.0,0.0,0.0,0.0,0.0,0.0,0.0,0.0,0.0,0.0,0.0,0.0,0.0,0.0,0.0,0.0,0.0,0.0,0.0,0.0,0.0,0.0,0.0,0.0,0.0,0.0,0.0,0.0,0.0,0.0,0.0,0.0,0.0,0.0,0.0,0.0,0.0,0.0,0.0,0.0,0.0,0.0,0.0,0.0,0.0,0.0,0.0,0.0,0.0,0.0,0.0,0.0,0.0,0.0,0.0,0.0,0.0,0.0,0.0,0.0,0.0,0.0,0.0,0.0,0.0,0.0,0.0,0.0,0.0,0.0,0.0,0.0,0.0,0.0,0.0,0.0,0.0,0.0,0.0,0.0,0.0,0.0,0.0,0.0,0.0,0.0,0.0,0.0,0.0,0.0,0.0,0.0,0.0,0.0,0.0,0.0,0.0,0.0,0.0,0.0,0.0,0.0,0.0,0.0,0.0,0.0,0.0,0.0,0.0,0.0,0.0,0.0,0.0,0.0,0.0,0.0,0.0,0.0,0.0,0.0,0.0,0.0,0.0,0.0,0.0,0.0,0.0,0.0,0.0,0.0,0.0,0.0,0.0,0.0,0.0,0.0,0.0,0.0,0.0,0.0,0.0,0.0,0.0,0.0,0.0,0.0,0.0,0.0,0.0,0.0,0.0,0.0,0.0,0.0,0.0,0.0,0.0,0.0,0.0,0.0,0.0,0.0,0.0,0.0,0.0,0.0,0.0,0.0,0.0,0.0,0.0,0.0,0.0,0.0,0.0,0.0,0.0,0.0,0.0,0.0,0.0,0.0,0.0,0.0,0.0,0.0,0.0,0.0,0.0,0.0,0.0,0.0,0.0,0.0,0.0,0.0,0.0,0.0,0.0,0.0,0.0,0.0,0.0,0.0,0.0,0.0,0.0,0.0,0.0,0.0,0.0,0.0,0.0,0.0,0.0,0.0,0.0,0.0,0.0,0.0,0.0,0.0,0.0,0.0,0.0,0.0,0.0,0.0,0.0,0.0,0.0,0.0,0.0,0.0,0.0,0.0,0.0,0.0,0.0,0.0,0.0,0.0,0.0,0.0,0.0,0.0,0.0,0.0,0.0,0.0,0.0,0.0,0.0,0.0,0.0,0.0,0.0,0.0,0.0,0.0,0.0,0.0,0.0,0.0,0.0,0.0,0.0,0.0,0.0,0.0,0.0,0.0,0.0,0.0,0.0,0.0,0.0,0.0,0.0,0.0,0.0,0.0,0.0,0.0,0.0,0.0,0.0,0.0,0.0,0.0,0.0,0.0,0.0,0.0,0.0,0.0,0.0,0.0,0.0,0.0,0.0,0.0,0.0,0.0,0.0,0.0,0.0,0.0,0.0,0.0,0.0,0.0,0.0,0.0,0.0,0.0,0.0,0.0,0.0,0.0,0.0,0.0,0.0,0.0,0.0,0.0,0.0,0.0,0.0,0.0,0.0,0.0,0.0,0.0,0.0,0.0,0.0,0.0,0.0,0.0,0.0,0.0,0.0,0.0,0.0,0.0,0.0,0.0,0.0,0.0,0.0,0.0,0.0,0.0,0.0,0.0,0.0,0.0,0.0,0.0,0.0,0.0,0.0,0.0,0.0,0.0,0.0,0.0,0.0,0.0,0.0,0.0,0.0,0.0,0.0,0.0,0.0,0.0,0.0,0.0,0.0,0.0,0.0,0.0,0.0,0.0,0.0,0.0,0.0,0.0,0.0,0.0,0.0,0.0,0.0,0.0,0.0,0.0,0.0,0.0,0.0,0.0,0.0,0.0,0.0,0.0,0.0,0.0,0.0,0.0,0.0,0.0,0.0,0.0,0.0,0.0,0.0,0.0,0.0,0.0,0.0,0.0,0.0,0.0,0.0,0.0,0.0,0.0,0.0,0.0,0.0,0.0,0.0,0.0,0.0,0.0,0.0,0.0,0.0,0.0,0.0,0.0,0.0,0.0,0.0,0.0,0.0,0.0,0.0,0.0,0.0,0.0,0.0,0.0,0.0,0.0,0.0,0.0,0.0,0.0,0.0,0.0,0.0,0.0,0.0,0.0,0.0,0.0,0.0,0.0,0.0,0.0,0.0,0.0,0.0,0.0,0.0,0.0,0.0,0.0,0.0,0.0,0.0,0.0,0.0,0.0,0.0,0.0,0.0,0.0,0.0,0.0,0.0,0.0,0.0,0.0,0.0,0.0,0.0,0.0,0.0,0.0,0.0,0.0,0.0,0.0,0.0,4.9335,0.0,0.0,0.0,0.0,0.0,0.0,0.0,0.0,0.0,0.0,0.0,0.0,0.0,0.0,0.0,0.0,0.0,0.0,0.0,0.0,0.0,0.0,0.0,0.0,0.0,0.0,0.0,4.2242,4.2793,4.2429,4.2415,4.2588,4.3027,4.2187,4.1905,4.2301,4.2257,4.2428,4.2802,4.2811,4.3251,4.411,4.3617,0.0,0.0,0.0,0.0,0.0,0.0,0.0,0.0,0.0,0.0,0.0,0.0,0.0,0.0,0.0,0.0,0.0,0.0,0.0,0.0,0.0,0.0,0.0,0.0,0.0,0.0,0.0,0.0,0.0,0.0,0.0,0.0,0.0,0.0,0.0,0.0,0.0,0.0,0.0,0.0,0.0,0.0,0.0,0.0,0.0,0.0,0.0,0.0,0.0,0.0,0.0,0.0,0.0,0.0,0.0,0.0,0.0,0.0,0.0,0.0,0.0,0.0,0.0,0.0,0.0,0.0,0.0,0.0,0.0,0.0,0.0,0.0,0.0,4.9784,0.0,0.0,0.0,0.0,0.0,0.0,0.0,0.0,0.0,0.0,0.0,0.0,0.0,0.0,0.0,0.0,0.0,0.0,0.0,0.0,0.0,0.0,0.0,4.1896,4.2175,4.1818,4.3061,4.3612,4.3098,4.2935,4.3169,4.3877,4.3052,4.2942,4.3656,4.3789,4.4095,4.4686,4.463,4.5219,4.6405,0.0,0.0,0.0,0.0,0.0,0.0,0.0,0.0,0.0,0.0,0.0,0.0,0.0,0.0,0.0,0.0,0.0,0.0,0.0,0.0,0.0,0.0,0.0,0.0,0.0,0.0,0.0,0.0,0.0,0.0,0.0,0.0,0.0,0.0,0.0,0.0,0.0,0.0,0.0,0.0,0.0,0.0,0.0,0.0,0.0,0.0,0.0,0.0,0.0,0.0,0.0,0.0,0.0,0.0,0.0,0.0,0.0,0.0,0.0,0.0,0.0,0.0,0.0,0.0,0.0,0.0,0.0,5.5122,5.5741,5.6205,5.6089,5.6399,5.6824,5.1873,5.0906,5.2685,5.0596,0.0,0.0,0.0,0.0,0.0,0.0,0.0,0.0,0.0,0.0,0.0,0.0,0.0,0.0,0.0,0.0,0.0,0.0,0.0,0.0,0.0,4.2286,4.2963,4.4376,4.4688,4.5078,4.5657,4.4975,4.4618,4.4734,4.3916,4.3512,4.3595,4.4351,4.4405,4.3789,4.7371,5.0347,5.2753,5.4362,5.5127,5.4825,4.7968,0.0,0.0,0.0,0.0,0.0,0.0,0.0,0.0,0.0,0.0,0.0,0.0,0.0,0.0,0.0,0.0,0.0,0.0,0.0,0.0,0.0,0.0,0.0,0.0,0.0,0.0,0.0,0.0,0.0,0.0,0.0,0.0,0.0,0.0,0.0,0.0,0.0,0.0,0.0,0.0,0.0,0.0,0.0,4.7463,4.8469,0.0,0.0,0.0,0.0,0.0,0.0,0.0,0.0,0.0,0.0,0.0,0.0,0.0,5.5818,5.6437,5.8062,5.8565,5.7907,5.8023,5.7753,5.7095,5.636,5.6051,5.6128,5.5354,0.0,5.547,5.5161,0.0,0.0,0.0,0.0,0.0,0.0,0.0,0.0,0.0,0.0,0.0,0.0,0.0,0.0,0.0,0.0,0.0,0.0,0.0,0.0,0.0,4.3958,4.467,4.4977,4.6298,4.6449,4.4844,4.5306,4.541,4.4929,4.454,4.4787,4.5786,4.6167,4.6889,4.7913,5.1269,5.3525,5.4671,5.5911,5.651,5.6322,5.2439,5.0796,5.0741,4.7732,0.0,0.0,0.0,0.0,0.0,0.0,0.0,0.0,0.0,0.0,0.0,0.0,0.0,0.0,0.0,0.0,0.0,0.0,0.0,0.0,0.0,0.0,0.0,0.0,0.0,0.0,0.0,0.0,0.0,0.0,0.0,0.0,0.0,0.0,0.0,0.0,0.0,0.0,0.0,4.8585,5.0094,5.048,5.1602,5.2221,0.0,0.0,0.0,0.0,0.0,0.0,0.0,0.0,0.0,5.5625,5.6824,5.7637,5.8023,5.9261,5.9919,5.9996,6.0499,6.0809,6.0886,5.9996,5.9609,5.9571,5.9068,5.8604,5.8023,5.6128,5.4929,5.4233,0.0,0.0,0.0,0.0,5.2801,5.2492,0.0,0.0,0.0,0.0,0.0,0.0,0.0,0.0,0.0,0.0,0.0,0.0,4.4192,4.5635,4.6577,4.6631,4.7952,4.7986,4.6064,4.6098,4.6125,4.5917,4.5482,4.6059,4.7774,4.8482,5.0064,5.2635,5.4773,5.6074,5.6503,5.7399,5.7788,5.7749,5.6892,5.5666,5.4047,5.0812,4.8822,0.0,0.0,0.0,0.0,0.0,0.0,0.0,0.0,0.0,0.0,0.0,0.0,0.0,0.0,0.0,0.0,0.0,0.0,0.0,0.0,0.0,0.0,0.0,0.0,0.0,0.0,0.0,0.0,0.0,0.0,0.0,0.0,0.0,0.0,0.0,0.0,0.0,0.0,5.0558,5.195,5.2182,5.3343,5.3962,0.0,0.0,0.0,0.0,0.0,0.0,5.6631,5.7482,5.8062,5.8294,5.9106,5.9687,5.988,6.0538,6.1157,6.1776,6.2433,6.3052,6.3671,6.3245,6.2936,6.2704,6.2278,6.1505,6.0306,5.7327,5.6321,5.6553,5.5277,5.4813,5.489,5.5509,5.5354,5.4967,0.0,0.0,0.0,0.0,0.0,0.0,0.0,0.0,0.0,0.0,0.0,4.3334,4.5819,4.6894,4.843,5.085,4.9679,4.9796,5.2104,4.8449,4.6904,4.8548,4.7008,4.6956,4.8709,5.1125,5.3627,5.6238,5.7135,5.8412,6.0049,6.0945,6.1334,6.1295,6.0438,5.9551,5.8351,5.3303,5.1601,5.1917,0.0,0.0,0.0,0.0,0.0,0.0,0.0,0.0,0.0,0.0,0.0,0.0,0.0,0.0,0.0,0.0,0.0,0.0,0.0,0.0,0.0,0.0,0.0,0.0,0.0,0.0,0.0,0.0,0.0,0.0,0.0,0.0,0.0,0.0,0.0,0.0,0.0,0.0,0.0,5.2105,5.4387,0.0,0.0,0.0,0.0,5.6012,5.7482,5.841,5.8449,5.93,6.0112,6.0886,6.1737,6.2627,6.3439,6.3478,6.3516,6.3555,6.3594,6.3671,6.371,6.4522,6.4406,6.3671,6.4445,6.3826,6.2162,6.0383,5.9184,5.8449,5.8372,5.8333,5.8333,5.8372,5.8372,5.8372,0.0,0.0,0.0,0.0,0.0,0.0,0.0,0.0,4.1398,4.2282,4.3368,4.5043,4.7611,4.9133,5.062,5.2112,5.2191,5.1835,5.1084,4.9586,4.8983,4.9595,4.849,4.9177,5.2021,5.3541,5.5528,5.81,5.8957,5.9971,6.114,6.1451,6.1607,6.1607,6.1295,6.0945,6.0438,5.6917,5.4671,5.315,4.9938,4.7762,0.0,0.0,0.0,0.0,0.0,0.0,0.0,0.0,0.0,0.0,0.0,0.0,0.0,0.0,0.0,0.0,0.0,0.0,0.0,0.0,0.0,0.0,0.0,0.0,0.0,0.0,0.0,0.0,0.0,0.0,0.0,0.0,0.0,0.0,0.0,0.0,0.0,5.4619,5.6437,0.0,5.6824,5.7598,5.8449,5.9223,5.9841,6.0692,6.1814,6.2162,6.2472,6.2743,6.3052,6.3671,6.4522,6.5064,6.5296,6.5334,6.5876,6.5837,6.5296,6.5102,6.4831,6.4561,6.487,6.4329,6.3245,6.3207,6.1698,5.9377,5.8797,5.8604,5.8604,5.8604,5.8604,5.8604,0.0,0.0,0.0,0.0,0.0,0.0,0.0,0.0,4.1869,4.2714,4.4354,4.642,4.8946,5.0781,5.2303,5.3483,5.3561,5.3205,5.2338,5.0918,5.0355,5.0966,5.0672,5.1593,5.3853,5.5879,5.7749,5.9425,6.0321,6.1023,6.1607,6.1607,6.1607,6.1607,6.1607,6.1607,6.149,5.9737,5.7516,5.4952,5.2356,5.0806,4.9742,0.0,0.0,0.0,0.0,0.0,0.0,0.0,0.0,0.0,0.0,0.0,0.0,0.0,0.0,0.0,0.0,0.0,0.0,0.0,0.0,0.0,0.0,0.0,0.0,0.0,0.0,0.0,0.0,0.0,0.0,0.0,0.0,0.0,0.0,5.52,5.667,5.725,5.8836,5.9764,5.9455,5.9957,6.0654,6.1466,6.1814,6.2472,6.3632,6.4251,6.4522,6.4522,6.5102,6.5682,6.6263,6.6804,6.7075,6.7075,6.7655,6.7655,6.7075,6.6804,6.6533,6.6263,6.6263,6.5605,6.4561,6.487,6.3478,6.1079,6.0228,5.988,5.9841,5.9532,5.9609,5.988,0.0,0.0,0.0,0.0,0.0,0.0,0.0,4.1858,4.2711,4.3576,4.5249,4.7311,4.9874,5.1683,5.3444,5.5201,5.3756,5.3834,5.6372,5.2484,5.0907,5.2662,5.3525,5.4009,5.4087,5.8178,6.0321,6.036,6.1257,6.1685,6.1685,6.1685,6.1685,6.1685,6.1685,6.1685,6.1685,6.1685,6.0204,5.7672,5.5061,5.3502,5.2567,0.0,0.0,0.0,0.0,0.0,0.0,0.0,0.0,0.0,0.0,0.0,0.0,0.0,0.0,0.0,0.0,0.0,0.0,0.0,0.0,0.0,0.0,0.0,0.0,0.0,0.0,0.0,0.0,0.0,0.0,0.0,0.0,0.0,5.6051,5.6863,5.8062,5.9725,6.1427,6.2124,6.1273,6.2704,6.3362,6.2588,6.3284,6.3787,6.3864,6.545,6.6301,6.6301,6.7965,6.8854,6.8854,6.8854,6.8854,6.8854,6.8854,6.8816,6.8816,6.9589,6.9551,6.8816,6.8816,6.7849,6.6185,6.5412,6.4599,6.3671,6.2781,6.2433,6.2317,6.1466,6.166,6.2356,0.0,0.0,0.0,0.0,0.0,0.0,0.0,4.1858,4.2714,4.357,4.5753,4.8213,5.0746,5.2585,5.4342,5.6098,5.4654,5.4181,5.5499,5.2127,5.1128,5.3479,5.4375,5.6012,5.849,5.9698,6.0906,6.2192,6.301,6.34,6.34,6.34,6.34,6.34,6.34,6.34,6.34,6.34,6.301,6.1997,5.8178,5.6503,5.5996,0.0,0.0,0.0,0.0,0.0,0.0,0.0,0.0,0.0,0.0,0.0,0.0,0.0,0.0,0.0,0.0,0.0,0.0,0.0,0.0,0.0,0.0,0.0,0.0,0.0,0.0,0.0,0.0,0.0,0.0,0.0,5.5045,5.5548,5.6786,5.8758,6.0228,6.0692,6.2278,6.3245,6.3013,6.34,6.4097,6.5064,6.5373,6.6301,6.8158,6.87,6.897,6.897,6.9435,6.9667,6.9667,6.9667,6.9667,6.9667,6.9667,6.9357,6.8816,6.9048,6.9009,6.8816,6.9435,6.87,6.7152,6.7578,6.6882,6.5373,6.3903,6.3323,6.3245,6.2356,6.1776,6.1466,0.0,0.0,0.0,0.0,0.0,0.0,0.0,4.2168,4.3144,4.3645,4.6261,4.8954,5.118,5.2624,5.4147,5.5903,5.481,5.4181,5.4684,5.3142,5.3078,5.4921,0.0,5.7883,6.0243,6.1023,6.2036,6.34,6.3867,6.4101,6.4101,6.4101,6.4101,6.4101,6.4101,6.4101,6.4101,6.4101,6.4101,6.3867,6.1373,6.0165,5.9542,5.6464,5.5248,5.4981,5.3142,5.2347,5.1984,5.1089,0.0,0.0,0.0,0.0,0.0,0.0,0.0,0.0,0.0,0.0,0.0,0.0,0.0,0.0,0.0,0.0,0.0,0.0,0.0,0.0,0.0,0.0,0.0,0.0,5.6786,5.7404,5.872,6.019,6.1389,6.2085,6.34,6.4522,6.5218,6.5605,6.6379,6.7694,6.8119,6.8816,6.9938,7.0363,7.0363,7.0015,7.0363,7.0711,7.1098,7.1098,7.1098,7.1098,7.1098,7.0634,6.986,6.986,6.986,6.986,6.9938,6.9435,6.8545,6.8738,6.8197,0.0,0.0,0.0,0.0,0.0,6.3168,6.2781,0.0,0.0,0.0,0.0,0.0,0.0,0.0,4.2591,4.3684,4.3684,4.6573,4.9267,5.0945,5.1882,5.3093,5.4849,5.4303,5.3951,5.4103,5.4786,5.5659,5.673,5.8312,5.9629,6.0555,6.2309,6.3556,6.4257,6.4335,6.4374,6.4374,6.4374,6.4374,6.4374,6.4374,6.4374,6.4374,6.4374,6.4374,6.4374,6.4296,6.375,6.2776,6.036,5.9425,5.9308,5.8295,5.7087,5.5786,5.474,0.0,0.0,0.0,0.0,0.0,0.0,0.0,0.0,0.0,0.0,0.0,0.0,0.0,0.0,0.0,0.0,0.0,0.0,0.0,0.0,0.0,0.0,0.0,0.0,5.8952,6.0228,6.1118,6.1427,6.2124,6.3671,6.4793,6.5992,6.7501,6.8506,6.9435,7.0208,7.0905,7.1059,7.0479,7.1175,0.0,0.0,0.0,7.2065,7.2723,7.2761,7.2761,7.2761,7.2761,7.2336,7.1601,7.1485,7.1446,7.1407,7.0634,7.017,6.9938,6.9357,6.8932,6.8429,6.6147,6.518,6.4986,6.4986,6.4948,6.4948,0.0,0.0,0.0,0.0,0.0,0.0,0.0,4.2584,4.3708,4.3684,4.6058,4.8162,4.9176,5.0064,5.1313,5.304,5.3045,5.3548,5.4875,5.5104,5.6179,5.8406,5.9545,6.0824,6.2348,6.4062,6.5007,6.5221,6.5883,6.6195,6.6195,6.6195,6.6186,6.6205,6.6205,6.6205,6.6205,6.6205,6.6205,6.6127,6.5426,6.4647,6.375,6.2581,6.2153,6.1841,5.9581,5.9464,6.0136,5.8601,5.7705,5.7024,5.5577,5.3828,0.0,0.0,0.0,0.0,0.0,0.0,0.0,0.0,0.0,0.0,0.0,0.0,0.0,0.0,0.0,0.0,0.0,0.0,0.0,5.988,6.0112,6.0422,6.193,6.3362,6.4367,6.4715,6.6727,6.8197,6.8506,6.9938,7.1175,7.2026,7.1601,7.1833,7.3071,7.3303,7.3303,7.3148,7.396,7.4115,7.3651,7.3651,7.3651,7.3651,7.3651,0.0,7.338,7.2684,7.2336,7.2336,7.2181,7.1291,7.0054,7.0595,6.9649,6.7793,6.725,6.6185,6.4986,6.4986,6.4561,6.398,0.0,0.0,0.0,0.0,0.0,0.0,0.0,4.2194,4.3205,4.3645,4.5945,4.8049,4.9298,4.984,5.062,5.1952,5.203,5.3162,5.5738,5.628,5.7629,6.0176,6.119,6.2422,6.4101,6.5387,6.6293,6.675,6.7608,6.7998,6.7998,6.7998,6.7989,6.7998,6.7998,6.7998,6.7998,6.7998,6.7998,6.7959,6.753,6.6829,6.5855,6.414,6.3517,6.3283,6.1568,6.149,6.1997,6.0282,5.9425,5.8888,5.8019,5.6597,5.4849,0.0,0.0,0.0,0.0,0.0,0.0,0.0,0.0,0.0,0.0,0.0,0.0,0.0,0.0,5.6145,5.8273,0.0,5.8856,6.1427,6.1466,6.1737,6.3478,6.518,6.6263,6.6263,6.7771,6.9319,7.0595,7.1446,7.2491,7.3767,7.3844,7.4231,7.5082,7.5546,7.5585,7.516,7.5546,7.5779,7.5817,7.5817,7.5585,7.516,7.516,7.4695,7.3883,7.3458,7.3264,7.3264,7.3264,7.2491,7.1291,7.1291,7.0307,6.8819,6.8759,6.7503,6.5683,6.5664,6.5374,6.4987,0.0,0.0,0.0,0.0,0.0,0.0,0.0,4.1843,4.2705,4.3606,4.5672,4.7662,4.9185,4.9341,4.9844,5.1058,5.1297,5.2936,5.6606,5.7612,5.9195,6.1751,6.2867,6.409,6.5621,6.6517,6.7394,6.8241,6.8943,6.9294,6.9302,6.9294,6.9284,6.9294,6.9294,6.9284,6.9284,6.9284,6.9284,6.9284,6.9284,6.8777,6.7764,6.566,6.4764,6.4491,6.3478,6.3127,6.2854,6.114,6.0126,5.9542,5.9386,5.8421,5.7143,5.6293,5.5938,0.0,0.0,0.0,0.0,0.0,0.0,0.0,0.0,5.4001,5.4667,5.4851,5.6089,5.7666,5.9188,6.0046,6.1,6.2588,6.2859,6.3439,6.5025,6.6688,6.7926,6.8429,6.928,7.0518,7.2413,7.3032,7.3883,7.5237,7.6011,7.6475,7.663,7.7326,7.7365,7.6668,7.6823,7.7248,7.7945,7.7945,7.7597,7.69,7.6707,7.5933,7.4618,7.4309,7.4115,7.4115,7.396,7.3496,7.2783,7.191,7.0965,7.0057,7.0036,6.8743,6.688,6.6825,6.6787,6.6748,0.0,0.0,0.0,0.0,0.0,0.0,0.0,0.0,4.2701,4.3606,4.4614,4.566,4.6639,4.667,4.7601,5.003,5.0941,5.3171,5.7387,5.848,6.0104,6.2648,6.434,6.5644,6.6517,6.7394,6.828,6.9163,6.9241,6.9327,6.938,6.9327,6.9302,6.9284,6.9294,6.9284,6.9284,6.9284,6.9284,6.9284,6.9284,6.8777,6.7959,6.7686,6.7102,6.6205,6.4569,6.3984,6.3711,6.2036,6.1373,6.1179,6.0399,6.0049,5.9715,5.8928,5.8128,5.7324,5.6326,5.367,5.1575,5.3154,5.3046,5.3124,0.0,5.7224,5.8587,5.9258,6.0149,6.112,6.2091,6.2289,6.2633,6.3536,6.4251,6.5025,6.5953,6.7578,6.9512,7.1756,7.28,7.3148,7.2645,7.4657,7.6049,7.6243,7.632,7.6746,7.7519,7.7635,7.7674,7.7558,7.8293,7.8757,7.8834,7.8834,7.8796,7.868,7.7906,7.7442,7.721,7.5662,7.4966,7.4928,7.4231,7.3828,7.3678,7.2822,7.1549,7.0157,7.0098,6.9498,6.8607,6.8548,6.8506,6.8411,0.0,0.0,0.0,0.0,0.0,0.0,0.0,0.0,0.0,4.2825,4.3681,4.4575,4.5469,4.5967,4.6904,4.843,4.9844,5.2468,5.6801,5.8363,6.0461,6.352,6.4854,6.6127,6.7433,6.83,6.9167,7.0043,7.055,7.0832,7.0856,7.0832,7.0814,7.0805,7.0775,7.0765,7.0765,7.0765,7.0765,7.0765,7.0765,6.9946,6.8699,6.8193,6.6556,6.4452,6.4179,6.3478,0.0,6.0672,6.0126,6.001,5.9104,5.9162,5.949,5.914,5.8743,5.7838,5.4999,5.3923,5.3454,5.2693,5.3359,5.4609,5.6172,5.7812,5.8942,5.8754,5.9789,6.1048,6.191,6.2435,6.3193,6.4482,6.4909,6.5489,6.6766,6.8003,6.9203,7.0247,7.1562,7.3032,7.4657,7.5779,7.6591,7.7132,7.7635,7.8293,7.9105,7.9647,7.9918,7.9918,8.0266,8.0459,8.0459,8.0459,8.0188,7.9685,7.9337,7.8641,7.7674,7.6939,7.6359,7.5817,7.4966,7.4579,7.4486,7.3148,7.2225,7.159,7.1066,7.066,7.0273,6.9207,6.878,6.8741,0.0,0.0,0.0,0.0,0.0,0.0,0.0,0.0,0.0,0.0,4.2942,4.3759,4.4887,4.5781,4.6639,4.7463,4.9107,5.1765,5.563,5.7894,6.0544,6.3728,6.471,6.6174,6.831,6.8739,6.9605,7.0961,7.1585,7.1906,7.1893,7.1906,7.1897,7.1897,7.1827,7.1817,7.1817,7.1817,7.1817,7.1778,7.1544,7.0453,6.8777,6.7452,6.5114,6.262,6.3205,6.2309,6.0672,5.9152,5.888,5.8918,5.8031,5.8311,5.9006,5.9251,5.91,5.8199,5.4913,5.4453,5.4609,5.3203,5.4062,5.5586,5.6719,5.8203,5.9219,5.8555,5.9651,6.0864,6.1486,6.2524,6.3607,6.4769,6.5432,6.6224,6.7346,6.8429,6.9048,6.8816,7.0054,7.1988,7.4734,7.543,7.6165,7.7248,7.837,7.9453,8.0498,8.1155,8.1504,8.1504,8.1504,8.1504,8.1504,8.1504,8.1194,8.0575,8.0304,7.9453,7.8022,7.7558,7.6978,7.6359,7.574,7.5314,7.5028,7.3806,7.317,7.2964,7.2073,7.1784,7.1669,7.0118,6.9517,6.9478,0.0,0.0,0.0,0.0,0.0,0.0,0.0,0.0,0.0,0.0,0.0,0.0,0.0,4.5792,4.6651,4.751,4.915,5.1219,5.3912,5.7231,6.0266,6.2909,6.3862,6.5875,6.9206,6.8522,6.9341,7.1858,7.1897,7.1906,7.1893,7.1906,7.1897,7.1897,7.1827,7.1817,7.1817,7.1817,7.1817,7.1739,7.0959,6.9596,6.7764,6.5192,6.3127,6.1646,6.1685,6.0555,5.8957,5.813,5.8403,5.8944,5.7999,5.8242,5.906,5.9846,5.958,5.876,5.7796,5.582,5.4414,5.6055,5.5859,5.5742,5.7461,5.914,6.0351,6.0312,6.1015,6.1679,6.1679,6.3008,6.4053,6.4033,6.6057,6.7578,6.7501,6.8932,6.9667,6.8893,6.9512,7.0402,7.1369,7.2993,7.4657,7.632,7.8022,7.9724,8.1387,8.1504,8.1504,8.1504,8.1504,8.1504,8.1504,8.1504,8.1504,8.1465,8.0614,7.9763,7.8912,7.721,7.6436,7.6397,7.6359,7.594,7.521,7.5066,7.4563,7.3777,7.3003,7.2654,7.2538,7.1746,7.1378,7.1182,0.0,0.0,0.0,0.0,0.0,0.0,0.0,0.0,0.0,0.0,0.0,0.0,0.0,0.0,0.0,0.0,4.8279,5.0352,5.2975,5.5821,5.8275,6.0305,6.234,6.4481,6.6713,6.7095,6.8483,7.1039,7.1019,7.1341,7.1906,7.1848,7.1838,7.1897,7.1827,7.1817,7.1778,7.1232,7.0687,7.0063,6.9206,6.7842,6.6166,6.5309,6.2854,5.9854,0.0,5.8763,5.7195,5.6347,5.6235,5.6405,5.6051,5.654,5.7219,5.7483,5.7854,5.7826,5.6421,5.5873,5.5859,5.6445,5.7265,5.8164,5.9297,6.043,6.125,6.125,6.1484,6.2031,6.3203,6.3398,6.3899,6.5455,6.6477,6.7191,6.7578,6.8605,6.8738,6.7364,6.7887,6.8236,6.7926,7.1562,7.4811,7.7094,7.8834,8.0304,8.1465,8.1504,8.1504,8.1504,8.1504,8.1504,8.1504,8.1504,8.1504,8.1504,8.0614,7.9801,7.895,7.779,7.6962,7.6466,7.6421,7.6289,7.6024,7.5376,7.495,7.4668,7.3855,7.3199,7.2715,7.2425,7.1959,7.1474,0.0,0.0,0.0,0.0,0.0,0.0,0.0,0.0,0.0,0.0,0.0,0.0,0.0,0.0,0.0,0.0,0.0,4.9289,5.1605,5.3899,5.6202,5.8509,5.9959,6.1788,6.4073,6.4372,6.5753,6.8291,6.8593,6.9177,7.0055,6.9996,6.9996,7.0045,6.9996,6.9985,6.9946,6.944,6.905,6.8699,6.7219,6.5933,6.4725,6.2893,6.0672,0.0,5.6814,5.5957,5.545,5.4585,5.4697,5.5077,5.4768,5.542,5.629,5.6291,5.6947,5.7446,5.6399,5.6814,5.7617,5.789,5.8789,5.9844,6.0664,6.1055,6.125,6.125,6.125,6.168,6.3125,6.3164,6.3785,6.6232,6.6942,6.7542,6.8524,6.8851,6.8682,6.7849,6.7364,6.723,6.7539,7.0827,7.3922,7.6165,7.8486,8.015,8.1001,8.1349,8.1504,8.1504,8.1504,8.1504,8.1504,8.1504,8.1504,8.1504,8.0614,7.9801,7.8989,7.8099,7.7233,7.6444,7.6421,7.6421,7.6405,7.5802,7.5608,7.5537,7.4685,7.409,7.3607,7.3278,7.2677,7.1977,0.0,0.0,0.0,0.0,0.0,0.0,0.0,0.0,0.0,0.0,0.0,0.0,0.0,0.0,0.0,0.0,0.0,0.0,4.9874,5.1591,5.4016,5.7328,5.6831,5.8036,6.1329,6.0698,6.1534,6.4023,6.488,6.5738,6.6556,6.6556,6.6556,6.6556,6.6556,6.6556,6.6556,6.6517,6.6946,6.7374,6.488,6.3828,6.3244,5.8373,5.7009,5.7165,5.3034,5.2567,5.3791,5.303,5.386,5.5026,5.4128,5.4945,5.626,5.6316,5.6963,5.7721,5.7799,5.8546,5.9453,6.0273,6.0469,6.0664,6.1523,6.1015,6.039,6.039,6.039,6.0664,6.1523,6.2383,6.375,6.6211,6.7353,6.8524,7.0107,6.9741,6.9525,7.0194,6.8158,6.7596,6.986,7.0905,7.2142,7.3844,7.7094,7.9376,8.0227,8.1039,8.1504,8.1504,8.1504,8.1504,8.1504,8.1504,8.1504,8.1504,8.0653,7.984,7.8989,7.8138,7.7248,7.6397,7.6397,7.6397,7.6397,7.6397,7.6397,7.632,7.5576,7.5249,7.5115,7.4343,7.3549,7.2771,0.0,0.0,0.0,0.0,0.0,0.0,0.0,0.0,0.0,0.0,0.0,0.0,0.0,0.0,0.0,0.0,0.0,0.0,4.8205,4.983,5.143,5.2971,5.4099,5.5967,5.8727,5.917,6.0629,6.3193,6.3448,6.3945,6.4764,6.4764,6.4764,6.4764,6.4764,6.4764,6.4725,6.414,6.3244,6.2153,6.0828,5.9893,5.9269,5.8607,5.8061,5.7477,5.5762,5.4632,5.3853,5.3642,5.4278,5.4867,5.3399,5.4103,5.5605,5.6324,5.7168,5.8128,5.9378,5.9913,6.0312,6.1172,6.1367,6.1445,6.164,6.1015,6.039,6.039,6.039,6.0664,6.1523,6.1875,6.2851,6.5312,6.655,6.7751,6.9351,7.0951,7.177,7.1393,7.1125,7.1021,7.0982,7.2336,7.369,7.4734,7.7403,7.9647,8.1078,8.1387,8.1504,8.1504,8.1504,8.1504,8.1504,8.1504,8.1504,8.1504,8.1271,8.042,7.8989,7.8757,7.7852,7.6466,7.6421,7.6421,7.6466,7.6421,7.6397,7.6359,7.6234,7.5813,7.5273,7.5101,7.4536,7.3795,0.0,0.0,0.0,0.0,0.0,0.0,0.0,0.0,0.0,0.0,0.0,0.0,0.0,0.0,0.0,0.0,0.0,0.0,0.0,4.9011,5.0104,5.1367,5.1952,5.3157,5.4937,5.6166,5.7471,5.8936,5.9707,6.0321,6.075,6.075,6.075,6.075,6.075,6.075,6.0711,6.0282,5.9737,0.0,0.0,5.7282,5.7087,5.6425,5.6113,5.5879,5.4632,5.3853,5.3346,5.3346,5.3665,5.4062,5.4249,5.5282,5.655,5.7454,5.8359,5.9219,6.0156,6.0664,6.1094,6.1562,6.1719,6.1601,6.1211,6.0469,5.9883,5.9883,5.9883,6.0234,6.1484,6.1719,6.2656,6.5586,6.6523,6.788,7.0658,7.1885,7.2851,7.3806,7.3238,7.2778,7.2955,7.4193,7.5353,7.6165,7.7945,7.9569,8.0846,8.131,8.1504,8.1504,8.1504,8.1504,8.1504,8.1504,8.1504,8.1504,8.1504,8.0614,7.8989,7.8989,7.8085,7.6444,7.6421,7.6421,7.6444,7.6444,7.6444,7.6444,7.651,7.6281,7.5875,7.5915,7.541,7.4709,0.0,0.0,0.0,0.0,0.0,0.0,0.0,0.0,0.0,0.0,0.0,0.0,0.0,0.0,0.0,0.0,0.0,0.0,0.0,0.0,4.9289,5.0816,5.0156,5.0269,5.138,5.2818,5.3696,5.3892,5.542,5.616,5.6152,5.6152,5.6152,5.6152,5.6152,5.6152,5.6152,5.6152,5.6503,5.6892,5.545,5.5295,5.5723,0.0,5.3151,5.3697,5.2177,5.206,5.2606,5.2723,5.2894,5.3384,5.5504,5.6983,5.8086,5.8945,5.9765,6.043,6.0547,6.1133,6.1719,6.1719,6.1601,6.1328,6.0586,5.9687,5.9062,5.918,5.9219,5.9687,6.125,6.1601,6.2773,6.6015,6.664,6.8242,7.2539,7.2578,7.3315,7.6438,7.4796,7.3876,7.516,7.6049,7.6939,7.779,7.868,7.9531,8.0343,8.1078,8.1504,8.1504,8.1504,8.1504,8.1504,8.1504,8.1504,8.1504,8.1504,8.0691,7.9144,7.9067,7.8099,7.6552,7.6436,7.6397,7.6397,7.6466,7.6488,7.6527,7.6553,7.6612,7.6632,7.6632,7.6148,7.5566,0.0,0.0,0.0,0.0,0.0,0.0,0.0,0.0,0.0,0.0,4.6558,4.6315,0.0,0.0,0.0,0.0,0.0,0.0,0.0,0.0,0.0,4.8248,4.8045,4.9016,5.1352,5.1693,5.2493,5.3915,5.4188,5.4336,5.4359,5.4359,5.4359,5.4359,5.4359,5.4359,5.4359,5.4359,5.4009,5.3463,5.319,5.3151,5.3229,5.2762,0.0,0.0,5.358,5.3073,5.2723,5.3424,5.4164,5.4734,5.4489,5.6048,5.8086,5.8945,5.9765,6.0547,6.1289,6.1562,6.1719,6.1719,6.1172,6.0586,6.043,5.9219,5.832,5.9062,5.9219,5.9492,6.0469,6.1211,6.2383,6.4414,6.5351,6.7305,7.1601,7.2617,7.3888,7.6495,7.6323,7.6011,7.6165,7.6939,7.7829,7.8718,7.9531,8.0382,8.1233,8.1426,8.1504,8.1504,8.1504,8.1504,8.1504,8.1504,8.1504,8.1504,8.1504,8.0962,7.9956,7.9299,7.8448,7.7442,7.6707,7.6397,7.6397,7.6421,7.6444,7.6488,7.6488,7.6591,7.6691,7.6691,7.6594,7.6475,0.0,0.0,0.0,0.0,0.0,0.0,0.0,4.5508,4.7109,4.9297,4.8867,4.8161,4.769,4.6853,4.6288,0.0,0.0,0.0,0.0,0.0,0.0,0.0,4.758,4.8123,4.9328,5.0717,5.1564,5.1934,0.0,5.3003,5.2567,5.2567,5.2567,5.2567,5.2567,5.2567,5.2567,5.2567,5.2294,5.1904,5.1904,5.1904,5.1904,0.0,0.0,0.0,5.358,5.3346,5.2879,5.4632,5.5217,5.5202,5.527,5.6829,5.875,5.957,6.043,6.1172,6.1601,6.1719,6.1719,6.1719,6.0742,5.9765,5.9765,5.8789,5.8164,5.9023,5.9531,6.0078,6.0937,6.1406,6.2265,6.4023,6.4255,6.5888,7.0653,7.1634,7.2944,7.5892,7.6454,7.6588,7.645,7.7597,7.8515,7.894,8.0164,8.1078,8.1504,8.1504,8.1504,8.1504,8.1504,8.1504,8.1504,8.1504,8.1504,8.1504,8.1504,8.1039,8.0188,7.9376,7.8525,7.7635,7.6784,7.6397,7.6397,7.6444,7.6466,7.6488,7.6549,7.6612,7.6652,7.6652,7.6672,7.6652,0.0,0.0,0.0,0.0,0.0,0.0,0.0,4.6797,4.8281,5.1523,5.125,5.0391,4.9531,4.7885,4.6697,0.0,0.0,0.0,0.0,0.0,0.0,0.0,0.0,0.0,4.7767,0.0,0.0,5.0381,5.1693,0.0,0.0,0.0,0.0,0.0,5.132,5.132,5.132,5.132,5.132,0.0,0.0,5.132,5.132,0.0,0.0,0.0,0.0,5.3853,5.3736,5.5801,5.6035,5.5584,5.6285,5.7725,5.9375,6.039,6.1172,6.1719,6.1719,6.1719,6.1719,6.1719,6.0312,5.8984,5.914,5.8398,5.793,5.8984,5.9844,6.0664,6.1523,6.1719,6.2265,6.4022,6.3891,6.516,6.9762,7.0909,7.23,7.5112,7.6202,7.669,7.6575,7.7976,7.8926,7.8926,8.0536,8.1504,8.1504,8.1504,8.1504,8.1504,8.1504,8.1504,8.1504,8.1504,8.1504,8.1504,8.1504,8.1155,8.0459,7.9647,7.8796,7.7945,7.7055,7.6552,7.6397,7.6637,7.6776,7.6798,7.6841,7.6863,7.6845,7.663,7.6612,7.6612,0.0,0.0,0.0,0.0,0.0,0.0,0.0,4.832,5.0781,5.3437,5.3008,5.2148,5.1289,4.9609,4.7968,0.0,0.0,0.0,0.0,0.0,0.0,0.0,0.0,0.0,0.0,0.0,0.0,5.1297,5.1425,0.0,0.0,0.0,0.0,0.0,0.0,5.132,5.132,5.132,0.0,0.0,0.0,0.0,0.0,0.0,0.0,0.0,0.0,5.5528,5.6191,5.6425,5.6464,5.6402,5.6475,5.7725,5.9492,6.1094,6.164,6.1719,6.1719,6.1719,6.1719,6.1719,5.9844,5.8242,5.9023,5.789,5.7187,5.8867,5.9844,6.0664,6.1523,6.1719,6.2264,6.4037,6.4882,6.6321,6.9142,7.1563,7.3406,7.44,7.5974,7.691,7.6801,7.8108,7.8994,7.9096,8.0593,8.1504,8.1504,8.1504,8.1504,8.1504,8.1504,8.1504,8.1504,8.1504,8.1504,8.1504,8.1504,8.1465,8.1349,8.0498,7.9647,7.8834,7.7945,7.7132,7.6436,7.7248,7.7643,7.7689,7.7643,7.7689,7.7698,7.682,7.657,7.6612,0.0,0.0,0.0,0.0,0.0,0.0,4.6758,4.8398,5.0703,5.4297,5.4023,5.3359,5.3008,5.1406,4.9258,4.6522,0.0,0.0,0.0,0.0,0.0,0.0,0.0,0.0,0.0,0.0,4.9913,5.0606,5.1102,0.0,0.0,0.0,0.0,0.0,0.0,5.132,5.132,5.132,0.0,0.0,0.0,0.0,0.0,0.0,0.0,0.0,0.0,0.0,5.5801,5.6308,5.6152,5.5887,5.6932,5.7417,5.7804,5.9062,6.0117,6.0937,6.0937,6.1316,6.1681,6.1717,6.0156,5.8711,5.9101,5.8672,5.8359,5.9062,6.0273,6.1288,6.1629,6.1704,6.229,6.4005,6.3716,6.4531,6.8122,6.9528,7.1078,7.347,7.5172,7.6325,7.6768,7.8193,7.9582,8.0689,8.1307,8.1624,8.162,8.1542,8.1504,8.1504,8.1504,8.1504,8.1504,8.1504,8.1504,8.1504,8.1504,8.1504,8.1465,8.0614,8.0034,7.9685,7.8834,7.8293,7.7983,7.8332,7.851,7.8471,7.7906,7.7736,7.7666,7.6753,7.6444,7.6488,0.0,0.0,0.0,0.0,0.0,4.4961,4.7578,4.8711,5.0625,5.4414,5.4375,5.3906,5.3633,5.207,4.9961,4.7305,4.66,0.0,0.0,0.0,0.0,0.0,0.0,0.0,0.0,0.0,5.0464,5.0499,5.1576,5.1999,0.0,0.0,5.17,5.1661,0.0,0.0,0.0,0.0,0.0,0.0,0.0,0.0,0.0,0.0,0.0,0.0,0.0,0.0,0.0,0.0,0.0,5.5801,5.7018,5.6978,5.6792,5.8201,5.9297,6.0117,6.0655,6.103,6.1331,6.1303,6.0192,5.9062,5.8867,5.9023,5.9218,5.9216,6.0543,6.1711,6.1694,6.1686,6.2271,6.4005,6.3486,6.4062,6.7615,6.8786,7.0152,7.2612,7.4554,7.5884,7.6469,7.817,8.003,8.1735,8.1815,8.1757,8.1746,8.1624,8.1553,8.1504,8.1504,8.1504,8.1504,8.1504,8.1504,8.1504,8.1504,8.1504,8.1504,8.0846,8.0459,8.0188,7.9608,7.9221,7.9028,7.926,7.9337,7.9299,7.868,7.8448,7.8332,7.7481,7.7171,7.7132,0.0,0.0,0.0,0.0,0.0,0.0,4.8476,4.9648,5.1094,5.3672,5.4023,5.3672,5.2812,5.1211,4.9844,4.8945,4.7305,0.0,0.0,0.0,0.0,0.0,0.0,0.0,0.0,0.0,5.141,5.1396,5.3127,5.3513,5.2684,5.2684,5.2668,5.2558,0.0,0.0,0.0,0.0,0.0,0.0,0.0,0.0,0.0,0.0,0.0,0.0,0.0,0.0,0.0,0.0,0.0,0.0,0.0,5.6503,5.701,5.9604,5.9765,5.9489,6.1229,6.1062,6.039,6.0399,5.9768,5.8906,5.8086,5.8594,5.9217,5.9187,6.0549,6.1686,6.1707,6.1694,6.2267,6.4023,6.4999,6.6131,6.7849,7.0348,7.1987,7.2026,7.4251,7.5813,7.5813,7.8057,8.0143,8.167,8.1843,8.1913,8.1913,8.1776,8.1652,8.1504,8.1504,8.1504,8.1504,8.1504,8.1504,8.1504,8.1504,8.1504,8.1504,8.1504,8.1039,8.0188,8.0188,7.9724,7.9067,7.9879,8.0188,8.0188,8.0188,8.0188,8.0072,7.926,7.8989,7.8834,0.0,0.0,0.0,0.0,0.0,0.0,0.0,4.7851,4.9336,5.1875,5.1758,5.1719,5.2617,5.0664,4.9453,4.9766,4.8203,0.0,0.0,0.0,0.0,0.0,0.0,0.0,0.0,0.0,5.1687,5.2308,5.285,5.3279,5.3596,5.3537,5.3214,5.2629,5.2337,5.1856,0.0,0.0,0.0,0.0,0.0,0.0,5.5217,0.0,0.0,0.0,0.0,0.0,0.0,0.0,0.0,0.0,0.0,0.0,0.0,5.8208,5.885,5.9101,5.909,5.9742,6.0273,5.9728,5.9342,5.8905,5.8081,5.9006,5.9865,5.9241,6.0518,6.1681,6.169,6.1686,6.2462,6.4804,6.5429,6.6405,6.8669,7.0206,7.1538,7.2729,7.5149,7.714,7.835,7.9197,8.0345,8.2026,8.2101,8.2052,8.2039,8.1813,8.1677,8.1652,8.1538,8.1504,8.1504,8.1504,8.1504,8.1504,8.1504,8.1194,8.0614,8.0614,8.015,7.9415,7.9956,8.0072,7.9879,8.073,8.1078,8.1039,8.042,8.0188,8.0111,7.9299,7.8989,7.895,0.0,0.0,0.0,0.0,0.0,0.0,0.0,4.7266,4.8281,5.0195,5.0039,5.0234,5.1601,4.9766,4.8906,5.0117,4.8906,0.0,0.0,0.0,0.0,0.0,0.0,0.0,0.0,5.1722,5.2312,5.3171,5.3865,5.445,5.4966,5.4953,5.4279,5.3142,5.2779,5.2136,0.0,0.0,0.0,0.0,0.0,0.0,5.4749,0.0,0.0,0.0,0.0,0.0,0.0,0.0,0.0,0.0,0.0,0.0,0.0,0.0,5.7942,5.8554,5.8398,5.8856,5.9313,5.8793,5.8903,5.8783,5.7688,5.8718,5.9773,5.9198,6.0245,6.133,6.1642,6.172,6.2345,6.4297,6.4882,6.5785,6.7707,6.9273,7.1108,7.3471,7.5433,7.7425,7.9483,7.9689,8.0275,8.1708,8.1711,8.1529,8.1197,8.0941,8.0766,8.0747,8.1213,8.1453,8.1453,8.1453,8.1324,8.1001,8.1001,8.0575,7.9763,7.9763,7.9453,7.9028,7.984,8.0188,0.0,8.1155,8.1504,8.1465,8.0923,8.0691,8.0653,8.015,7.9956,7.9918,0.0,0.0,0.0,0.0,0.0,0.0,0.0,4.75,4.7812,4.8672,4.875,4.9062,4.9922,4.8516,4.8203,4.9961,0.0,0.0,0.0,0.0,0.0,0.0,0.0,0.0,0.0,5.2195,5.3053,5.399,5.5669,5.6567,5.6684,5.6762,5.5811,5.4072,5.3225,5.2305,0.0,0.0,0.0,0.0,5.3463,5.3853,0.0,0.0,0.0,0.0,0.0,0.0,0.0,0.0,0.0,0.0,0.0,0.0,0.0,0.0,0.0,0.0,0.0,5.8395,5.7773,5.7732,5.8315,5.8512,5.6948,5.7832,0.0,5.9104,5.9807,6.0705,6.1603,6.1759,6.2032,6.3008,6.3906,6.4774,6.5573,6.7945,7.0821,7.4101,7.5369,7.6935,7.9371,7.9664,8.0059,8.0861,8.0894,8.0543,7.9762,7.9439,7.9267,7.922,8.0539,8.1207,8.1246,8.1246,8.0847,8.0111,8.0111,7.9685,7.8912,7.8912,7.8873,7.8873,7.9685,8.0034,8.0111,8.0962,8.1349,8.1426,8.1426,8.1465,8.1504,8.1504,8.1504,8.1387,0.0,0.0,0.0,0.0,0.0,0.0,0.0,0.0,0.0,0.0,4.7305,4.7226,4.8125,4.7266,4.7305,0.0,0.0,0.0,0.0,0.0,0.0,0.0,0.0,0.0,0.0,5.1609,5.2468,5.399,5.5083,5.6255,5.7543,5.8207,5.7616,5.5933,5.502,5.339,0.0,0.0,0.0,0.0,5.284,5.3307,0.0,0.0,0.0,0.0,5.3892,5.4212,0.0,0.0,0.0,0.0,0.0,0.0,0.0,0.0,5.6634,5.6875,5.7132,0.0,5.7718,5.7065,5.7024,5.7093,0.0,5.7391,5.8285,5.8948,5.9807,6.0861,6.2423,6.2149,6.2423,6.4648,6.5663,6.6297,6.651,6.933,7.2142,7.4243,7.643,7.8032,7.8653,7.932,7.9795,7.9997,7.9997,7.9915,7.9707,7.9533,7.9422,7.9338,7.9427,7.9467,7.9389,7.9389,7.9339,7.9224,7.9224,7.8785,7.8022,7.8022,7.7635,7.7055,7.7906,7.8293,7.837,7.9221,7.9956,8.0498,8.0498,8.0923,8.1504,8.1504,8.1504,8.1465,0.0,0.0,0.0,0.0,0.0,0.0,0.0,0.0,0.0,0.0,0.0,0.0,0.0,0.0,0.0,0.0,0.0,0.0,0.0,0.0,0.0,0.0,0.0,0.0,5.1375,5.1382,5.2436,5.4615,5.5083,5.6372,5.8402,5.848,5.7812,5.648,5.4775,5.3039,0.0,0.0,0.0,0.0,5.2419,0.0,0.0,0.0,0.0,0.0,5.344,5.3923,0.0,5.5925,5.651,5.6485,0.0,0.0,0.0,0.0,5.6562,5.6558,5.6575,5.7231,5.7781,5.7285,5.7161,5.7153,5.7153,5.7192,5.7504,5.8324,5.9183,6.0198,6.1564,6.208,6.2748,6.4179,6.5095,6.6201,6.7769,7.0663,7.3202,7.4919,7.7067,7.8395,7.8395,7.8827,7.9101,7.9101,7.9101,7.8944,7.8512,7.8395,7.8261,7.8213,7.7912,7.8108,7.8838,7.8772,7.8552,7.8258,7.8258,7.7821,7.6996,7.6996,7.6751,7.6389,7.7278,7.7689,7.7751,7.8641,7.9453,8.0188,8.0188,8.0498,8.0962,8.1349,8.1271,8.0962,0.0,0.0,0.0,0.0,0.0,0.0,0.0,0.0,0.0,0.0,0.0,0.0,0.0,0.0,0.0,0.0,0.0,0.0,0.0,0.0,0.0,0.0,0.0,5.1453,5.1613,5.1467,5.2638,5.5083,5.5357,5.6684,5.8909,5.8558,5.7734,5.6391,5.4027,5.2415,0.0,0.0,0.0,5.1359,5.2083,0.0,0.0,0.0,0.0,0.0,0.0,0.0,0.0,5.5705,5.6296,5.6341,5.6454,0.0,0.0,0.0,0.0,0.0,5.6766,5.7309,5.7859,5.766,5.7699,5.7777,5.7625,5.7079,5.6844,5.7625,5.8484,5.946,6.0592,6.2091,6.3266,6.3525,6.4213,6.5937,6.9492,7.1797,7.3789,7.5586,7.7343,7.8359,7.8203,7.8315,7.8352,7.8201,7.8202,7.789,7.7148,7.6974,7.6894,7.6833,7.6582,7.7113,7.8524,7.8335,7.7891,7.7279,7.7279,7.6893,7.6198,7.6198,7.6225,7.6314,7.7048,7.7408,7.7534,7.8269,7.9067,7.984,7.984,7.9956,8.0266,8.0885,8.073,8.0304,0.0,0.0,0.0,0.0,0.0,0.0,0.0,0.0,0.0,0.0,0.0,0.0,0.0,0.0,0.0,0.0,0.0,0.0,0.0,0.0,0.0,0.0,5.1414,5.1734,5.249,5.1784,5.2326,5.419,5.5669,5.6957,5.805,6.0119,5.9451,5.643,5.5293,5.3487,5.1317,0.0,0.0,5.132,5.1459,0.0,0.0,0.0,0.0,0.0,0.0,0.0,0.0,5.4825,5.5421,5.5626,5.6333,0.0,0.0,0.0,0.0,0.0,5.7426,5.7711,5.7642,5.6962,5.7309,5.7625,5.6939,5.6708,5.6825,5.7645,5.8504,5.9832,6.2175,6.3416,6.4544,6.6,6.6325,6.789,7.2109,7.2411,7.3107,7.5507,7.7341,7.8118,7.7374,7.7959,7.811,7.7352,7.7307,7.7239,7.71,7.707,7.7066,7.7052,7.6755,7.669,7.6962,7.6585,7.638,7.6311,7.6311,7.6261,7.6198,7.6198,7.6198,7.6198,7.6353,7.6443,7.6519,7.6673,7.7278,7.8061,7.8061,7.895,8.015,7.9608,7.9724,8.0227,0.0,0.0,0.0,0.0,0.0,0.0,0.0,0.0,0.0,0.0,0.0,0.0,0.0,0.0,0.0,0.0,0.0,0.0,0.0,0.0,0.0,5.2091,5.2097,5.2292,5.2683,5.2755,5.3647,5.5396,5.6645,5.7933,5.9222,5.9963,5.8709,5.5767,5.4909,5.3376,5.1362,5.1317,5.131,5.1349,0.0,0.0,0.0,0.0,0.0,0.0,0.0,0.0,0.0,0.0,5.4884,5.5357,5.5786,0.0,0.0,0.0,0.0,0.0,5.7035,5.748,5.7606,5.6819,5.6861,5.7064,5.6676,5.5857,5.57,5.7454,5.8116,5.921,6.1826,6.3391,6.4997,6.7146,6.8707,7.0463,7.2957,7.4123,7.5173,7.6352,7.7644,7.8071,7.7161,7.7473,7.7547,7.714,7.7101,7.7107,7.7083,7.71,7.7108,7.7108,7.6847,7.6675,7.6609,7.6305,7.6106,7.6034,7.6034,7.6062,7.609,7.609,7.609,7.6145,7.6145,7.6172,7.625,7.6276,7.6828,7.7664,7.7713,7.8448,7.9492,7.9144,7.9221,7.9569,0.0,0.0,0.0,0.0,0.0,0.0,0.0,0.0,0.0,0.0,0.0,0.0,0.0,0.0,0.0,0.0,0.0,0.0,0.0,0.0,5.1499,5.237,5.2609,5.2997,5.3614,5.408,5.5169,5.6879,5.7699,5.8987,6.0705,5.9807,5.8007,5.5499,5.4679,5.323,5.1419,5.1369,5.1369,5.1414,0.0,0.0,0.0,0.0,0.0,0.0,0.0,0.0,0.0,0.0,0.0,0.0,0.0,0.0,0.0,5.6601,5.6593,5.6645,5.684,5.7207,5.7374,5.6751,5.6756,5.6875,5.6875,5.5859,5.5508,5.7655,5.8279,5.9216,6.1833,6.4219,6.6519,6.8644,7.0878,7.26,7.3476,7.5443,7.6853,7.7062,7.7708,7.7829,7.714,7.7101,7.7101,7.7101,7.7101,7.7101,7.7101,7.7087,7.7105,7.7109,7.6906,7.6727,7.6609,7.6415,7.6199,7.6015,7.6015,7.6015,7.6015,7.6015,7.6005,7.6062,7.6062,7.6118,7.6172,7.6225,7.6662,7.728,7.733,7.7858,7.8708,7.9095,7.9095,7.8965,0.0,0.0,0.0,0.0,0.0,0.0,0.0,0.0,0.0,0.0,0.0,0.0,0.0,0.0,0.0,0.0,0.0,0.0,0.0,0.0,5.0594,5.1457,5.2277,5.3838,5.6259,5.5573,5.6041,5.7699,5.8597,5.9885,6.1603,6.0705,5.8948,5.645,5.5591,5.3791,5.1396,5.1396,5.1386,5.1414,5.1391,0.0,0.0,0.0,0.0,0.0,0.0,0.0,0.0,0.0,0.0,0.0,0.0,0.0,5.6601,5.6601,5.6593,5.6762,5.7504,5.7207,5.6673,5.6601,5.7148,5.7695,5.7729,5.761,5.7806,5.8782,5.9641,6.1008,6.3623,6.7451,7.0575,7.1549,7.2567,7.3498,7.4296,7.5272,7.6209,7.6984,7.714,7.7179,7.7101,7.7101,7.7101,7.7101,7.7101,7.7101,7.7101,7.7087,7.7105,7.7109,7.6906,7.6727,7.6609,7.6415,7.6199,7.6015,7.6015,7.6015,7.6015,7.6015,7.6015,7.6015,7.6015,7.6072,7.6118,7.6118,7.6184,7.6314,7.6314,7.6816,7.778,7.9324,7.9493,7.8889,0.0,0.0,0.0,0.0,0.0,0.0,0.0,0.0,0.0,0.0,0.0,0.0,0.0,0.0,0.0,0.0,0.0,0.0,0.0,4.9866,5.1073,5.1396,5.2211,5.3656,5.5731,5.6507,5.7711,5.9417,6.0276,6.0783,6.0861,6.0002,5.8202,5.5738,5.543,5.4142,5.2216,5.2211,5.2211,5.2143,5.1625,5.1396,0.0,0.0,0.0,0.0,0.0,0.0,0.0,0.0,5.3093,5.4108,5.4771,5.5731,5.6601,5.6601,5.6593,5.6688,5.6973,5.6829,5.6718,5.7222,5.7996,5.846,5.791,5.7789,5.8495,6.1004,6.1358,6.2178,6.5261,6.7168,6.9074,7.1573,7.2744,7.3754,7.511,7.6047,7.6711,7.7062,7.7101,7.7101,7.7101,7.7101,7.7101,7.7101,7.7101,7.7101,7.7101,7.7112,7.7091,7.7105,7.7028,7.69,7.6715,7.6549,7.6394,7.6173,7.6062,7.6015,7.6015,7.6015,7.6015,7.6015,7.6015,7.6005,7.6034,7.6062,7.6118,7.6261,7.7329,7.7317,7.6893,7.859,7.8374,7.7267,0.0,0.0,0.0,0.0,0.0,0.0,0.0,0.0,0.0,0.0,0.0,0.0,0.0,0.0,0.0,0.0,0.0,0.0,4.7614,4.9244,5.0451,5.1008,5.1826,5.3112,5.4835,5.6813,5.8519,6.0002,6.1134,6.1095,5.9963,5.9378,5.7851,5.5616,5.5391,5.465,5.347,5.2913,5.2684,5.2624,5.1737,5.1391,0.0,0.0,0.0,0.0,0.0,0.0,0.0,0.0,5.278,5.4068,5.4303,5.5421,5.6601,5.6601,5.6598,5.6582,5.6595,5.66,5.6718,5.7252,5.8258,5.9031,5.8705,5.9056,6.0119,6.2514,6.2943,6.3685,6.6336,6.7264,6.839,7.0771,7.2606,7.4095,7.5227,7.6399,7.7101,7.7101,7.7101,7.7101,7.7101,7.7101,7.7101,7.7101,7.7101,7.7101,7.7101,7.6828,7.6688,7.6707,7.6403,7.6323,7.6404,7.6274,7.6244,7.6289,7.6106,7.6015,7.6015,7.6015,7.6015,7.6015,7.6015,7.6015,7.6015,7.6034,7.6062,7.6216,7.7698,7.7544,7.6696,7.8122,7.7792,7.6675,0.0,0.0,0.0,0.0,0.0,0.0,0.0,0.0,0.0,0.0,0.0,0.0,0.0,0.0,0.0,0.0,0.0,0.0,4.7539,4.7606,4.8372,5.009,5.0959,5.2209,5.3955,5.645,5.8207,5.9104,6.0822,6.0783,5.9104,5.9104,5.8207,5.6567,5.5708,5.5318,5.5201,5.3431,5.2733,5.2663,5.1776,5.1391,5.1414,0.0,0.0,0.0,0.0,0.0,0.0,0.0,5.3288,5.4147,5.5005,5.589,5.6601,5.6597,5.6601,5.6595,5.6601,5.6601,5.6562,5.651,5.7838,5.9319,6.021,6.1765,6.3026,6.3026,6.4379,6.5769,6.6666,6.8241,6.9387,6.9426,7.2249,7.4486,7.4486,7.6008,7.7101,7.7101,7.7101,7.7101,7.7101,7.7101,7.7101,7.7101,7.7101,7.7062,7.7062,7.6242,7.579,7.5809,7.4949,7.4844,7.5579,7.5402,7.5633,7.6302,7.6083,7.6015,7.6015,7.6015,7.6015,7.6015,7.6015,7.6015,7.6015,7.6015,7.6015,7.6092,7.6938,7.7284,7.74,7.8169,7.8036,7.74,0.0,0.0,0.0,0.0,0.0,0.0,0.0,0.0,0.0,0.0,0.0,0.0,0.0,0.0,0.0,0.0,0.0,0.0,4.6719,4.784,4.8759,4.9267,5.0064,5.1001,5.2156,5.4108,5.6723,6.0002,6.0549,5.9885,5.8207,5.8792,5.7894,5.5747,5.6645,5.6411,5.5201,5.4045,5.3933,5.442,5.2913,5.2294,5.2312,0.0,0.0,0.0,0.0,0.0,0.0,0.0,0.0,0.0,5.4125,5.4997,5.582,5.6406,5.66,5.6597,5.66,5.5696,5.5185,5.6957,5.827,5.9474,6.099,6.2629,6.4385,6.6205,6.6993,6.778,6.9263,6.8964,6.9093,7.0928,7.2054,7.3107,7.433,7.5449,7.6425,7.7023,7.7101,7.7101,7.7101,7.7101,7.6861,7.6223,7.6184,7.5904,7.5311,7.5031,7.4882,7.4896,7.4613,7.4598,7.4803,7.5272,7.553,7.5611,7.5989,7.616,7.6015,7.6015,7.6015,7.6015,7.6015,7.6015,7.6015,7.6015,7.6015,7.6092,7.6938,7.6938,7.6476,7.7323,7.715,7.6475,0.0,0.0,0.0,0.0,0.0,0.0,0.0,0.0,0.0,0.0,4.63,4.63,0.0,0.0,0.0,0.0,0.0,0.0,0.0,4.7493,4.817,4.8876,4.9355,5.0526,5.239,5.3444,5.543,5.8319,5.8714,5.8168,5.684,5.8011,5.7777,5.6333,5.7699,5.7543,5.6216,5.5338,5.4869,5.4693,5.3615,5.3191,5.3171,0.0,0.0,0.0,0.0,0.0,0.0,0.0,0.0,0.0,5.3302,5.4093,5.4958,5.5814,5.6051,5.6053,5.6038,5.5521,5.5357,5.6899,5.8454,6.0249,6.2675,6.4275,6.5868,6.8109,6.8312,6.8515,6.988,6.9315,6.9126,7.0693,7.178,7.2795,7.3849,7.474,7.5475,7.5989,7.6067,7.6067,7.6067,7.6067,7.5865,7.5311,7.5265,7.507,7.4546,7.4156,7.3961,7.3961,7.3654,7.3632,7.3984,7.4372,7.4655,7.4883,7.5538,7.5791,7.5632,7.588,7.6015,7.6015,7.6015,7.6015,7.6015,7.6015,7.6015,7.6053,7.6592,7.6476,7.6053,7.6592,7.6467,7.6062,0.0,0.0,4.63,4.63,0.0,0.0,0.0,0.0,0.0,0.0,4.63,4.63,0.0,0.0,0.0,0.0,0.0,0.0,0.0,0.0,4.7077,4.8837,4.9029,5.0629,5.3795,5.3795,5.4103,5.483,5.5938,5.6059,5.5318,5.6996,5.7816,5.7855,5.8714,5.8597,5.7621,5.6675,5.5387,5.3986,5.3928,5.3933,5.3912,5.3118,0.0,0.0,0.0,0.0,0.0,0.0,0.0,0.0,5.2667,5.3221,5.4044,5.4918,5.5079,5.5005,5.5265,5.5728,5.6235,5.6626,5.8705,6.152,6.486,6.6226,6.728,6.8936,6.8858,6.8663,6.9405,6.9575,6.9627,6.9627,7.1624,7.3192,7.3218,7.3875,7.4414,7.4476,7.4507,7.4507,7.4507,7.4507,7.4468,7.439,7.439,7.4351,7.4264,7.3484,7.3064,7.3064,7.2299,7.2275,7.3055,7.3046,7.3377,7.4109,7.4781,7.508,7.5017,7.5709,7.6015,7.6015,7.6015,7.6015,7.6015,7.6015,7.6015,7.6015,7.6015,7.6015,7.6015,7.6015,7.6015,7.6015,0.0,0.0,4.63,4.63,0.0,0.0,0.0,0.0,0.0,0.0,0.0,0.0,0.0,0.0,0.0,0.0,0.0,0.0,0.0,0.0,4.7096,4.8816,5.0172,5.1531,5.2936,5.2303,5.203,5.223,5.4498,5.547,5.5265,5.6992,5.7816,5.7855,5.8714,5.8285,5.6762,5.5187,5.4333,5.399,5.3977,5.3977,5.399,5.3791,5.3288,0.0,0.0,0.0,0.0,0.0,0.0,0.0,5.2485,5.2841,5.3271,5.4747,5.4278,5.3656,5.5699,5.4909,5.4328,5.7695,6.0505,6.316,6.592,6.6667,6.7292,6.8936,7.0231,7.1136,7.1292,7.139,7.1435,7.1435,7.1858,7.2438,7.3192,7.3406,7.3743,7.4414,7.4515,7.4507,7.4507,7.4507,7.4225,7.3544,7.3466,7.3144,7.2423,7.2189,7.2111,7.2111,7.1975,7.2002,7.2174,7.284,7.3199,7.3256,7.4055,7.4365,7.43,7.5577,7.609,7.6015,7.6015,7.6015,7.6015,7.6015,7.6015,7.6015,7.6015,7.6015,7.6015,7.6015,7.6015,7.6015,0.0,0.0,0.0,0.0,0.0,0.0,0.0,0.0,0.0,0.0,0.0,0.0,0.0,0.0,0.0,0.0,0.0,0.0,0.0,0.0,4.7061,4.8811,5.052,5.1609,5.2078,5.1644,5.1401,5.1396,5.2776,5.3635,5.4021,5.5786,5.7035,5.7855,5.8714,5.7929,5.5894,5.5426,5.4762,5.4021,5.445,5.4611,5.4576,5.4147,5.3444,5.2585,5.1726,0.0,0.0,0.0,0.0,0.0,0.0,0.0,5.2386,5.4064,5.3947,5.3669,5.5416,5.5221,5.546,5.9373,6.1681,6.3672,6.6199,6.679,6.718,6.845,7.0096,7.1468,7.1858,7.1982,7.1987,7.1987,7.1982,7.2093,7.2561,7.2587,7.2767,7.3197,7.3267,7.325,7.3241,7.3241,7.3037,7.2589,7.2539,7.2306,7.1817,7.1817,7.1817,7.1817,7.1887,7.1906,7.1893,7.2346,7.2553,7.2498,7.3306,7.3836,7.4146,7.5171,7.576,7.6015,7.6015,7.6015,7.6015,7.6015,7.6015,7.6015,7.6015,7.6015,7.6015,7.6015,7.6015,7.6015,0.0,0.0,0.0,0.0,0.0,0.0,0.0,0.0,0.0,0.0,0.0,0.0,0.0,0.0,0.0,0.0,0.0,0.0,0.0,0.0,0.0,4.9036,5.0594,5.1453,5.1609,5.1492,5.1401,5.1419,5.1401,5.1839,5.2741,5.4498,5.6177,5.7816,5.8402,5.7382,5.5265,5.5704,5.5001,5.3626,5.4494,5.4849,5.4771,5.4068,0.0,5.2585,5.1722,5.141,5.1406,5.1557,0.0,0.0,0.0,0.0,5.1837,5.3442,5.3709,5.3709,5.4708,5.5962,5.7724,6.0895,6.2462,6.3867,6.6249,6.6678,6.6873,6.7888,6.9372,7.0738,7.1597,7.1792,7.1831,7.1987,7.1987,7.1982,7.193,7.193,7.1916,7.1901,7.1893,7.1885,7.1906,7.1906,7.1897,7.1827,7.1827,7.1827,7.1817,7.1817,7.1817,7.1817,7.1838,7.1906,7.1885,7.1909,7.1909,7.1906,7.2616,7.3345,7.3991,7.4438,7.4997,7.5589,7.5572,7.5659,7.5784,7.5784,7.5861,7.6015,7.6015,7.6015,7.6015,7.6015,7.6015,7.6015,0.0,0.0,0.0,0.0,0.0,0.0,0.0,0.0,0.0,0.0,4.63,4.63,0.0,4.63,4.63,4.63,4.63,4.63,4.6303,0.0,0.0,4.9916,5.0878,5.1765,5.2507,5.1796,5.1401,5.1396,5.1401,5.1869,0.0,0.0,5.6177,5.7777,5.7192,5.6333,5.5201,5.3795,5.2663,5.1804,5.2702,5.3053,5.3014,0.0,0.0,0.0,5.1713,5.1391,5.1536,5.225,5.2528,0.0,0.0,0.0,5.2694,5.3699,5.2923,5.2108,5.3738,5.6397,5.9217,6.1213,6.293,6.4609,6.6405,6.6249,6.6209,6.7771,6.8903,6.984,7.0699,7.0855,7.1128,7.187,7.1987,7.1987,7.1987,7.1937,7.1884,7.1884,7.1901,7.1893,7.1885,7.1885,7.1915,7.1897,7.1887,7.1838,7.1778,7.1817,7.1817,7.1817,7.1817,7.1838,7.1897,7.1906,7.1893,7.1897,7.202,7.2417,7.3087,7.3163,7.3483,7.401,7.4007,7.4333,7.4861,7.4861,7.5322,7.6015,7.6015,7.6015,7.6015,7.6015,7.6015,7.6015,0.0,0.0,0.0,0.0,0.0,0.0,0.0,0.0,0.0,0.0,0.0,4.63,4.63,4.63,4.63,4.63,4.63,4.63,4.63,4.7459,4.8514,4.9332,5.0214,5.0867,5.1219,5.0863,5.0659,5.0655,5.0186,0.0,0.0,5.3708,5.5001,0.0,0.0,5.5391,5.4489,5.3249,5.2464,5.2108,5.1991,5.1952,0.0,0.0,0.0,0.0,0.0,0.0,5.1542,5.24,5.2367,5.2138,5.2996,0.0,0.0,0.0,5.2728,5.2498,5.4255,5.6523,5.8792,6.0549,6.1915,6.3438,6.5624,6.5858,6.5936,6.7146,6.7693,6.8357,6.9723,6.9957,7.0113,7.0465,7.0543,7.0699,7.1206,7.124,7.139,7.1897,7.1969,7.1924,7.1909,7.148,7.1394,7.1876,7.1438,7.138,7.1838,7.1827,7.1583,7.1154,7.1126,7.1146,7.1174,7.123,7.148,7.1976,7.1963,7.2101,7.2383,7.2378,7.2916,7.3894,7.3859,7.401,7.4253,7.4694,7.5066,7.549,7.5841,7.6015,7.6015,7.6015,7.6015,7.6015,0.0,0.0,0.0,0.0,0.0,0.0,0.0,0.0,0.0,0.0,0.0,4.63,4.63,0.0,0.0,0.0,4.63,4.6381,4.6619,4.7224,4.7968,4.8744,4.943,4.977,4.977,4.9766,4.9762,4.9786,0.0,0.0,5.366,5.323,5.4406,0.0,5.5786,5.4806,0.0,0.0,0.0,0.0,0.0,0.0,0.0,0.0,0.0,0.0,0.0,0.0,0.0,0.0,5.2289,5.1865,5.2757,5.2439,0.0,0.0,0.0,5.2767,5.4498,5.6216,5.7855,5.9378,6.09,6.2618,6.4765,6.5273,6.5546,6.66,6.6639,6.6951,6.8474,6.8903,6.9137,6.9372,6.9411,6.9645,7.027,7.0387,7.0621,7.1245,7.1324,7.1318,7.1267,7.072,7.0636,7.1238,7.0676,7.058,7.1204,7.1175,7.0892,7.0307,7.0279,7.0259,7.0277,7.0536,7.098,7.1663,7.1864,7.1982,7.1987,7.1936,7.2489,7.3481,7.3432,7.3503,7.3643,7.4186,7.4679,7.5098,7.5567,7.587,7.6072,7.6015,7.6015,7.6015,0.0,0.0,0.0,0.0,0.0,0.0,0.0,0.0,0.0,0.0,0.0,4.63,4.63,4.63,4.63,4.63,4.63,4.6658,4.7491,4.7577,4.7968,4.8744,4.8841,0.0,4.886,4.885,4.8872,4.8854,0.0,0.0,5.2785,5.3576,5.5299,5.7679,5.6016,5.4806,5.3933,0.0,0.0,0.0,0.0,0.0,0.0,0.0,0.0,0.0,0.0,0.0,0.0,0.0,0.0,5.2762,5.3674,5.3327,5.2624,0.0,0.0,0.0,5.36,5.5357,5.6879,5.7738,6.0432,6.3164,6.414,6.4375,6.4843,6.6444,6.617,6.5936,6.6795,6.7615,6.8435,6.9255,6.9411,6.9411,6.945,6.945,6.9489,6.9528,6.9528,6.9528,6.9528,6.9489,6.9483,6.9543,6.9497,6.9451,6.9428,6.9449,6.9392,6.9353,6.9372,6.9372,6.9372,7.0172,7.0628,7.0684,7.1526,7.1937,7.1987,7.1993,7.2014,7.1992,7.1875,7.2188,7.2756,7.2803,7.3734,7.5196,7.5082,7.5491,7.6172,7.6072,7.6015,7.6015,0.0,0.0,0.0,0.0,0.0,0.0,0.0,0.0,0.0,0.0,0.0,0.0,0.0,4.63,4.63,4.63,4.6309,4.6434,4.6751,4.6758,4.7144,4.8,4.8024,4.801,4.801,4.8001,4.7952,0.0,0.0,4.9619,5.1888,5.2695,5.391,5.5282,5.4669,5.4858,5.5438,5.2941,0.0,0.0,0.0,0.0,0.0,0.0,0.0,0.0,0.0,0.0,0.0,0.0,0.0,0.0,0.0,0.0,5.1882,5.1882,5.2429,5.3093,5.3132,5.4849,5.6684,5.6957,5.8792,6.0744,6.1603,6.3086,6.4453,6.5077,6.5429,6.5858,6.6639,6.7068,6.7381,6.7693,6.7732,6.7927,6.8474,6.8552,6.8786,6.9333,6.9411,6.9411,6.9411,6.8903,6.8786,6.9366,6.8886,6.8795,6.9334,6.9319,6.9021,6.8466,6.8514,6.8514,6.8522,6.9341,7.0052,7.0606,7.0926,7.1363,7.1955,7.193,7.1903,7.188,7.1908,7.1988,7.221,7.2656,7.3202,7.3754,7.42,7.4808,7.5415,7.5401,7.5628,7.6015,0.0,0.0,0.0,0.0,0.0,0.0,0.0,0.0,0.0,0.0,0.0,0.0,0.0,0.0,4.6315,4.6315,4.6284,4.6286,4.6288,4.6287,4.6553,4.7135,4.7162,4.7155,4.7155,4.7103,0.0,0.0,0.0,0.0,0.0,5.1791,5.3111,5.4723,5.3858,5.4443,0.0,0.0,0.0,5.3618,0.0,0.0,4.9775,0.0,0.0,0.0,0.0,0.0,0.0,0.0,0.0,0.0,0.0,0.0,0.0,5.1414,5.2429,5.3444,5.2858,5.4381,5.6294,5.6879,5.7855,5.9065,6.051,6.172,6.2891,6.4062,6.4531,6.5077,6.617,6.6405,6.6483,6.6756,6.6795,6.699,6.7576,6.7654,6.7888,6.8474,6.8513,6.8513,6.8513,6.8005,6.7888,6.8474,6.7994,6.791,6.8496,6.8483,6.818,6.7569,6.7625,6.7625,6.7625,6.8436,6.9146,6.974,7.0325,7.091,7.1464,7.1753,7.1916,7.1916,7.1969,7.1967,7.1953,7.2408,7.2744,7.3041,7.3464,7.4272,7.515,7.5139,7.5559,7.6204,0.0,0.0,0.0,0.0,0.0,0.0,0.0,0.0,0.0,0.0,0.0,0.0,0.0,0.0,0.0,4.6406,4.6406,4.6366,4.6321,4.6321,4.6317,4.63,4.6331,4.6323,4.6323,0.0,0.0,0.0,0.0,0.0,0.0,5.0888,5.3104,5.6293,5.3744,5.3588,5.517,5.5113,5.4671,5.3736,0.0,4.958,4.919,0.0,0.0,0.0,5.3182,5.3237,0.0,4.9469,0.0,0.0,0.0,0.0,0.0,0.0,0.0,5.2741,0.0,0.0,0.0,5.7309,5.7699,5.8363,6.0939,6.0237,6.0041,6.3477,6.3516,6.3516,6.5273,6.5585,6.5819,6.6639,6.6756,6.6717,6.6717,6.6717,6.6756,6.6756,6.6756,6.6756,6.6795,6.6795,6.6795,6.6795,6.6795,6.6795,6.6795,6.6784,6.6759,6.6711,6.6711,6.6702,6.6712,6.753,6.7969,6.8037,6.9713,7.0541,7.0606,7.1464,7.1854,7.1854,7.1893,7.1955,7.1987,7.1942,7.2381,7.3124,7.2969,7.3938,7.5395,7.5307,7.583,7.6559,0.0,0.0,0.0,0.0,0.0,0.0,0.0,0.0,0.0,0.0,0.0,0.0,0.0,0.0,0.0,4.885,4.8428,4.7801,4.7142,4.6612,4.6306,4.63,4.6882,4.7233,4.7233,0.0,0.0,0.0,0.0,0.0,4.9172,5.0633,5.2146,5.3666,5.358,5.3814,5.4173,5.2894,5.3705,5.5342,5.0264,4.9549,0.0,0.0,0.0,0.0,0.0,5.2899,5.3063,0.0,5.1864,5.2663,0.0,0.0,0.0,0.0,0.0,0.0,5.2858,0.0,0.0,0.0,0.0,0.0,5.6762,5.7621,5.8792,6.1017,6.1798,6.2774,6.5155,6.5077,6.4921,6.578,6.539,6.4999,6.4999,6.4999,6.5234,6.5858,6.5936,6.617,6.6756,6.6795,6.6795,6.6795,6.6795,6.6795,6.6795,6.6784,6.6805,6.6759,6.6783,6.6767,6.6702,6.6936,6.7394,6.8008,6.8476,6.906,6.9704,7.0571,7.097,7.097,7.1612,7.1901,7.1909,7.1903,7.2076,7.2326,7.2226,7.2801,7.3749,7.4297,7.4977,7.5741,0.0,0.0,4.7258,4.6898,0.0,0.0,0.0,0.0,0.0,0.0,0.0,0.0,0.0,0.0,0.0,4.9874,4.9445,4.8808,4.7907,4.7177,4.6777,4.6777,4.7303,4.7744,4.8096,0.0,0.0,0.0,0.0,0.0,0.0,0.0,0.0,5.2629,5.2785,5.3252,5.3798,5.2083,5.3136,5.5584,5.1296,5.0961,5.2855,5.1337,5.0975,0.0,0.0,0.0,5.3296,5.1995,5.2508,0.0,0.0,0.0,0.0,0.0,0.0,0.0,0.0,0.0,5.5357,5.5552,0.0,0.0,5.5552,5.5747,5.6177,5.7894,5.8987,6.0237,6.2462,6.2774,6.2852,6.336,6.3008,6.3047,6.414,6.4297,6.4492,6.4999,6.5077,6.5234,6.5702,6.5741,6.5897,6.6288,6.6288,6.6444,6.6795,6.679,6.6817,6.6811,6.6805,6.6783,6.6711,6.6711,6.6927,6.7452,6.7842,6.8271,6.8816,7.0045,7.06,7.0639,7.1507,7.1867,7.1915,7.1893,7.1909,7.193,7.1924,7.2374,7.3163,7.4022,7.4832,7.5633,0.0,0.0,4.8568,4.7879,4.8973,4.999,0.0,0.0,0.0,0.0,0.0,0.0,0.0,0.0,0.0,0.0,5.0114,4.9574,4.8553,4.7777,4.7369,4.7369,4.7585,4.8079,4.8899,4.8899,0.0,0.0,0.0,0.0,0.0,0.0,0.0,0.0,5.1687,5.2155,5.3397,5.2194,5.2883,5.4617,5.2901,5.2874,5.3867,5.3429,5.3456,5.3804,5.442,5.4216,5.3426,5.1818,5.1758,0.0,0.0,0.0,0.0,0.0,5.4528,0.0,0.0,0.0,0.0,5.7153,5.5942,0.0,5.6138,5.481,5.3717,5.524,5.6177,5.727,5.9065,6.0002,6.0588,6.0666,6.0705,6.1486,6.3711,6.4023,6.4062,6.414,6.414,6.4179,6.4297,6.4297,6.4609,6.539,6.5468,6.578,6.6483,6.6522,6.6556,6.6661,6.6661,6.6681,6.672,6.672,6.6702,6.6712,6.7491,6.7842,6.792,6.9557,7.0375,7.0492,7.131,7.1749,7.1897,7.1897,7.1906,7.1893,7.1916,7.2353,7.3172,7.4044,7.4909,7.5774,4.8369,4.8564,4.8759,4.8607,4.8772,0.0,0.0,0.0,0.0,0.0,0.0,0.0,0.0,0.0,0.0,0.0,5.2149,5.0791,4.8512,4.766,4.7222,4.7222,4.7952,4.874,4.9596,4.9596,0.0,0.0,0.0,0.0,0.0,0.0,0.0,0.0,5.1141,5.118,5.0946,5.2662,5.2877,5.1896,5.081,5.2085,5.4362,5.2182,5.258,5.4362,5.4477,5.4842,5.5188,5.4839,5.4497,5.4133,5.3762,5.3649,5.3669,5.3814,0.0,0.0,0.0,0.0,0.0,5.5864,5.6411,0.0,5.5786,5.6216,5.6918,5.7231,5.7465,5.8324,6.0744,6.133,6.1681,6.2384,6.2501,6.2423,6.2228,6.2228,6.2462,6.3164,6.3243,6.3516,6.4219,6.4297,6.4375,6.4531,6.4531,6.4609,6.4765,6.4804,6.5116,6.5814,6.5814,6.616,6.6766,6.6766,6.6744,6.6702,6.6858,6.6966,6.6985,6.8037,6.8894,6.9596,7.0453,7.1193,7.1827,7.1827,7.1858,7.1893,7.1893,7.2018,7.2253,7.3111,7.4016,7.4874,4.874,4.9325,4.9753,4.9372,0.0,0.0,0.0,0.0,0.0,0.0,0.0,0.0,0.0,0.0,0.0,0.0,0.0,0.0,0.0,0.0,4.7753,4.7766,4.8216,4.9137,5.0471,5.051,5.0127,0.0,0.0,0.0,0.0,0.0,0.0,0.0,5.1115,5.131,5.1342,5.2207,5.181,5.0696,5.1852,5.3042,5.4018,5.3026,5.3668,5.5088,5.5088,5.5357,5.5511,5.4241,5.5016,5.6117,5.4005,5.4607,5.5899,5.5174,5.4946,5.5083,5.5645,5.6134,5.6452,5.6523,5.6567,0.0,0.0,5.5279,5.5396,5.5825,5.5903,5.6567,5.8753,5.9143,5.9573,6.0861,6.0354,6.0237,6.1525,6.172,6.1876,6.2306,6.2345,6.254,6.2969,6.3008,6.3164,6.3633,6.4062,6.4297,6.4297,6.4297,6.4492,6.4921,6.496,6.5346,6.6148,6.6148,6.6323,6.6711,6.6711,6.6693,6.6751,6.7608,6.8465,6.9362,7.0219,7.1076,7.1817,7.1817,7.1838,7.1858,7.1867,7.1915,7.1993,7.2869,7.3493,7.4039,4.8693,4.9714,5.0542,4.992,5.1139,5.2563,0.0,0.0,0.0,0.0,0.0,0.0,0.0,0.0,0.0,0.0,0.0,0.0,0.0,0.0,0.0,4.8501,4.8618,4.9431,5.1055,5.0928,5.0508,4.9763,0.0,0.0,0.0,0.0,0.0,0.0,5.0728,5.1273,5.2143,5.1295,5.075,5.0655,5.3598,5.3839,5.2531,5.3591,5.4395,5.5011,5.5511,5.5818,5.5665,5.378,5.5549,5.7956,5.4784,5.5805,5.8083,5.728,5.6717,5.6434,5.7069,5.7362,5.7585,5.7941,5.7372,5.6514,0.0,0.0,0.0,5.442,5.4498,5.4966,5.6528,5.684,5.727,5.8636,5.8011,5.8246,6.0822,6.133,6.1564,6.1915,6.1369,6.1213,6.1876,6.1798,6.1993,6.2696,6.3399,6.3789,6.3789,6.3789,6.3867,6.4023,6.4062,6.4448,6.5256,6.5451,6.5822,6.6486,6.6642,6.6702,6.6722,6.7413,6.831,6.9323,7.0024,7.0881,7.1817,7.1817,7.1817,7.1817,7.1838,7.1887,7.1975,7.2656,7.3055,7.3406,4.8759,4.9271,4.9893,4.9815,5.1101,5.243,5.3282,5.3955,5.4708,5.5517,0.0,0.0,0.0,0.0,0.0,0.0,0.0,0.0,5.0664,0.0,0.0,4.9239,4.9296,4.9738,5.0738,5.0005,4.9225,4.8502,0.0,0.0,0.0,0.0,0.0,4.8816,4.8919,4.9807,5.1136,5.0303,5.07,5.2036,5.3917,5.2369,4.9103,5.1356,5.2241,5.2626,5.4895,5.6203,5.6934,5.7396,5.8357,5.9435,5.9727,5.8594,5.7597,5.9804,5.8854,5.7611,5.9978,6.1225,6.1305,5.928,6.0321,6.0893,5.7294,0.0,5.7972,5.6606,0.0,5.6567,5.7504,0.0,0.0,5.7933,5.9065,5.9846,5.9456,6.0041,6.1134,6.2657,6.0119,5.9456,6.254,6.2149,6.1759,6.1837,6.1954,6.1993,6.1993,6.1993,6.2345,6.3125,6.3164,6.3555,6.4414,6.5194,6.5613,6.5634,6.644,6.6767,6.6702,6.68,6.7725,6.9323,6.9401,7.0336,7.1817,7.1817,7.1817,7.1817,7.1817,7.1827,7.1827,7.1905,7.2451,7.323,4.9682,5.0062,5.0333,5.0333,5.0846,5.1758,5.3089,5.4803,5.5895,5.5703,5.6126,0.0,0.0,0.0,0.0,0.0,0.0,5.101,0.0,0.0,0.0,0.0,4.9933,0.0,5.1464,5.019,4.9421,4.9188,4.8179,4.7233,4.6463,0.0,4.9388,4.9833,4.9407,5.0403,5.2351,5.1513,5.0928,5.079,5.2492,5.1167,4.8634,5.2589,5.4434,5.5011,5.6049,5.7011,5.7665,5.7011,5.8665,6.055,5.7973,5.8742,6.0496,5.9661,5.9374,5.9531,6.0768,6.0976,6.0638,5.975,5.9593,5.9199,5.7549,0.0,5.7427,5.7304,0.0,0.0,0.0,0.0,0.0,0.0,5.7582,5.766,5.8246,5.6957,5.7504,6.1759,6.051,5.9885,6.1369,6.1174,6.0744,6.0237,6.1134,6.1486,6.0978,6.1447,6.1876,6.2228,6.2267,6.2657,6.3555,6.4414,6.5072,6.5523,6.6375,6.6791,6.6767,6.6702,6.7394,6.8564,6.8554,6.9518,7.1115,7.1115,7.1388,7.1817,7.1817,7.1817,7.1817,7.1817,7.2011,7.2557,5.0433,0.0,0.0,5.0317,5.0702,5.1587,5.3318,5.5126,5.6165,0.0,0.0,0.0,5.728,5.6165,0.0,0.0,5.3318,5.2202,0.0,0.0,4.9971,0.0,0.0,0.0,0.0,0.0,4.9823,4.9705,4.8193,4.7249,0.0,0.0,0.0,0.0,5.0271,5.1338,5.3644,5.2524,5.1868,5.1691,5.2447,5.2028,5.1202,5.3972,5.5818,5.7011,5.728,5.7896,5.8473,5.7456,5.9342,0.0,5.8055,5.9595,6.2228,5.9996,6.0035,6.0943,6.146,6.1348,6.0906,6.0406,5.9328,5.8168,5.737,0.0,0.0,5.7629,5.7674,0.0,0.0,0.0,5.7348,5.7465,0.0,5.6606,5.7348,5.5318,5.5552,6.0393,6.0861,6.0666,6.0432,6.0393,6.0041,5.9183,6.0041,6.0354,5.9729,6.051,6.1095,6.133,6.1564,6.1993,6.2657,6.3516,6.437,6.5178,6.6031,6.6571,6.6791,6.6728,6.7188,6.8046,6.8028,6.9031,7.058,7.058,7.1087,7.1817,7.1817,7.1817,7.1817,7.1817,7.1817,7.2011,5.0702,5.001,0.0,0.0,5.0779,5.2472,5.4203,5.4511,0.0,0.0,0.0,0.0,0.0,0.0,0.0,0.0,0.0,5.2972,5.5434,0.0,5.1818,0.0,0.0,5.1933,0.0,0.0,5.026,4.9413,4.8528,4.8489,4.9298,0.0,0.0,0.0,5.1095,5.2121,5.4377,5.2626,5.378,5.6648,5.507,5.5857,5.7627,5.4472,5.4818,5.7088,5.7973,5.8781,5.9588,6.0465,6.1334,0.0,0.0,0.0,6.1103,6.1797,6.1405,6.1166,6.2781,0.0,6.3892,6.1543,0.0,0.0,0.0,0.0,5.8428,5.7731,5.8918,5.9871,5.9173,5.9026,0.0,0.0,5.7933,0.0,0.0,5.6528,5.7153,5.8987,6.0666,6.133,6.0471,6.0393,6.0041,5.9183,5.8363,5.7894,5.7894,5.8714,5.9573,6.0432,6.1252,6.172,6.1759,6.2618,6.3477,6.4336,6.5178,6.5992,6.6811,6.6791,6.729,6.8109,6.8109,6.9068,7.06,7.06,7.1058,7.1817,7.1817,7.1817,7.1817,7.1817,7.1817,7.1934,5.151,0.0,0.0,0.0,5.0741,5.1664,5.3395,5.5049,0.0,0.0,0.0,0.0,0.0,5.8449,5.8042,0.0,0.0,5.5668,5.6511,5.4164,0.0,0.0,0.0,5.3087,0.0,0.0,0.0,0.0,0.0,4.9663,4.9433,5.0586,5.1722,5.2741,5.2512,5.3147,5.4511,5.5049,5.5626,5.6242,5.7401,5.8732,5.9848,5.8072,5.8303,5.954,5.9271,5.9755,0.0,6.0839,6.1494,6.2056,6.1229,6.1747,6.2458,6.161,6.1957,6.2706,0.0,0.0,6.2737,6.194,0.0,0.0,0.0,0.0,5.9149,5.8454,6.0151,6.1473,6.0628,6.0117,5.9459,0.0,5.8181,5.766,0.0,5.5747,5.5942,5.6528,5.8089,5.8987,5.8714,5.8207,5.7504,5.6645,5.6294,5.6138,5.6138,5.8011,5.9222,5.9534,6.0939,6.172,6.172,6.2579,6.3438,6.4297,6.515,6.6009,6.679,6.6811,6.6961,6.7234,6.7259,6.7907,6.899,6.9506,7.0238,7.1048,7.1633,7.1858,7.1838,7.1827,7.1817,7.1856,5.2318,5.1895,5.1395,5.1164,5.1125,5.1587,5.301,0.0,0.0,0.0,5.8081,0.0,6.0071,0.0,5.957,0.0,5.8487,5.785,5.7478,5.5938,0.0,5.6472,5.5241,0.0,0.0,0.0,0.0,0.0,0.0,5.1895,5.1664,5.2433,5.3433,5.4549,5.4549,5.4703,5.5049,5.7071,5.7418,5.69,6.0162,6.1417,6.1379,6.1373,6.1373,6.1263,0.0,6.0492,6.0997,6.1018,6.1327,6.1597,6.0519,6.1309,6.233,6.098,6.1559,6.2618,6.2596,6.232,0.0,6.1736,6.0381,0.0,5.8528,0.0,6.0442,6.004,6.1779,6.3253,6.3045,6.194,6.0767,5.9903,5.8882,5.7518,0.0,5.5044,5.4966,5.524,5.6762,5.7699,5.7387,5.6918,5.6255,5.5357,5.4732,5.4654,5.5279,5.6879,5.8011,5.8636,6.0315,6.1408,6.172,6.2267,6.3125,6.4297,6.4882,6.5702,6.6795,6.6784,6.6784,6.6778,6.6811,6.7305,6.8156,6.8975,6.9834,7.0684,7.1542,7.1885,7.1906,7.1838,7.1827,7.1817,5.3049,5.1933,5.1125,5.1856,5.1972,5.2279,5.3126,5.5497,5.7135,0.0,5.8662,6.0071,6.092,6.0285,6.0092,6.092,6.0226,5.9395,5.8505,5.8389,0.0,0.0,5.6648,5.557,5.2279,0.0,0.0,0.0,0.0,5.5049,5.5703,5.5011,5.5472,5.6934,5.7071,5.6648,5.5994,5.8616,5.9293,5.8967,6.3081,6.3797,6.2562,6.4106,6.3681,6.2176,6.1306,6.0997,6.1018,6.0982,6.1002,6.1022,6.106,6.1041,6.0848,6.0075,6.0421,6.0997,6.0933,6.145,6.1874,6.1074,6.0804,0.0,0.0,0.0,6.2121,0.0,6.3613,6.5045,6.6001,6.4132,6.221,6.1429,5.9874,5.797,5.5626,5.4615,5.4459,5.5279,5.6762,5.7426,5.6606,5.6567,5.6177,5.5162,5.3639,5.3405,5.4888,5.5201,5.6059,5.7621,5.9456,6.0822,6.1681,6.172,6.254,6.4258,6.4297,6.5155,6.6756,6.6795,6.6795,6.6795,6.6795,6.7258,6.8099,6.9036,6.9841,7.0645,7.1542,7.1893,7.1893,7.1906,7.1848,7.1788,5.328,5.3395,5.3395,5.2933,5.2856,5.3164,5.4049,5.6382,0.0,0.0,5.9649,6.0848,6.1041,6.0887,6.079,6.0982,6.0789,0.0,0.0,0.0,0.0,5.868,5.8256,5.7639,5.6752,5.7097,0.0,5.5766,0.0,5.678,5.5703,5.6819,5.6857,5.6126,5.8055,5.8462,5.7867,6.0453,6.2133,6.3196,6.3703,6.4381,6.4943,6.3534,6.3129,6.309,6.1582,6.1041,6.108,6.106,6.106,6.106,6.1079,6.1099,6.1022,6.0828,6.0887,6.108,6.106,6.1136,6.1386,6.179,6.0916,5.9964,0.0,0.0,0.0,0.0,0.0,0.0,0.0,0.0,0.0,6.0389,5.8336,5.6574,5.547,5.5669,5.602,5.6255,5.6645,5.6567,5.5708,5.6216,5.5435,5.2624,5.3171,5.2741,5.0594,5.4147,5.6177,5.5942,5.8831,6.0822,6.1681,6.172,6.2267,6.3321,6.3984,6.4843,6.5936,6.6522,6.6795,6.6795,6.6795,6.6912,6.7258,6.8781,6.9522,6.9868,7.139,7.193,7.1916,7.1893,7.1876,7.1876,5.4359,5.4765,5.4978,5.4477,5.4708,5.4957,5.5052,5.6963,0.0,5.8954,6.0229,0.0,6.1118,6.1118,6.106,6.1041,6.1041,0.0,6.0498,0.0,0.0,5.9724,5.9223,5.8798,5.8412,5.8006,0.0,5.6519,0.0,5.7264,5.628,5.7302,5.7247,5.64,5.8252,5.8641,5.8024,6.0208,6.2372,6.4286,6.3804,6.3979,0.0,6.3342,6.2781,6.2433,6.1389,6.106,6.1118,6.1118,6.1118,6.1118,6.1118,6.1118,6.1118,6.1118,6.1118,6.1195,6.1524,6.1601,6.1775,6.2604,6.2039,6.1417,6.1918,6.2375,6.2637,0.0,6.3306,6.4012,0.0,0.0,6.1541,5.9514,5.7548,5.6168,5.5783,5.5928,5.6177,5.6567,5.6918,5.6645,5.5435,5.5747,5.4888,5.2156,5.3561,5.3873,5.2273,5.5005,5.6723,5.6957,5.9573,6.1213,6.172,6.2462,6.2891,6.3008,6.3867,6.4765,6.5624,6.6444,6.6795,6.6795,6.6795,6.6795,6.6951,6.8669,6.9411,6.9567,7.1324,7.1982,7.1937,7.1924,7.1948,7.1893,5.5845,5.6117,5.6175,5.6097,5.6811,5.7139,5.6444,5.7738,0.0,5.9727,0.0,6.1234,6.1118,6.1118,6.1118,6.1118,0.0,6.079,6.0017,6.0635,6.0693,5.9919,5.986,5.9513,5.878,5.7969,5.7139,0.0,0.0,5.7191,5.7033,5.7191,5.7212,5.7135,5.8122,5.8278,5.7834,5.9573,6.1621,6.3671,6.3555,6.3129,6.2627,6.3168,6.2433,6.1118,6.1118,6.1118,6.1118,6.1118,6.1118,6.1118,6.1118,6.1118,6.1118,6.1234,6.1273,6.1447,6.2258,6.249,6.2663,6.3355,6.3527,6.3488,6.3351,6.3268,6.3415,6.407,6.3561,6.3205,6.3974,0.0,6.1158,5.8876,5.7119,5.6115,5.6095,5.5347,5.5187,5.6441,5.7182,0.0,5.5591,5.5669,5.4927,5.2858,5.4537,5.5591,5.5591,5.6138,5.6996,5.8207,6.0159,6.1408,6.1876,6.3243,6.3672,6.3164,6.3945,6.4687,6.5468,6.6366,6.6795,6.6795,6.6795,6.6795,6.6951,6.8669,6.9528,6.9879,7.1402,7.1987,7.1987,7.1987,7.1969,7.1901,5.6908,5.7486,5.7756,5.7062,5.768,5.8452,5.9012,5.9998,6.0423,5.9882,6.1157,6.1892,6.1195,6.1118,6.1118,6.1118,6.1118,0.0,0.0,0.0,0.0,6.0867,6.0867,6.079,6.0635,5.9785,5.9224,0.0,0.0,0.0,5.7114,5.7832,5.7814,5.7255,5.8838,5.9901,6.0519,6.2259,6.3284,6.3632,6.2936,6.2975,6.3323,6.2046,6.1389,6.1118,6.1118,6.1118,6.1118,6.1118,6.1118,6.1118,6.1118,6.1118,6.1234,6.1969,6.2162,6.2356,6.3245,6.3439,6.3516,6.3613,6.3611,6.3376,6.2601,6.242,6.2236,6.1612,6.132,6.1281,6.1435,0.0,0.0,5.8799,5.6527,0.0,0.0,5.3213,5.3,5.6059,5.6574,5.6556,5.6406,5.7621,5.684,5.2975,5.5591,5.5279,5.0438,5.3561,5.5005,5.3873,5.684,5.9846,6.2735,6.2345,6.2813,6.4062,6.4219,6.4375,6.457,6.6092,6.6795,6.6795,6.6795,6.6795,6.6951,6.8669,7.023,7.1558,7.187,7.1987,7.1987,7.1987,7.1982,7.1982,5.9804,5.9495,5.9186,5.9225,5.9553,5.9997,6.0423,6.1196,6.1466,6.0577,6.0828,6.1118,6.1118,6.1118,6.1118,6.1118,6.1118,6.1118,6.1118,6.1118,6.1118,6.1118,6.1118,6.1118,6.1118,6.0287,5.9824,5.9726,0.0,0.0,0.0,5.7159,5.6946,5.6599,5.7466,5.905,6.1118,6.1079,6.1543,6.2317,6.1892,6.1969,6.224,6.1427,6.1118,6.1157,6.1621,6.1776,6.1698,6.1234,6.1118,6.1195,6.1621,6.1776,6.1969,6.282,6.2743,6.2588,6.3439,6.3362,6.3129,6.3594,6.3999,6.4211,6.3766,6.3626,6.3351,6.2397,6.1851,6.1405,6.0896,6.0435,0.0,0.0,0.0,0.0,0.0,5.4349,5.3541,5.4791,5.6124,5.6417,5.5178,5.7439,5.7434,5.3678,5.6138,5.5942,5.1726,5.3912,5.5123,5.4732,5.7153,5.9495,6.1642,6.2579,6.3008,6.2969,6.3399,6.3867,6.4336,6.5585,6.6405,6.6795,6.6795,6.6795,6.6951,6.8669,7.0426,7.1987,7.1987,7.1987,7.1987,7.1987,7.1987,7.1987,6.2027,6.135,6.077,6.1041,6.1427,6.166,6.166,6.224,6.2356,6.1505,6.0654,6.0383,6.1041,6.1118,6.1118,6.1118,6.1118,6.1118,6.1118,6.1118,6.1118,6.1118,6.1118,6.1118,6.1118,6.0306,5.9784,0.0,0.0,0.0,0.0,5.6675,5.6462,5.6307,5.6652,5.8139,6.0228,5.9261,5.9648,6.0886,6.1234,6.1389,6.1389,6.1389,6.1389,6.1427,6.193,6.2124,6.2046,6.1543,6.1389,6.1505,6.2201,6.2278,6.2278,6.3168,6.2936,6.2588,6.3439,6.3207,6.2859,6.3516,6.4213,6.4715,6.4715,6.4675,6.4419,6.3643,6.2805,6.1928,6.0997,6.0396,0.0,0.0,0.0,0.0,0.0,5.4917,5.3391,5.3314,5.5061,5.5385,5.3001,5.5969,5.6745,5.366,5.547,5.5747,5.3561,5.4264,5.5044,5.5747,5.7933,5.969,6.0939,6.2813,6.3243,6.2267,6.2774,6.3477,6.4336,6.5194,6.6053,6.6795,6.6795,6.699,6.7459,6.8825,7.0426,7.1987,7.1987,7.1987,7.1987,7.1987,7.1987,7.1987,6.135,6.2356,6.2859,6.135,6.2394,6.3439,6.3439,6.3516,6.3284,6.2394,6.1505,6.1041,6.1079,6.1118,6.1118,6.1118,6.1118,6.1118,6.1118,6.1118,6.1118,6.1118,6.1118,6.1118,6.1118,6.0306,5.9475,0.0,0.0,5.7639,0.0,5.7657,5.7946,5.7232,5.8836,5.8836,0.0,5.9184,5.988,6.0151,6.166,6.2278,6.2278,6.2278,6.2278,6.2201,6.1466,6.1234,6.135,6.2046,6.2278,6.2278,6.2356,6.1853,6.1389,6.2278,6.2472,6.2588,6.3439,6.3632,6.3594,6.3671,6.3748,6.3826,6.3727,6.3706,6.3685,6.3527,6.2805,6.1912,6.1065,6.1443,6.132,0.0,0.0,0.0,0.0,0.0,4.9599,5.1966,5.2515,5.2031,5.0342,5.3269,5.4246,5.1739,5.2567,5.2741,5.1687,5.2468,5.2975,5.3053,5.6996,6.0276,6.2735,6.2228,6.2657,6.4062,6.3321,6.3477,6.4336,6.5194,6.6053,6.6795,6.6795,6.7693,6.9176,6.9333,7.0426,7.1987,7.1987,7.1987,7.1987,7.1987,7.1987,7.1987,6.3516,6.3594,6.3632,6.3478,6.3594,6.3864,6.4406,6.4483,6.4367,6.4019,6.3207,6.2665,6.2665,6.2665,6.2665,6.2665,6.2665,6.2665,6.2665,6.2665,6.2665,6.2665,6.2665,6.2433,6.1892,6.1582,6.0944,0.0,0.0,0.0,0.0,0.0,5.7637,5.7327,0.0,5.8023,5.8874,5.9029,5.9416,5.9996,6.1157,6.1621,6.1698,6.2201,6.2394,6.2511,6.3207,6.3439,6.3555,6.4406,6.3671,6.2588,6.3632,6.371,6.3594,6.4445,6.398,6.3245,6.3594,6.2936,6.2124,6.2124,6.2511,6.2897,6.2917,6.367,6.4289,6.3685,6.2832,6.2095,6.1747,6.1527,6.1135,6.0442,0.0,0.0,0.0,5.328,5.1145,5.3282,5.3108,5.2141,5.0488,5.3484,5.4682,5.2693,5.3057,5.3019,5.2234,5.1531,5.2117,5.4186,5.5435,5.7777,6.1408,6.1603,6.2032,6.2735,6.293,6.3477,6.4336,6.5194,6.6053,6.6795,6.6795,6.7771,6.9411,6.9411,7.0426,7.1987,7.1987,7.1987,7.1987,7.1987,7.1987,7.1987,6.5064,6.4677,6.4561,6.4909,6.4677,6.4638,6.5257,6.5334,6.5334,6.5334,6.5025,6.4522,6.3787,6.371,6.371,6.371,6.371,6.371,6.371,6.371,6.371,6.371,6.371,0.0,6.2433,6.2394,6.1853,6.0731,6.0963,0.0,0.0,0.0,0.0,0.0,5.7327,5.8023,5.9493,5.9145,5.9609,6.0692,6.1543,6.2008,6.2317,6.2936,6.3168,6.3323,6.4561,6.4986,6.5141,6.6224,6.5373,6.4019,6.4754,6.4831,6.4715,6.5296,6.4638,6.371,6.371,6.2781,6.1814,6.1543,6.193,6.2394,6.2394,6.3362,6.4058,6.3399,6.2681,6.2138,6.1867,6.1323,6.0933,6.0933,0.0,0.0,0.0,5.4416,5.2184,5.3895,5.2895,5.1318,4.9394,5.2337,5.3486,5.1347,5.2045,5.2572,5.2571,5.1401,5.1999,5.4752,5.526,5.7177,6.0744,6.1408,6.172,6.172,6.2579,6.3477,6.4336,6.5468,6.6249,6.6795,6.6795,6.7771,6.9411,6.9411,7.0426,7.1987,7.1987,7.1987,7.1987,7.1987,7.1987,7.1987,6.5141,6.5644,6.5915,6.5141,6.5644,6.6185,6.6185,6.6185,6.6185,6.6185,6.692,6.6495,6.398,6.371,6.371,6.371,6.371,6.371,6.371,6.371,6.371,6.371,6.371,6.3284,6.2433,6.2394,6.1582,5.9919,0.0,0.0,5.8642,0.0,5.9416,5.8604,5.9455,5.9377,5.8681,5.9532,6.0847,6.2472,6.3323,6.4174,6.4948,6.4948,6.4948,6.4948,6.4986,6.4986,6.5257,6.692,6.7462,6.7152,6.5528,6.4406,6.371,6.371,6.371,6.371,6.371,6.3671,6.3439,6.2588,6.2394,6.2394,6.2394,6.2433,6.2433,6.2433,6.2356,6.2045,6.1157,6.1,6.0997,6.0997,0.0,0.0,0.0,5.3918,5.1337,5.301,5.0971,4.8432,4.5893,4.874,4.9409,4.6148,4.8213,5.0439,5.22,5.2278,0.0,5.3791,5.7073,0.0,6.1681,6.1681,6.172,6.172,6.2579,6.3477,6.4375,6.6014,6.6795,6.6795,6.6795,6.7771,6.9411,6.9411,7.0426,7.1987,7.1987,7.1987,7.1987,7.1987,7.1987,7.1987,6.5064,6.5644,6.6108,6.5876,6.6533,6.7075,6.7075,6.7578,6.7965,6.7965,6.8197,6.8081,6.7268,6.7191,6.7191,6.7191,6.7191,6.692,6.634,6.6301,6.6031,6.5412,6.5412,6.5025,6.4174,6.4174,6.3632,6.2472,0.0,0.0,0.0,6.1039,6.065,5.9276,6.068,6.1489,6.1858,6.2832,6.3548,6.411,6.5043,6.5178,6.49,6.5479,6.5324,6.5016,6.6157,6.6625,6.6882,6.8003,6.839,6.8274,6.7771,6.7384,6.7191,6.7191,6.6766,6.6301,6.6301,6.5876,6.5218,6.4367,6.4174,6.3864,6.2665,6.2394,6.2588,6.3168,6.2801,6.2298,6.2027,6.1447,6.1021,6.1021,5.9552,0.0,5.7621,5.5654,5.4651,5.573,5.5171,5.3475,5.0277,5.1992,5.2165,4.9332,5.149,5.252,5.1552,5.1435,0.0,0.0,5.6442,5.847,6.1534,6.1573,6.1602,6.172,6.3204,6.4648,6.6014,6.6561,6.6795,6.6834,6.742,6.8357,6.945,7.0035,7.0972,7.1987,7.1987,7.1987,7.1987,7.1987,7.1987,7.1987,6.5876,6.634,6.6804,6.7114,6.7617,6.8003,6.8003,6.8468,6.8816,6.8816,6.9048,6.9241,6.9241,6.9551,0.0,6.8854,6.8816,6.8584,6.8042,6.8003,6.7771,6.7191,6.7191,6.6804,6.5953,6.5953,0.0,6.4638,6.483,6.3857,6.1819,6.2359,6.2005,6.095,6.2026,6.2998,6.3892,6.4155,6.4701,6.528,6.5561,6.5479,6.5249,6.575,6.5827,6.5866,6.7215,6.7957,6.839,6.9103,6.9117,6.8886,6.8847,6.8641,6.8521,6.8734,6.8429,6.8003,6.8003,6.7578,6.6998,6.6147,6.5953,6.5489,6.3787,6.2859,6.2549,6.3091,6.2511,6.193,6.193,6.1447,6.1041,6.1041,5.9611,5.851,5.8645,5.6831,5.5847,5.6985,5.6618,5.4863,5.1393,5.2897,5.2878,4.9971,5.2435,5.3147,5.1044,5.2423,5.4003,5.5578,5.6519,5.8414,6.1351,6.139,6.1637,6.2116,6.3935,6.5507,6.6795,6.6795,6.6795,6.6834,6.7732,6.8591,6.945,7.0348,7.1206,7.1987,7.1987,7.1987,7.1987,7.1987,7.1987,7.1987,6.7423,6.7578,6.7849,6.8661,6.8854,6.8893,6.8893,6.8932,6.897,6.897,6.9628,7.0092,7.0092,7.0789,7.0672,6.9125,0.0,6.897,6.8893,6.8816,6.8777,6.87,6.8661,6.8236,6.7423,6.7423,6.6977,6.6165,6.5247,6.4301,6.3372,6.3372,6.3372,6.3372,6.3411,6.396,6.481,6.4116,6.4717,6.6106,6.5489,6.5572,6.6026,6.6026,6.6526,6.7295,6.8141,6.8987,6.9701,7.0056,6.9731,6.912,6.9005,6.8556,6.8147,6.8629,6.8816,6.8816,6.8816,6.8854,6.8661,6.7733,6.7423,6.692,6.5373,6.371,6.2472,6.2433,6.1737,6.1157,6.1118,6.1118,6.1079,6.1041,5.9764,5.9282,6.0713,5.7582,5.5671,5.712,5.5924,0.0,5.0212,5.2064,5.2162,4.887,5.1587,5.2724,5.1222,5.4972,5.6424,5.4813,5.725,5.9426,6.1172,6.1172,6.1758,6.2893,6.4691,6.6009,6.679,6.6795,6.6795,6.6834,6.7771,6.8669,6.945,7.0426,7.1285,7.1987,7.1987,7.1987,7.1987,7.1987,7.1987,7.1987,6.8468,6.8506,6.8545,6.8777,6.9319,6.9705,6.9705,7.0286,7.0711,7.0711,7.0866,7.0982,7.0982,7.1175,7.1137,7.075,7.0711,7.044,6.9744,6.9125,6.8506,6.7849,6.7152,6.6727,6.6495,6.6411,6.6206,6.5881,6.4985,6.4411,6.4128,6.4089,6.4047,6.4001,6.4652,6.5035,6.536,6.6584,6.7291,6.7714,6.8975,6.9102,6.8541,6.8541,6.8272,6.7975,6.8848,6.9498,6.9986,7.0145,7.0217,7.0267,6.9976,6.9763,6.9506,6.8834,6.8712,6.8816,6.8816,6.9241,6.9357,6.7887,6.6533,6.5489,6.5102,6.4174,6.3207,6.2549,6.224,6.1892,6.1234,6.1118,6.0886,6.0267,6.0383,6.019,5.932,5.9398,5.9243,5.8392,5.849,5.7291,5.3816,5.4048,5.403,0.0,5.3803,5.4631,5.5555,5.7687,5.7841,5.5555,5.7944,5.9822,6.1036,6.1074,6.1895,6.3573,6.4793,6.5814,6.6633,6.6733,6.6795,6.6873,6.8435,6.9215,6.9528,7.105,7.1792,7.1987,7.1987,7.1987,7.1987,7.1987,7.1987,7.1987,6.928,6.9357,6.943,6.9663,7.0088,7.031,7.0144,7.0567,7.0837,7.0837,7.0837,7.0837,7.0837,7.0837,7.081,7.0651,7.1053,7.1098,7.0634,7.017,6.9744,6.9241,6.8734,6.842,6.842,6.8304,6.7962,6.7445,6.6984,6.6479,6.5992,6.5953,6.5924,6.591,6.633,6.6782,6.7255,6.788,6.8369,6.8752,6.9544,6.9496,6.8951,6.916,6.9129,6.9091,6.9585,7.0157,7.0725,7.0529,7.0319,7.0191,6.9913,6.955,6.9122,6.874,6.9167,6.9779,6.9826,6.9888,6.964,6.8408,6.7114,6.6147,6.6147,6.518,6.4174,6.3671,6.2936,6.2278,6.1776,6.1389,6.0847,6.0035,6.0576,6.0499,5.8836,5.9725,5.9919,5.8217,5.8797,5.8255,5.5552,5.6016,5.6152,5.5305,5.631,5.6965,5.7117,5.904,5.9149,5.6973,5.8973,6.0349,6.0902,6.1776,6.2876,6.4261,6.527,6.5998,6.6477,6.6633,6.6947,6.7376,6.8775,6.9645,7.0113,7.1441,7.1987,7.1987,7.1987,7.1987,7.1987,7.1987,7.1987,7.1987,6.9779,6.9934,7.0092,7.0574,7.0633,7.0546,7.0266,7.0233,7.0233,7.02,7.0276,7.0391,7.0391,7.0467,7.0476,7.0225,7.0911,7.1284,7.1053,7.0899,7.0821,7.0821,7.067,7.0581,7.0581,7.0448,6.9894,6.8954,6.9107,6.8706,6.7888,6.7954,6.7954,6.7986,6.7904,6.8373,6.9144,6.8587,6.8786,6.9406,6.9081,6.883,6.8714,6.8951,6.9416,7.006,7.006,7.0541,7.1116,7.0574,7.0003,6.9471,6.9385,6.8809,6.8323,6.8792,6.9933,7.1046,7.0735,7.0155,6.9509,6.906,6.8214,6.7501,6.7501,6.6301,6.5141,6.5025,6.3826,6.2704,6.2472,6.1814,6.1041,6.019,6.0886,6.0847,5.9029,5.9648,5.9571,5.7714,5.8139,5.8023,5.6553,5.7598,5.7889,5.6693,5.8355,5.8877,5.7755,5.9622,6.0102,5.8765,6.005,6.0858,6.0973,6.2853,6.4095,6.4791,6.5795,6.6267,6.6283,6.6581,6.7147,6.7899,6.9053,6.9985,7.072,7.163,7.1987,7.1987,7.1987,7.1987,7.1987,7.1987,7.1987,7.1987,6.9576,6.9614,6.9652,6.9985,7.0057,7.0023,6.9988,6.9988,6.988,6.9624,7.0232,7.065,7.065,7.1219,7.1636,7.1597,7.175,7.1216,6.988,6.9084,6.8704,6.8666,6.833,6.8143,6.8143,6.8024,6.761,6.693,6.7683,6.7943,6.783,6.8149,6.8299,6.8335,6.8035,6.8005,6.8196,6.9084,6.9512,6.9701,6.9913,7.0046,6.9966,6.9316,6.9166,6.9278,6.9278,6.9536,6.9793,6.8989,6.8874,6.8967,6.8655,6.8926,6.9453,6.9917,7.0982,7.1517,6.9299,6.877,6.8907,6.9509,6.8536,6.7501,6.7501,6.6727,6.5837,6.5141,6.4793,6.4135,6.2665,6.2278,6.193,6.1041,6.224,6.2433,6.0035,6.1041,6.1118,5.8681,5.8526,5.8488,5.8217,5.7791,5.8023,5.9223,5.8258,5.8414,6.0287,6.0053,6.0089,6.059,6.0712,6.1127,6.1897,6.3599,6.4508,6.4663,6.5659,6.6109,6.6167,6.7044,6.751,6.7758,6.9484,7.0318,7.0523,7.1572,7.1987,7.1987,7.1987,7.1987,7.1987,7.1987,7.1987,7.1987,6.9475,6.9475,6.9474,6.9434,6.9433,6.9504,6.9745,6.9778,6.9885,7.021,7.0579,7.0804,7.0804,7.1141,7.132,7.1182,7.1182,7.0798,6.9873,7.0056,7.0194,7.0194,6.9929,6.9778,6.97,6.9659,6.9457,6.9197,6.961,6.9798,6.9798,7.0014,6.9834,6.9423,6.9245,6.8944,6.8603,6.9617,7.0026,7.0098,7.0892,7.1227,7.1179,7.0995,7.093,7.093,7.093,7.1035,7.1119,7.0713,7.0698,7.0826,7.0696,7.0739,7.0846,7.0608,7.1068,7.1367,6.9988,6.9371,6.9091,6.9014,6.8535,6.8111,6.8111,6.7459,6.6804,6.6417,6.5644,6.4599,6.3323,6.2704,6.2278,6.1892,6.2085,6.1737,6.0112,6.0576,6.0422,5.8797,5.899,5.9455,5.988,5.9571,5.9687,6.0499,5.9784,5.9804,6.0925,6.1059,6.1271,6.1615,6.1527,6.2136,6.3435,6.4205,6.4859,6.532,6.575,6.6221,6.6669,6.7232,6.7986,6.8897,6.9881,7.0576,7.1018,7.1549,7.1728,7.1728,7.1789,7.1846,7.1854,7.1976,7.1987,7.1987,6.934,6.9378,6.9327,6.9319,6.9349,6.9472,6.983,6.9892,7.0064,7.0643,7.0902,7.1013,7.1013,7.1161,7.1168,7.0954,7.0954,7.0882,7.066,7.1514,7.1852,7.1519,7.1282,7.1193,7.1041,7.0854,7.0696,7.0639,7.0826,7.0901,7.0901,7.1041,7.0863,7.0413,7.0361,7.0067,6.9729,7.0384,7.0713,7.0779,7.1515,7.1865,7.1849,7.1931,7.1945,7.1945,7.1945,7.1945,7.1945,7.1945,7.1945,7.1945,7.1945,7.1858,7.1717,7.1124,7.1162,7.1257,7.0658,7.0111,6.9568,6.9009,6.8835,6.882,6.882,6.8235,6.7647,6.7497,6.6415,6.5237,6.4174,6.3439,6.2936,6.2743,0.0,6.1273,6.0074,6.0228,5.9996,5.8758,5.9532,6.0422,6.1041,6.1118,6.1195,6.1389,6.1389,6.1486,6.1601,6.2258,6.2702,6.2832,6.2789,6.3338,6.4638,6.4806,6.5268,6.5923,6.609,6.6513,6.709,6.7672,6.8651,6.9872,7.0273,7.0831,7.143,7.1465,7.1481,7.1497,7.1615,7.1653,7.1665,7.1837,7.1901,7.1901,6.8767,6.8914,6.9278,7.0228,7.0428,7.0375,7.0449,7.0434,7.0381,7.0184,7.079,7.1267,7.1267,7.1929,7.2369,7.2369,7.2312,7.2312,7.2312,7.2426,7.1784,7.0275,6.9902,6.9744,6.9744,6.9,6.8383,6.7994,6.8873,6.9242,6.9081,6.9682,7.0251,7.0747,7.0442,7.0661,7.1329,7.1727,7.19,7.1849,7.1489,7.1341,7.1267,7.055,7.0293,7.0293,7.0293,7.0293,7.0293,7.0293,7.0293,7.0293,7.0293,7.0734,7.1341,7.1304,7.1595,7.1637,7.0266,6.9923,7.0057,7.0417,7.0046,6.9513,6.9513,6.8886,6.8065,6.7417,6.7209,6.6676,6.5159,6.4831,6.4522,6.3748,0.0,6.2665,6.0228,6.1234,6.1311,5.8874,6.0035,6.1041,6.1079,6.1118,6.1427,6.224,6.2317,6.2665,6.3478,6.3555,6.3961,6.4672,6.4646,6.4663,6.4778,6.5519,6.5919,6.5996,6.6692,6.7051,6.7167,6.8809,6.9578,6.9759,7.0722,7.1158,7.1257,7.1413,7.1481,7.1481,7.1497,7.1497,7.1497,7.1513,7.1552,7.163,6.9596,6.9633,6.9798,7.0202,7.0238,7.0422,7.0938,7.1011,7.114,7.1541,7.1872,7.2055,7.2055,7.2312,7.2496,7.2496,7.2496,7.2496,7.2496,7.2496,7.2239,7.1615,7.1508,7.1433,7.1433,7.1102,7.0845,7.066,7.1047,7.1194,7.1138,7.1379,7.1377,7.1102,7.0983,7.0828,7.0665,7.1266,7.1581,7.1563,7.1892,7.2055,7.2018,7.1688,7.1578,7.1578,7.1578,7.1578,7.1578,7.1578,7.1578,7.1578,7.1578,7.1798,7.1945,7.1468,7.1085,7.0745,7.0527,7.0516,7.0687,7.0832,7.0598,7.0259,7.0259,6.9662,6.9013,6.8758,6.8371,6.7595,6.5925,6.568,6.5644,6.5296,0.0,6.3091,6.371,6.2975,6.224,6.1814,6.2317,6.2704,6.2704,6.2704,6.2859,6.3168,6.3207,6.3362,6.3671,6.4213,6.487,6.5701,6.568,6.5616,6.5543,6.5866,6.6203,6.6679,6.6962,6.7667,6.8744,6.9398,6.9975,7.0475,7.0851,7.1017,7.1017,7.1101,7.1124,7.1147,7.1299,7.13,7.132,7.1448,7.1831,7.2297,7.044,7.0477,7.055,7.0807,7.0844,7.1027,7.1615,7.1688,7.1872,7.2422,7.2496,7.2496,7.2496,7.2496,7.2496,7.2496,7.2496,7.2496,7.2496,7.2553,7.2553,7.2496,7.2275,7.2129,7.2129,7.1872,7.1762,7.1762,7.1818,7.1818,7.1762,7.1818,7.1635,7.1321,7.1321,7.1138,7.0881,7.1431,7.1688,7.1725,7.2275,7.2496,7.2496,7.2496,7.2496,7.2496,7.2496,7.2496,7.2496,7.2496,7.2496,7.2496,7.2496,7.2496,7.2386,7.1835,7.1284,7.0956,7.1263,7.1301,7.1346,7.1367,7.1098,7.0834,7.0999,7.0401,6.9798,6.9585,6.9167,6.8437,6.6984,6.6869,6.678,6.6239,6.4695,6.4019,6.5257,6.3903,6.3013,6.3632,6.371,6.371,6.371,6.371,6.3787,6.4097,6.4097,6.4213,6.4483,6.5064,6.576,6.6572,6.6611,6.6703,6.6838,6.6568,6.683,6.7589,6.7834,6.8578,6.9706,6.9975,7.0398,7.0898,7.0898,7.0898,7.0898,7.0898,7.0898,7.0925,7.1029,7.1101,7.1163,7.1549,7.2075,7.2618,7.1174,7.1321,7.1578,7.2349,7.2496,7.2496,7.2496,7.2496,7.2496,7.2496,7.2496,7.2496,7.2496,7.2496,7.2496,7.2496,7.2496,7.2496,7.2496,7.261,7.2667,7.2496,7.1762,7.1321,7.1321,7.0513,7.011,7.011,7.0275,7.0275,7.011,7.0275,7.0662,7.1321,7.1321,7.1762,7.2496,7.2496,7.2496,7.2496,7.2532,7.2532,7.2532,7.2532,7.2532,7.2532,7.2532,7.2532,7.2532,7.2532,7.2532,7.2532,7.2496,7.2496,7.2496,7.2496,7.2496,7.2496,7.2496,7.2226,7.2013,7.2188,7.1596,7.1105,7.1613,7.103,7.0222,6.9536,6.9413,6.9165,6.8421,6.8462,6.8058,6.6322,6.614,6.5644,6.398,6.3748,6.3748,6.3748,6.371,6.371,6.371,6.371,6.4097,6.4948,6.5025,6.5373,6.6185,6.6224,6.6611,6.7501,6.7501,6.7905,6.8712,6.784,6.7795,6.8636,6.9412,6.9785,6.9744,7.0552,7.0898,7.0898,7.0898,7.0898,7.0898,7.0898,7.0898,7.0898,7.0898,7.0898,7.1014,7.186,7.2206,7.2437,7.2206,7.2222,7.2239,7.2459,7.2553,7.2667,7.2667,7.2667,7.2667,7.2667,7.2667,7.2667,7.2667,7.2667,7.2667,7.2667,7.2553,7.2553,7.261,7.2779,7.2927,7.2872,7.2502,7.2299,7.2299,7.2078,7.1931,7.1931,7.1931,7.1912,7.1798,7.1818,7.1965,7.2165,7.2165,7.2275,7.2532,7.3083,7.334,7.3377,7.3964,7.4184,7.4184,7.4184,7.4184,7.4184,7.4184,7.4184,7.4184,7.4184,7.4184,7.4111,7.3523,7.334,7.323,7.2679,7.2496,7.2496,7.2496,7.2426,7.2317,7.21,7.1704,7.1497,7.194,7.1408,7.0872,7.0992,7.0616,7.0056,6.9232,6.9271,6.9099,6.8019,6.7917,6.7849,6.7346,6.7268,6.7268,6.7268,6.6727,6.6379,6.6379,6.6379,6.6456,6.6727,6.7307,6.7771,6.8003,6.8042,6.8158,6.839,6.8429,6.8816,6.9607,6.8751,6.8706,6.9524,6.9731,7.0131,7.0632,7.0863,7.0952,7.0898,7.0898,7.0898,7.0898,7.0898,7.0898,7.0898,7.0898,7.1283,7.1822,7.2091,7.2937,7.4014,7.2779,7.2723,7.2704,7.2704,7.2723,7.2779,7.2779,7.2723,7.2723,7.2723,7.2723,7.2723,7.2723,7.2779,7.2779,7.2779,7.2723,7.2723,7.2779,7.2982,7.3037,7.2982,7.3222,7.3222,7.2872,7.2779,7.2779,7.2779,7.2779,7.2779,7.2704,7.2704,7.2851,7.3145,7.3145,7.3329,7.3603,7.4117,7.4243,7.4221,7.4698,7.4918,7.4918,7.4918,7.4918,7.4918,7.4918,7.4918,7.4918,7.4918,7.4918,7.4845,7.4331,7.4184,7.4074,7.3597,7.345,7.345,7.345,7.323,7.292,7.2724,7.2197,7.179,7.2284,7.1769,7.1285,7.156,7.1439,7.104,7.02,7.0363,7.0233,6.9078,6.9061,6.9099,6.879,6.8773,6.8816,6.8816,6.8352,6.8003,6.8003,6.8003,6.8003,6.8003,6.8506,6.8816,6.8816,6.8816,6.897,6.9241,6.928,6.9667,7.0518,6.9993,6.9988,7.0421,7.0421,7.0604,7.103,7.103,7.1005,7.0952,7.0952,7.0925,7.0898,7.0898,7.1091,7.1398,7.1398,7.1937,7.2745,7.3053,7.3822,7.4745,7.3037,7.2982,7.2982,7.2982,7.2982,7.3037,7.3037,7.2835,7.2723,7.2723,7.2723,7.2723,7.2723,7.2927,7.3037,7.3037,7.3111,7.3148,7.3148,7.333,7.3367,7.3258,7.407,7.4107,7.3258,7.3258,7.3258,7.3258,7.3258,7.3204,7.3204,7.3204,7.361,7.4312,7.4275,7.4662,7.519,7.5264,7.5147,7.5028,7.5102,7.5139,7.5139,7.5139,7.5139,7.5139,7.5139,7.5139,7.5139,7.5139,7.5139,7.5102,7.5028,7.5028,7.4992,7.4918,7.4918,7.4918,7.4918,7.4368,7.3817,7.3817,7.2964,7.2272,7.2651,7.2154,7.1599,7.1681,7.1996,7.2053,7.1295,7.1617,7.1513,6.9873,6.9848,6.9755,6.8945,6.8922,6.9009,6.9009,6.897,6.8932,6.8932,6.8932,6.8932,6.9009,6.9009,6.9009,6.9009,6.9009,6.9357,7.0092,7.0131,7.0479,7.1291,7.1369,7.1347,7.1224,7.1224,7.1178,7.1106,7.1106,7.1081,7.1005,7.1082,7.1094,7.1014,7.1091,7.1591,7.2322,7.2322,7.286,7.3707,7.4437,7.4745,7.4938,7.3145,7.3091,7.2982,7.2982,7.3091,7.3145,7.3145,7.3145,7.3091,7.3091,7.3091,7.3091,7.3091,7.3145,7.3145,7.3145,7.3737,7.4107,7.4107,7.4826,7.5213,7.5213,7.5399,7.5399,7.516,7.5088,7.5033,7.5033,7.5033,7.4977,7.4866,7.4866,7.494,7.5124,7.5048,7.5064,7.5227,7.5698,7.5896,7.5909,7.6533,7.679,7.679,7.679,7.679,7.679,7.679,7.679,7.679,7.679,7.679,7.668,7.6056,7.5836,7.5726,7.5102,7.4918,7.4918,7.4918,7.4771,7.4661,7.4661,7.4007,7.3277,7.3201,7.278,7.2553,7.2982,7.2966,7.2764,7.2609,7.2773,7.2587,7.1551,7.1618,7.153,7.0681,7.0683,7.075,7.075,7.017,6.9744,6.9744,6.9744,7.0015,7.0711,7.075,7.075,7.075,7.075,7.0827,7.1021,7.1021,7.1098,7.1291,7.1988,7.1988,7.1269,7.1269,7.1247,7.1178,7.1178,7.1154,7.112,7.1763,7.2006,7.2057,7.2696,7.3053,7.3206,7.3206,7.3707,7.4476,7.463,7.513,7.5745,7.3305,7.3252,7.3199,7.3199,7.3252,7.3305,7.3305,7.3252,7.3199,7.3199,7.3199,7.3347,7.3717,7.3808,7.401,7.4418,7.4826,7.5085,7.5085,7.551,7.5787,7.5787,7.6196,7.6419,7.6419,7.6736,7.6495,7.5716,7.5716,7.5624,7.5569,7.5569,7.5792,7.6199,7.6143,7.6252,7.6565,7.6796,7.6861,7.6838,7.7157,7.7304,7.7304,7.7304,7.7304,7.7304,7.7304,7.7304,7.7304,7.7304,7.7304,7.7268,7.6827,7.668,7.6607,7.6203,7.6056,7.6056,7.6056,7.5763,7.5469,7.5469,7.4882,7.4096,7.3591,7.3013,7.2694,7.2944,7.3257,7.338,7.2924,7.3301,7.3418,7.2576,7.2639,7.2657,7.2276,7.2327,7.2422,7.2529,7.1756,7.1059,7.0672,7.0982,7.1446,7.1872,7.2297,7.2529,7.2529,7.2529,7.2529,7.2529,7.2529,7.2529,7.2529,7.2993,7.2993,7.2529,7.2529,7.2507,7.2484,7.2484,7.2461,7.2428,7.2828,7.3009,7.2984,7.342,7.379,7.4109,7.4109,7.462,7.5322,7.5322,7.563,7.6015,7.3372,7.3372,7.3372,7.3372,7.3372,7.3372,7.3372,7.3416,7.3474,7.3474,7.3585,7.3919,7.4586,7.4768,7.5044,7.5713,7.5936,7.601,7.601,7.6159,7.6233,7.6233,7.6902,7.731,7.731,7.7942,7.7608,7.6233,7.6233,7.6233,7.6233,7.6233,7.6604,7.7273,7.7273,7.7534,7.8014,7.7842,7.7703,7.7584,7.7402,7.7304,7.7304,7.7304,7.7304,7.7304,7.7304,7.7304,7.7304,7.7304,7.7304,7.7304,7.7304,7.7304,7.7304,7.7304,7.7304,7.7304,7.7304,7.6827,7.6313,7.6313,7.5726,7.4955,7.4258,7.3435,7.2851,7.2851,7.3438,7.3784,7.3025,7.3682,7.402,7.3219,7.327,7.3384,7.338,7.3509,7.3639,7.3837,7.3242,7.2529,7.1794,7.2413,7.28,7.28,7.3496,7.3883,7.3883,7.3883,7.3883,7.3883,7.3883,7.3883,7.3883,7.4038,7.4115,7.4115,7.427,7.4193,7.3883,7.3883,7.386,7.3814,7.3944,7.3959,7.3947,7.4063,7.4475,7.5039,7.5039,7.5446,7.6044,7.5976,7.6015,7.6015,7.3372,7.3372,7.3372,7.3372,7.3372,7.3372,7.3372,7.3967,7.4413,7.4413,7.5044,7.5527,7.5639,7.5639,7.5676,7.5787,7.6493,7.6902,7.6902,7.757,7.7942,7.7942,7.8053,7.8128,7.8128,7.8239,7.8165,7.7942,7.7942,7.7942,7.7942,7.7942,7.8016,7.8128,7.7979,7.7903,7.8014,7.7762,7.762,7.7584,7.7402,7.7304,7.7304,7.7304,7.7304,7.7304,7.7304,7.7304,7.7304,7.7304,7.7304,7.7304,7.7304,7.7304,7.7304,7.7304,7.7304,7.7304,7.7304,7.7231,7.7157,7.7157,7.6533,7.5909,7.5799,7.4957,7.4232,7.4232,7.4151,7.3972,7.3859,7.4266,7.4368,7.3571,7.3903,7.4005,7.3346,7.3427,7.3613,7.3639,7.3698,7.369,7.3574,7.3651,7.3728,7.3728,7.3844,7.3883,7.3883,7.3883,7.3883,7.3883,7.3883,7.3883,7.3883,7.4579,7.4928,7.4966,7.5701,7.5314,7.3883,7.3883,7.3922,7.3899,7.4548,7.4833,7.4885,7.5568,7.5928,7.6018,7.6018,7.6029,7.6062,7.6005,7.6015,7.6015,7.3372,7.3372,7.3372,7.3372,7.3372,7.3521,7.4004,7.4338,7.4747,7.5193,7.5564,7.5973,7.6456,7.6902,7.7199,7.7199,7.7533,7.7756,7.7756,7.809,7.8276,7.8276,7.8276,7.8276,7.8276,7.8276,7.8276,7.8276,7.8276,7.8276,7.8276,7.8276,7.8276,7.8276,7.8071,7.8014,7.8014,7.7703,7.762,7.7584,7.7402,7.7304,7.7304,7.7304,7.7304,7.7304,7.7304,7.7304,7.7304,7.7304,7.7304,7.7304,7.7304,7.7304,7.7304,7.7304,7.7304,7.7304,7.7304,7.7304,7.7304,7.7304,7.7047,7.679,7.679,7.6015,7.5289,7.4809,7.4842,7.481,7.4362,7.4685,7.474,7.391,7.4216,7.4444,7.4208,7.4597,7.4796,7.4485,7.4494,7.4386,7.396,7.4309,7.4579,7.4579,7.5005,7.5314,7.5314,7.5314,7.5314,7.5314,7.5314,7.5314,7.5314,7.5662,7.5817,7.5817,7.6204,7.6011,7.5314,7.5314,7.5314,7.5314,7.5639,7.577,7.5809,7.6171,7.6301,7.625,7.625,7.6198,7.609,7.6062,7.6005,7.6015]},{"header":{"parameterUnit":"m.s-1","parameterCategory":1,"la1":30.6,"la2":28.766,"lo1":-90.7593,"lo2":-88.6598,"dy":0.0162,"dx":0.0183,"nx":116,"ny":114,"refTime":"2024-03-14T18:00:00:Z","depth":0,"parameterNumber":3,"parameterNumberName":"V-component_of_WINDS"},"data":[0.0,0.0,0.0,0.0,0.0,0.0,0.0,0.0,0.0,0.0,0.0,0.0,0.0,0.0,0.0,0.0,0.0,0.0,0.0,0.0,0.0,0.0,0.0,0.0,0.0,0.0,0.0,0.0,0.0,0.0,0.0,0.0,0.0,0.0,0.0,0.0,0.0,0.0,0.0,0.0,0.0,0.0,0.0,0.0,0.0,0.0,0.0,0.0,0.0,0.0,0.0,0.0,0.0,0.0,0.0,0.0,0.0,0.0,0.0,0.0,0.0,0.0,0.0,0.0,0.0,0.0,0.0,0.0,0.0,0.0,0.0,0.0,0.0,0.0,0.0,0.0,0.0,0.0,0.0,0.0,0.0,0.0,0.0,0.0,0.0,0.0,0.0,0.0,0.0,0.0,0.0,0.0,0.0,0.0,0.0,0.0,0.0,0.0,0.0,0.0,0.0,0.0,0.0,0.0,0.0,0.0,0.0,0.0,0.0,0.0,0.0,0.0,0.0,0.0,0.0,0.0,0.0,0.0,0.0,0.0,0.0,0.0,0.0,0.0,0.0,0.0,0.0,0.0,0.0,0.0,0.0,0.0,0.0,0.0,0.0,0.0,0.0,0.0,0.0,0.0,0.0,0.0,0.0,0.0,0.0,0.0,0.0,0.0,0.0,0.0,0.0,0.0,0.0,0.0,0.0,0.0,0.0,0.0,0.0,0.0,0.0,0.0,0.0,0.0,0.0,0.0,0.0,0.0,0.0,0.0,0.0,0.0,0.0,0.0,0.0,0.0,0.0,0.0,0.0,0.0,0.0,0.0,0.0,0.0,0.0,0.0,0.0,0.0,0.0,0.0,0.0,0.0,0.0,0.0,0.0,0.0,0.0,0.0,0.0,0.0,0.0,0.0,0.0,0.0,0.0,0.0,0.0,0.0,0.0,0.0,0.0,0.0,0.0,0.0,0.0,0.0,0.0,0.0,0.0,0.0,0.0,0.0,0.0,0.0,0.0,0.0,0.0,0.0,0.0,0.0,0.0,0.0,0.0,0.0,0.0,0.0,0.0,0.0,0.0,0.0,0.0,0.0,0.0,0.0,0.0,0.0,0.0,0.0,0.0,0.0,0.0,0.0,0.0,0.0,0.0,0.0,0.0,0.0,0.0,0.0,0.0,0.0,0.0,0.0,0.0,0.0,0.0,0.0,0.0,0.0,0.0,0.0,0.0,0.0,0.0,0.0,0.0,0.0,0.0,0.0,0.0,0.0,0.0,0.0,0.0,0.0,0.0,0.0,0.0,0.0,0.0,0.0,0.0,0.0,0.0,0.0,0.0,0.0,0.0,0.0,0.0,0.0,0.0,0.0,0.0,0.0,0.0,0.0,0.0,0.0,0.0,0.0,0.0,0.0,0.0,0.0,0.0,0.0,0.0,0.0,0.0,0.0,0.0,0.0,0.0,0.0,0.0,0.0,0.0,0.0,0.0,0.0,0.0,0.0,0.0,0.0,0.0,0.0,0.0,0.0,0.0,0.0,0.0,0.0,0.0,0.0,0.0,0.0,0.0,0.0,0.0,0.0,0.0,0.0,0.0,0.0,0.0,0.0,0.0,0.0,0.0,0.0,0.0,0.0,0.0,0.0,0.0,0.0,0.0,0.0,0.0,0.0,0.0,0.0,0.0,0.0,0.0,0.0,0.0,0.0,0.0,0.0,0.0,0.0,0.0,0.0,0.0,0.0,0.0,0.0,0.0,0.0,0.0,0.0,0.0,0.0,0.0,0.0,0.0,0.0,0.0,0.0,0.0,0.0,0.0,0.0,0.0,0.0,0.0,0.0,0.0,0.0,0.0,0.0,0.0,0.0,0.0,0.0,0.0,0.0,0.0,0.0,0.0,0.0,0.0,0.0,0.0,0.0,0.0,0.0,0.0,0.0,0.0,0.0,0.0,0.0,0.0,0.0,0.0,0.0,0.0,0.0,0.0,0.0,0.0,0.0,0.0,0.0,0.0,0.0,0.0,0.0,0.0,0.0,0.0,0.0,0.0,0.0,0.0,0.0,0.0,0.0,0.0,0.0,0.0,0.0,0.0,0.0,0.0,0.0,0.0,0.0,0.0,0.0,0.0,0.0,0.0,0.0,0.0,0.0,0.0,0.0,0.0,0.0,0.0,0.0,0.0,0.0,0.0,0.0,0.0,0.0,0.0,0.0,0.0,0.0,0.0,0.0,0.0,0.0,0.0,0.0,0.0,0.0,0.0,0.0,0.0,0.0,0.0,0.0,0.0,0.0,0.0,0.0,0.0,0.0,0.0,0.0,0.0,0.0,0.0,0.0,0.0,0.0,0.0,0.0,0.0,0.0,0.0,0.0,0.0,0.0,0.0,0.0,0.0,0.0,0.0,0.0,0.0,0.0,0.0,0.0,0.0,0.0,0.0,0.0,0.0,0.0,0.0,0.0,0.0,0.0,0.0,0.0,0.0,0.0,0.0,0.0,0.0,0.0,0.0,0.0,0.0,0.0,0.0,0.0,0.0,0.0,0.0,0.0,0.0,0.0,0.0,0.0,0.0,0.0,0.0,0.0,0.0,0.0,0.0,0.0,0.0,0.0,0.0,0.0,0.0,0.0,0.0,0.0,0.0,0.0,0.0,0.0,0.0,0.0,0.0,0.0,0.0,0.0,0.0,0.0,0.0,0.0,0.0,0.0,0.0,0.0,0.0,0.0,0.0,0.0,0.0,0.0,0.0,0.0,0.0,0.0,0.0,0.0,0.0,0.0,0.0,0.0,0.0,0.0,0.0,0.0,0.0,0.0,0.0,0.0,0.0,0.0,0.0,0.0,0.0,0.0,0.0,0.0,0.0,0.0,0.0,0.0,0.0,0.0,0.0,0.0,0.0,0.0,0.0,0.0,0.0,0.0,0.0,0.0,0.0,0.0,0.0,0.0,0.0,0.0,0.0,0.0,0.0,0.0,0.0,0.0,0.0,0.0,0.0,0.0,0.0,0.0,0.0,0.0,0.0,0.0,0.0,0.0,0.0,0.0,0.0,0.0,0.0,0.0,0.0,0.0,0.0,0.0,0.0,0.0,0.0,0.0,0.0,0.0,0.0,0.0,0.0,0.0,0.0,0.0,0.0,0.0,0.0,0.0,0.0,0.0,0.0,0.0,0.0,0.0,0.0,0.0,0.0,0.0,0.0,0.0,0.0,0.0,0.0,0.0,0.0,0.0,0.0,0.0,0.0,0.0,0.0,0.0,0.0,0.0,0.0,0.0,0.0,0.0,0.0,0.0,0.0,0.0,0.0,0.0,0.0,0.0,0.0,0.0,0.0,0.0,0.0,0.0,0.0,0.0,0.0,0.0,0.0,0.0,0.0,0.0,0.0,0.0,0.0,0.0,0.0,0.0,0.0,0.0,0.0,0.0,0.0,0.0,0.0,0.0,0.0,0.0,0.0,0.0,0.0,0.0,0.0,0.0,0.0,0.0,0.0,0.0,0.0,0.0,0.0,0.0,0.0,0.0,0.0,0.0,0.0,0.0,0.0,0.0,0.0,0.0,0.0,0.0,0.0,0.0,0.0,0.0,0.0,0.0,0.0,0.0,0.0,0.0,0.0,0.0,0.0,0.0,0.0,0.0,0.0,0.0,0.0,0.0,0.0,0.0,0.0,0.0,0.0,0.0,0.0,0.0,0.0,0.0,0.0,0.0,0.0,0.0,0.0,0.0,0.0,0.0,0.0,0.0,0.0,0.0,0.0,0.0,0.0,0.0,0.0,0.0,0.0,0.0,0.0,0.0,0.0,0.0,0.0,0.0,0.0,0.0,0.0,0.0,0.0,0.0,0.0,0.0,0.0,0.0,0.0,0.0,0.0,0.0,0.0,0.0,0.0,0.0,0.0,0.0,0.0,0.0,0.0,0.0,0.0,0.0,0.0,0.0,0.0,0.0,0.0,0.0,0.0,0.0,0.0,0.0,0.0,0.0,0.0,0.0,0.0,0.0,0.0,0.0,0.0,0.0,0.0,0.0,0.0,0.0,0.0,0.0,0.0,0.0,0.0,0.0,0.0,0.0,0.0,0.0,0.0,0.0,0.0,0.0,0.0,0.0,0.0,0.0,0.0,0.0,0.0,0.0,0.0,0.0,0.0,0.0,0.0,0.0,0.0,0.0,0.0,0.0,0.0,0.0,0.0,0.0,0.0,0.0,0.0,0.0,0.0,0.0,0.0,0.0,0.0,0.0,0.0,0.0,0.0,0.0,0.0,0.0,0.0,0.0,0.0,0.0,0.0,0.0,0.0,0.0,0.0,0.0,0.0,0.0,0.0,0.0,0.0,0.0,0.0,0.0,0.0,0.0,0.0,0.0,0.0,0.0,0.0,0.0,0.0,0.0,0.0,0.0,0.0,0.0,0.0,0.0,0.0,0.0,0.0,0.0,0.0,0.0,0.0,0.0,0.0,0.0,0.0,0.0,0.0,0.0,0.0,0.0,0.0,0.0,0.0,0.0,0.0,0.0,0.0,0.0,0.0,0.0,0.0,0.0,0.0,0.0,0.0,0.0,0.0,0.0,0.0,0.0,0.0,0.0,0.0,0.0,0.0,0.0,0.0,0.0,0.0,0.0,0.0,0.0,0.0,0.0,0.0,0.0,0.0,0.0,0.0,0.0,0.0,0.0,0.0,0.0,0.0,0.0,0.0,0.0,0.0,0.0,0.0,0.0,0.0,0.0,0.0,0.0,0.0,0.0,0.0,0.0,0.0,0.0,0.0,0.0,0.0,0.0,0.0,0.0,0.0,0.0,0.0,0.0,0.0,0.0,0.0,0.0,0.0,0.0,0.0,0.0,0.0,0.0,0.0,0.0,0.0,0.0,0.0,0.0,0.0,0.0,0.0,0.0,0.0,0.0,0.0,0.0,0.0,0.0,0.0,0.0,0.0,0.0,0.0,0.0,0.0,0.0,0.0,0.0,0.0,0.0,0.0,0.0,0.0,0.0,0.0,0.0,0.0,0.0,0.0,0.0,0.0,0.0,0.0,0.0,0.0,0.0,0.0,0.0,0.0,0.0,0.0,0.0,0.0,0.0,0.0,0.0,0.0,0.0,0.0,0.0,0.0,0.0,0.0,0.0,0.0,0.0,0.0,0.0,0.0,0.0,0.0,0.0,0.0,0.0,0.0,0.0,0.0,0.0,0.0,0.0,0.0,0.0,0.0,0.0,0.0,0.0,0.0,0.0,0.0,0.0,0.0,0.0,0.0,0.0,0.0,0.0,0.0,0.0,0.0,0.0,0.0,0.0,0.0,0.0,0.0,0.0,0.0,0.0,0.0,0.0,0.0,0.0,0.0,0.0,0.0,0.0,0.0,0.0,0.0,0.0,0.0,0.0,0.0,0.0,0.0,0.0,0.0,0.0,0.0,0.0,0.0,0.0,0.0,0.0,0.0,0.0,0.0,0.0,0.0,0.0,0.0,0.0,0.0,0.0,0.0,0.0,0.0,0.0,0.0,0.0,0.0,0.0,0.0,0.0,0.0,0.0,0.0,0.0,0.0,0.0,0.0,0.0,0.0,0.0,0.0,0.0,0.0,0.0,0.0,0.0,0.0,0.0,0.0,0.0,0.0,0.0,0.0,0.0,0.0,0.0,0.0,0.0,0.0,0.0,0.0,0.0,0.0,0.0,0.0,0.0,0.0,0.0,0.0,0.0,0.0,0.0,0.0,0.0,0.0,0.0,0.0,0.0,0.0,0.0,0.0,0.0,0.0,0.0,0.0,0.0,0.0,0.0,0.0,0.0,0.0,0.0,0.0,0.0,0.0,0.0,0.0,0.0,0.0,0.0,0.0,0.0,0.0,0.0,0.0,0.0,0.0,0.0,0.0,0.0,0.0,0.0,0.0,0.0,0.0,0.0,0.0,0.0,0.0,0.0,0.0,0.0,0.0,0.0,0.0,0.0,0.0,0.0,0.0,0.0,0.0,0.0,0.0,0.0,0.0,0.0,0.0,0.0,0.0,0.0,0.0,0.0,0.0,0.0,0.0,0.0,0.0,0.0,0.0,0.0,0.0,0.0,0.0,0.0,0.0,0.0,0.0,0.0,0.0,0.0,0.0,0.0,0.0,0.0,0.0,0.0,0.0,0.0,-0.6824,0.0,0.0,0.0,0.0,0.0,0.0,0.0,0.0,0.0,0.0,0.0,0.0,0.0,0.0,0.0,0.0,0.0,0.0,0.0,0.0,0.0,0.0,0.0,0.0,0.0,0.0,0.0,0.2306,0.2243,0.306,0.2687,0.2418,0.2255,0.258,0.2013,0.0554,-0.083,-0.1667,-0.2056,-0.2618,-0.2456,-0.1637,-0.219,0.0,0.0,0.0,0.0,0.0,0.0,0.0,0.0,0.0,0.0,0.0,0.0,0.0,0.0,0.0,0.0,0.0,0.0,0.0,0.0,0.0,0.0,0.0,0.0,0.0,0.0,0.0,0.0,0.0,0.0,0.0,0.0,0.0,0.0,0.0,0.0,0.0,0.0,0.0,0.0,0.0,0.0,0.0,0.0,0.0,0.0,0.0,0.0,0.0,0.0,0.0,0.0,0.0,0.0,0.0,0.0,0.0,0.0,0.0,0.0,0.0,0.0,0.0,0.0,0.0,0.0,0.0,0.0,0.0,0.0,0.0,0.0,0.0,-0.6997,0.0,0.0,0.0,0.0,0.0,0.0,0.0,0.0,0.0,0.0,0.0,0.0,0.0,0.0,0.0,0.0,0.0,0.0,0.0,0.0,0.0,0.0,0.0,0.2838,0.2764,0.2833,0.2351,0.2286,0.3014,0.3096,0.3113,0.3068,0.3105,0.3003,0.2861,0.0096,-0.077,0.039,-0.1266,-0.1184,0.0304,0.0,0.0,0.0,0.0,0.0,0.0,0.0,0.0,0.0,0.0,0.0,0.0,0.0,0.0,0.0,0.0,0.0,0.0,0.0,0.0,0.0,0.0,0.0,0.0,0.0,0.0,0.0,0.0,0.0,0.0,0.0,0.0,0.0,0.0,0.0,0.0,0.0,0.0,0.0,0.0,0.0,0.0,0.0,0.0,0.0,0.0,0.0,0.0,0.0,0.0,0.0,0.0,0.0,0.0,0.0,0.0,0.0,0.0,0.0,0.0,0.0,0.0,0.0,0.0,0.0,0.0,0.0,-0.7747,-0.7834,-0.7899,-0.7883,-0.7926,-0.7986,-0.729,-0.7154,-0.7404,-0.7111,0.0,0.0,0.0,0.0,0.0,0.0,0.0,0.0,0.0,0.0,0.0,0.0,0.0,0.0,0.0,0.0,0.0,0.0,0.0,0.0,0.0,0.2216,0.197,0.2617,0.2635,0.2658,0.2792,0.3046,0.312,0.3128,0.3071,0.2661,0.1808,0.1452,0.0872,0.0191,0.1034,0.2088,0.3227,0.2374,0.1805,0.1436,0.0209,0.0,0.0,0.0,0.0,0.0,0.0,0.0,0.0,0.0,0.0,0.0,0.0,0.0,0.0,0.0,0.0,0.0,0.0,0.0,0.0,0.0,0.0,0.0,0.0,0.0,0.0,0.0,0.0,0.0,0.0,0.0,0.0,0.0,0.0,0.0,0.0,0.0,0.0,0.0,0.0,0.0,0.0,0.0,-0.6671,-0.6812,0.0,0.0,0.0,0.0,0.0,0.0,0.0,0.0,0.0,0.0,0.0,0.0,0.0,-0.7845,-0.7932,-0.816,-0.8231,-0.8138,-0.8155,-0.8117,-0.8024,-0.7921,-0.7877,-0.7888,-0.778,0.0,-0.7796,-0.7752,0.0,0.0,0.0,0.0,0.0,0.0,0.0,0.0,0.0,0.0,0.0,0.0,0.0,0.0,0.0,0.0,0.0,0.0,0.0,0.0,0.0,0.24,0.2243,0.2357,0.2528,0.2638,0.2645,0.2771,0.2976,0.3142,0.3115,0.2935,0.26,0.2016,0.1535,0.1255,0.2463,0.3391,0.3823,0.342,0.3209,0.3075,0.2519,0.1552,0.0332,-0.0417,0.0,0.0,0.0,0.0,0.0,0.0,0.0,0.0,0.0,0.0,0.0,0.0,0.0,0.0,0.0,0.0,0.0,0.0,0.0,0.0,0.0,0.0,0.0,0.0,0.0,0.0,0.0,0.0,0.0,0.0,0.0,0.0,0.0,0.0,0.0,0.0,0.0,0.0,0.0,-0.6828,-0.704,-0.7095,-0.7252,-0.7339,0.0,0.0,0.0,0.0,0.0,0.0,0.0,0.0,0.0,-0.7818,-0.7986,-0.81,-0.8155,-0.8329,-0.8421,-0.8432,-0.8503,-0.8546,-0.8557,-0.8432,-0.8378,-0.8372,-0.8301,-0.8236,-0.8155,-0.7888,-0.772,-0.7622,0.0,0.0,0.0,0.0,-0.7421,-0.7377,0.0,0.0,0.0,0.0,0.0,0.0,0.0,0.0,0.0,0.0,0.0,0.0,0.2413,0.2491,0.2441,0.2138,0.2303,0.241,0.2515,0.2618,0.2821,0.301,0.3081,0.3221,0.3341,0.2647,0.2295,0.2528,0.347,0.3921,0.3951,0.4014,0.4041,0.4038,0.3978,0.2917,0.1297,0.0887,0.0746,0.0,0.0,0.0,0.0,0.0,0.0,0.0,0.0,0.0,0.0,0.0,0.0,0.0,0.0,0.0,0.0,0.0,0.0,0.0,0.0,0.0,0.0,0.0,0.0,0.0,0.0,0.0,0.0,0.0,0.0,0.0,0.0,0.0,0.0,0.0,0.0,0.0,0.0,-0.7105,-0.7301,-0.7334,-0.7497,-0.7584,0.0,0.0,0.0,0.0,0.0,0.0,-0.7959,-0.8079,-0.816,-0.8193,-0.8307,-0.8388,-0.8416,-0.8508,-0.8595,-0.8682,-0.8774,-0.8861,-0.8948,-0.8889,-0.8845,-0.8812,-0.8753,-0.8644,-0.8475,-0.8057,-0.7915,-0.7948,-0.7769,-0.7703,-0.7714,-0.7801,-0.778,-0.7725,0.0,0.0,0.0,0.0,0.0,0.0,0.0,0.0,0.0,0.0,0.0,0.2366,0.2702,0.2355,0.2115,0.222,0.2169,0.2174,0.2161,0.2539,0.2869,0.2863,0.3081,0.3283,0.3406,0.3575,0.3632,0.3809,0.387,0.4085,0.4199,0.4262,0.4289,0.4286,0.4226,0.4034,0.3825,0.2444,0.2027,0.1926,0.0,0.0,0.0,0.0,0.0,0.0,0.0,0.0,0.0,0.0,0.0,0.0,0.0,0.0,0.0,0.0,0.0,0.0,0.0,0.0,0.0,0.0,0.0,0.0,0.0,0.0,0.0,0.0,0.0,0.0,0.0,0.0,0.0,0.0,0.0,0.0,0.0,0.0,0.0,-0.7323,-0.7644,0.0,0.0,0.0,0.0,-0.7872,-0.8079,-0.8209,-0.8214,-0.8334,-0.8448,-0.8557,-0.8677,-0.8802,-0.8916,-0.8921,-0.8927,-0.8932,-0.8938,-0.8948,-0.8954,-0.9068,-0.9052,-0.8948,-0.9057,-0.897,-0.8736,-0.8486,-0.8318,-0.8214,-0.8204,-0.8198,-0.8198,-0.8204,-0.8204,-0.8204,0.0,0.0,0.0,0.0,0.0,0.0,0.0,0.0,0.0813,0.1384,0.1609,0.177,0.2079,0.2145,0.2099,0.1934,0.1937,0.2037,0.223,0.249,0.2781,0.3033,0.3178,0.3439,0.3638,0.3744,0.3883,0.4063,0.4123,0.4194,0.4275,0.4297,0.4308,0.4308,0.4286,0.4262,0.4226,0.3606,0.3224,0.3134,0.1526,0.1042,0.0,0.0,0.0,0.0,0.0,0.0,0.0,0.0,0.0,0.0,0.0,0.0,0.0,0.0,0.0,0.0,0.0,0.0,0.0,0.0,0.0,0.0,0.0,0.0,0.0,0.0,0.0,0.0,0.0,0.0,0.0,0.0,0.0,0.0,0.0,0.0,0.0,-0.7676,-0.7932,0.0,-0.7986,-0.8095,-0.8214,-0.8323,-0.841,-0.853,-0.8687,-0.8736,-0.878,-0.8818,-0.8861,-0.8948,-0.9068,-0.9144,-0.9177,-0.9182,-0.9258,-0.9253,-0.9177,-0.915,-0.9111,-0.9073,-0.9117,-0.9041,-0.8889,-0.8883,-0.8671,-0.8345,-0.8263,-0.8236,-0.8236,-0.8236,-0.8236,-0.8236,0.0,0.0,0.0,0.0,0.0,0.0,0.0,0.0,0.0731,0.1305,0.1355,0.152,0.1923,0.1995,0.2055,0.1868,0.187,0.1974,0.2171,0.2446,0.2749,0.3006,0.3321,0.3608,0.3766,0.3907,0.4038,0.4155,0.4218,0.4267,0.4308,0.4308,0.4308,0.4308,0.4308,0.4308,0.43,0.4177,0.4022,0.3722,0.2629,0.2329,0.2498,0.0,0.0,0.0,0.0,0.0,0.0,0.0,0.0,0.0,0.0,0.0,0.0,0.0,0.0,0.0,0.0,0.0,0.0,0.0,0.0,0.0,0.0,0.0,0.0,0.0,0.0,0.0,0.0,0.0,0.0,0.0,0.0,0.0,0.0,-0.7758,-0.7964,-0.8046,-0.8269,-0.8399,-0.8356,-0.8426,-0.8524,-0.8638,-0.8687,-0.878,-0.8943,-0.903,-0.9068,-0.9068,-0.915,-0.9231,-0.9313,-0.9389,-0.9427,-0.9427,-0.9508,-0.9508,-0.9427,-0.9389,-0.9351,-0.9313,-0.9313,-0.922,-0.9073,-0.9117,-0.8921,-0.8584,-0.8465,-0.8416,-0.841,-0.8367,-0.8378,-0.8416,0.0,0.0,0.0,0.0,0.0,0.0,0.0,0.1187,0.1398,0.1236,0.1481,0.1755,0.2178,0.1918,0.1866,0.1928,0.1877,0.188,0.1969,0.2406,0.2668,0.276,0.3391,0.3777,0.3782,0.4068,0.4218,0.4221,0.4283,0.4313,0.4313,0.4313,0.4313,0.4313,0.4313,0.4313,0.4313,0.4313,0.421,0.4033,0.385,0.3741,0.3676,0.0,0.0,0.0,0.0,0.0,0.0,0.0,0.0,0.0,0.0,0.0,0.0,0.0,0.0,0.0,0.0,0.0,0.0,0.0,0.0,0.0,0.0,0.0,0.0,0.0,0.0,0.0,0.0,0.0,0.0,0.0,0.0,0.0,-0.7877,-0.7992,-0.816,-0.8394,-0.8633,-0.8731,-0.8611,-0.8812,-0.8905,-0.8796,-0.8894,-0.8965,-0.8976,-0.9198,-0.9318,-0.9318,-0.9552,-0.9677,-0.9677,-0.9677,-0.9677,-0.9677,-0.9677,-0.9671,-0.9671,-0.978,-0.9775,-0.9671,-0.9671,-0.9536,-0.9302,-0.9193,-0.9079,-0.8948,-0.8823,-0.8774,-0.8758,-0.8638,-0.8666,-0.8764,0.0,0.0,0.0,0.0,0.0,0.0,0.0,0.1187,0.1305,0.1426,0.1598,0.1684,0.1883,0.1836,0.1898,0.1959,0.1909,0.201,0.2302,0.2504,0.2903,0.3505,0.3564,0.3671,0.409,0.4174,0.4259,0.4349,0.4406,0.4433,0.4433,0.4433,0.4433,0.4433,0.4433,0.4433,0.4433,0.4433,0.4406,0.4335,0.4068,0.3951,0.3916,0.0,0.0,0.0,0.0,0.0,0.0,0.0,0.0,0.0,0.0,0.0,0.0,0.0,0.0,0.0,0.0,0.0,0.0,0.0,0.0,0.0,0.0,0.0,0.0,0.0,0.0,0.0,0.0,0.0,0.0,0.0,-0.7736,-0.7807,-0.7981,-0.8258,-0.8465,-0.853,-0.8753,-0.8889,-0.8856,-0.891,-0.9008,-0.9144,-0.9188,-0.9318,-0.9579,-0.9655,-0.9693,-0.9693,-0.9758,-0.9791,-0.9791,-0.9791,-0.9791,-0.9791,-0.9791,-0.9748,-0.9671,-0.9704,-0.9699,-0.9671,-0.9758,-0.9655,-0.9438,-0.9497,-0.94,-0.9188,-0.8981,-0.8899,-0.8889,-0.8764,-0.8682,-0.8638,0.0,0.0,0.0,0.0,0.0,0.0,0.0,0.1288,0.1318,0.1524,0.1615,0.171,0.1787,0.1838,0.1891,0.1952,0.1914,0.201,0.2149,0.2553,0.3014,0.36,0.0,0.3794,0.4213,0.4267,0.4338,0.4433,0.4466,0.4482,0.4482,0.4482,0.4482,0.4482,0.4482,0.4482,0.4482,0.4482,0.4482,0.4466,0.4292,0.4207,0.4164,0.3948,0.3379,0.2521,0.2553,0.1942,0.0907,-0.0669,0.0,0.0,0.0,0.0,0.0,0.0,0.0,0.0,0.0,0.0,0.0,0.0,0.0,0.0,0.0,0.0,0.0,0.0,0.0,0.0,0.0,0.0,0.0,0.0,-0.7981,-0.8068,-0.8253,-0.8459,-0.8628,-0.8725,-0.891,-0.9068,-0.9166,-0.922,-0.9329,-0.9514,-0.9574,-0.9671,-0.9829,-0.9889,-0.9889,-0.984,-0.9889,-0.9938,-0.9992,-0.9992,-0.9992,-0.9992,-0.9992,-0.9927,-0.9818,-0.9818,-0.9818,-0.9818,-0.9829,-0.9758,-0.9633,-0.9661,-0.9584,0.0,0.0,0.0,0.0,0.0,-0.8878,-0.8823,0.0,0.0,0.0,0.0,0.0,0.0,0.0,0.1487,0.1525,0.1525,0.1626,0.172,0.1779,0.1812,0.1854,0.1915,0.1896,0.1884,0.2008,0.2512,0.3039,0.347,0.3822,0.4039,0.4234,0.4357,0.4444,0.4493,0.4499,0.4501,0.4501,0.4501,0.4501,0.4501,0.4501,0.4501,0.4501,0.4501,0.4501,0.4501,0.4496,0.4458,0.439,0.4221,0.4155,0.4147,0.4076,0.3992,0.3534,0.1672,0.0,0.0,0.0,0.0,0.0,0.0,0.0,0.0,0.0,0.0,0.0,0.0,0.0,0.0,0.0,0.0,0.0,0.0,0.0,0.0,0.0,0.0,0.0,0.0,-0.8285,-0.8465,-0.859,-0.8633,-0.8731,-0.8948,-0.9106,-0.9275,-0.9487,-0.9628,-0.9758,-0.9867,-0.9965,-0.9987,-0.9905,-1.0003,0.0,0.0,0.0,-1.0128,-1.0221,-1.0226,-1.0226,-1.0226,-1.0226,-1.0166,-1.0063,-1.0047,-1.0041,-1.0036,-0.9927,-0.9862,-0.9829,-0.9748,-0.9688,-0.9617,-0.9296,-0.916,-0.9133,-0.9133,-0.9128,-0.9128,0.0,0.0,0.0,0.0,0.0,0.0,0.0,0.1673,0.1908,0.1525,0.181,0.1998,0.204,0.2295,0.2353,0.22,0.2084,0.2221,0.2276,0.2406,0.2821,0.3572,0.3512,0.372,0.436,0.448,0.4403,0.4132,0.4174,0.4194,0.4194,0.4194,0.4338,0.463,0.463,0.463,0.463,0.463,0.463,0.4624,0.4575,0.4521,0.4458,0.4376,0.4346,0.4324,0.4166,0.4158,0.4073,0.3584,0.3529,0.3113,0.097,0.0117,0.0,0.0,0.0,0.0,0.0,0.0,0.0,0.0,0.0,0.0,0.0,0.0,0.0,0.0,0.0,0.0,0.0,0.0,0.0,-0.8416,-0.8448,-0.8492,-0.8704,-0.8905,-0.9046,-0.9095,-0.9378,-0.9584,-0.9628,-0.9829,-1.0003,-1.0123,-1.0063,-1.0095,-1.0269,-1.0302,-1.0302,-1.028,-1.0394,-1.0416,-1.0351,-1.0351,-1.0351,-1.0351,-1.0351,0.0,-1.0313,-1.0215,-1.0166,-1.0166,-1.0144,-1.0019,-0.9845,-0.9921,-0.9634,-0.9076,-0.9302,-0.9302,-0.9133,-0.9133,-0.9073,-0.8992,0.0,0.0,0.0,0.0,0.0,0.0,0.0,0.1658,0.1792,0.1524,0.1705,0.1888,0.1937,0.2067,0.2099,0.2041,0.2044,0.2089,0.219,0.2334,0.2768,0.3417,0.3475,0.3818,0.4482,0.4572,0.449,0.4083,0.4135,0.4159,0.4159,0.4159,0.4307,0.4755,0.4755,0.4755,0.4755,0.4755,0.4755,0.4752,0.4722,0.4673,0.4605,0.4485,0.4442,0.4425,0.4305,0.43,0.4335,0.4215,0.4155,0.3989,0.2787,0.2224,0.1915,0.0,0.0,0.0,0.0,0.0,0.0,0.0,0.0,0.0,0.0,0.0,0.0,0.0,0.0,-0.7766,-0.806,0.0,-0.8403,-0.8633,-0.8638,-0.8677,-0.8921,-0.916,-0.9313,-0.9313,-0.9525,-0.9742,-0.9921,-1.0041,-1.0188,-1.0367,-1.0378,-1.0433,-1.0552,-1.0617,-1.0623,-1.0563,-1.0617,-1.065,-1.0655,-1.0655,-1.0623,-1.0563,-1.0563,-1.0498,-1.0384,-1.0324,-1.0297,-1.0297,-1.0297,-1.0188,-1.0019,-1.0019,-0.9725,-0.9366,-0.9511,-0.9187,-0.8647,-0.8791,-0.8897,-0.8844,0.0,0.0,0.0,0.0,0.0,0.0,0.0,0.1644,0.1585,0.1523,0.1695,0.1769,0.1825,0.1831,0.1958,0.1895,0.1791,0.1849,0.1977,0.2264,0.2714,0.3236,0.357,0.406,0.4589,0.4651,0.4417,0.4024,0.4066,0.4086,0.3935,0.4086,0.4238,0.4694,0.4694,0.4845,0.4845,0.4845,0.4845,0.4845,0.4845,0.4809,0.4739,0.4591,0.4529,0.451,0.4439,0.4414,0.4395,0.4275,0.4204,0.4164,0.4153,0.3957,0.3745,0.3566,0.2076,0.0,0.0,0.0,0.0,0.0,0.0,0.0,0.0,-0.3303,-0.6712,-0.7709,-0.7883,-0.7592,-0.7398,-0.7772,-0.8302,-0.8796,-0.8834,-0.8916,-0.9139,-0.9372,-0.9546,-0.9617,-0.9737,-0.9911,-1.0177,-1.0264,-1.0384,-1.0574,-1.0683,-1.0748,-1.077,-1.0867,-1.0873,-1.0775,-1.0797,-1.0857,-1.0954,-1.0954,-1.0905,-1.0808,-1.078,-1.0672,-1.0487,-1.0443,-1.0416,-1.0416,-1.0394,-1.0329,-1.0067,-1.0106,-0.9816,-0.9534,-0.9687,-0.905,-0.8212,-0.8649,-0.8941,-0.8936,0.0,0.0,0.0,0.0,0.0,0.0,0.0,0.0,0.1678,0.1523,0.1753,0.1994,0.1934,0.214,0.2286,0.2184,0.189,0.1857,0.2004,0.2042,0.2493,0.3283,0.309,0.3584,0.4651,0.4417,0.4027,0.3625,0.3629,0.3482,0.3181,0.3482,0.3935,0.4238,0.4694,0.4845,0.4845,0.4845,0.4845,0.4845,0.4845,0.4809,0.4752,0.4733,0.4692,0.463,0.4515,0.4474,0.4455,0.4338,0.4292,0.4278,0.4224,0.4199,0.3914,0.2573,0.203,0.1501,0.0492,-0.293,-0.5193,-0.1044,-0.0231,-0.0348,0.0,-0.0499,-0.2302,-0.7145,-0.8186,-0.7369,-0.5159,-0.5587,-0.6859,-0.8788,-0.903,-0.9139,-0.9269,-0.9497,-0.9769,-1.0085,-1.0231,-1.028,-1.021,-1.0492,-1.0688,-1.0715,-1.0726,-1.0786,-1.0895,-1.0911,-1.0916,-1.09,-1.1003,-1.1069,-1.1079,-1.1079,-1.1074,-1.1058,-1.0949,-1.0884,-1.0851,-1.0634,-1.0536,-1.053,-1.0433,-1.0212,-0.9864,-1.0073,-0.9578,-0.877,-0.9229,-0.8995,-0.8576,-0.9329,-0.9628,-0.9462,0.0,0.0,0.0,0.0,0.0,0.0,0.0,0.0,0.0,0.1495,0.1621,0.1751,0.1886,0.2107,0.215,0.2115,0.1958,0.1832,0.1984,0.2038,0.2376,0.3051,0.2973,0.3321,0.442,0.4327,0.423,0.3977,0.4006,0.3867,0.3403,0.3867,0.4176,0.4331,0.4794,0.4948,0.4948,0.4948,0.4948,0.4948,0.4948,0.4891,0.4804,0.4768,0.4654,0.4507,0.4488,0.4439,0.0,0.4243,0.4204,0.4196,0.4263,0.2583,0.0519,-0.0129,-0.0897,-0.1262,-0.024,-0.153,-0.2568,-0.046,0.0,0.0,0.0,0.0,-0.0643,-0.2951,-0.5889,-0.7631,-0.6644,-0.4229,-0.4003,-0.8489,-0.9122,-0.9204,-0.9383,-0.9557,-0.9726,-0.9873,-1.0057,-1.0264,-1.0492,-1.065,-1.0764,-1.084,-1.0911,-1.1003,-1.1118,-1.1194,-1.1232,-1.1232,-1.1281,-1.1308,-1.1308,-1.1308,-1.127,-1.1199,-1.115,-1.1052,-1.0916,-1.0813,-1.0732,-1.0655,-1.0536,-1.0481,-1.0303,-1.028,-0.9829,-0.9266,-0.9356,-0.9146,-0.8784,-0.9111,-0.9361,-0.9355,0.0,0.0,0.0,0.0,0.0,0.0,0.0,0.0,0.0,0.0,0.15,0.1624,0.1764,0.1899,0.1934,0.1865,0.1822,0.1808,0.1943,0.2022,0.2247,0.2782,0.2684,0.3179,0.4178,0.4204,0.4105,0.434,0.4378,0.4241,0.3768,0.4241,0.4397,0.4397,0.4865,0.5022,0.5022,0.5022,0.5022,0.5019,0.5003,0.4927,0.4809,0.4717,0.4553,0.4379,0.442,0.4357,0.4243,0.4136,0.4117,0.412,0.3295,0.1018,-0.1416,-0.2328,-0.3744,-0.4325,-0.0959,0.0,0.0,0.0,0.0,0.0,0.0,0.0,0.0,0.0,-0.2996,-0.5727,-0.5785,-0.2593,-0.1804,-0.7093,-0.876,-0.9307,-0.9465,-0.9617,-0.9704,-0.9671,-0.9845,-1.0117,-1.0503,-1.0601,-1.0704,-1.0857,-1.1014,-1.1166,-1.1313,-1.1406,-1.1455,-1.1455,-1.1455,-1.1455,-1.1455,-1.1455,-1.1411,-1.1324,-1.1286,-1.1166,-1.0965,-1.09,-1.0819,-1.0732,-1.0645,-1.0585,-1.0378,-1.0373,-1.0121,-0.9606,-0.9489,-0.9291,-0.8959,-0.9076,-0.9152,-0.9147,0.0,0.0,0.0,0.0,0.0,0.0,0.0,0.0,0.0,0.0,0.0,0.0,0.0,0.1599,0.1629,0.1659,0.1716,0.1789,0.1883,0.1999,0.2368,0.2747,0.237,0.2876,0.4233,0.3891,0.3937,0.4395,0.4397,0.4241,0.3768,0.4241,0.4397,0.4397,0.4865,0.5022,0.5022,0.5022,0.5022,0.5016,0.4962,0.4867,0.4739,0.4559,0.4414,0.4311,0.4313,0.4234,0.4123,0.4192,0.4212,0.3734,0.1012,0.0127,-0.0515,-0.3006,-0.5606,-0.6695,-0.1387,0.0,0.0,0.0,0.0,0.0,0.0,0.0,0.0,0.0,-0.0133,-0.0269,-0.0269,-0.0137,-0.1118,-0.4337,-0.7526,-0.9497,-0.9487,-0.9688,-0.9791,-0.9682,-0.9769,-0.9894,-1.003,-1.0259,-1.0492,-1.0726,-1.0965,-1.1204,-1.1438,-1.1455,-1.1455,-1.1455,-1.1455,-1.1455,-1.1455,-1.1455,-1.1455,-1.1449,-1.133,-1.121,-1.109,-1.0851,-1.0742,-1.0737,-1.0732,-1.0335,-0.9902,-1.0383,-1.0313,-0.9713,-0.9611,-0.9565,-0.955,-0.8968,-0.908,-0.9371,0.0,0.0,0.0,0.0,0.0,0.0,0.0,0.0,0.0,0.0,0.0,0.0,0.0,0.0,0.0,0.0,0.2002,0.1978,0.185,0.2071,0.229,0.2369,0.2313,0.2533,0.335,0.3516,0.3889,0.4345,0.4655,0.452,0.4241,0.4552,0.4709,0.4397,0.4865,0.5022,0.5019,0.4981,0.4943,0.4899,0.4839,0.4744,0.4627,0.4567,0.4395,0.4185,0.0,0.4109,0.4125,0.394,0.2455,0.0369,-0.0611,-0.1604,-0.3124,-0.5788,-0.736,-0.787,-0.5806,-0.2684,0.0,0.0,0.0,0.0,0.0,0.0,0.0,0.0,0.0,0.0,0.0,0.0,-0.0976,-0.4147,-0.728,-0.9443,-0.9497,-0.9489,-0.9661,-0.9617,-0.9541,-0.959,-0.9546,-1.0057,-1.0514,-1.0835,-1.1079,-1.1286,-1.1449,-1.1455,-1.1455,-1.1455,-1.1455,-1.1455,-1.1455,-1.1455,-1.1455,-1.1455,-1.133,-1.1215,-1.1096,-1.0933,-1.0645,-1.0237,-1.057,-1.0382,-1.0009,-1.0426,-1.0367,-0.983,-0.9723,-0.9312,-0.8767,-0.8893,-0.8836,-0.8618,0.0,0.0,0.0,0.0,0.0,0.0,0.0,0.0,0.0,0.0,0.0,0.0,0.0,0.0,0.0,0.0,0.0,0.2152,0.1915,0.2235,0.2331,0.2299,0.2225,0.2428,0.2938,0.3233,0.3734,0.4476,0.4646,0.4686,0.4438,0.4741,0.4741,0.4591,0.4741,0.4894,0.4891,0.4856,0.4828,0.4804,0.47,0.461,0.4526,0.4398,0.4243,0.0,0.3973,0.3913,0.3877,0.3339,0.1791,-0.036,-0.287,-0.3754,-0.4183,-0.5916,-0.7371,-0.8329,-0.7926,-0.3973,0.0,0.0,0.0,0.0,0.0,0.0,0.0,0.0,0.0,0.0,0.0,0.0,-0.0696,-0.2747,-0.6593,-0.8892,-0.7959,-0.7845,-0.8281,-0.9536,-0.9617,-0.9449,-0.9492,-0.9954,-1.0389,-1.0704,-1.1031,-1.1264,-1.1384,-1.1433,-1.1455,-1.1455,-1.1455,-1.1455,-1.1455,-1.1455,-1.1455,-1.1455,-1.133,-1.1215,-1.1101,-1.0976,-1.0683,-1.0404,-1.057,-1.057,-1.0398,-1.0485,-1.0458,-1.0112,-0.9998,-0.9425,-0.8875,-0.8997,-0.8763,-0.836,0.0,0.0,0.0,0.0,0.0,0.0,0.0,0.0,0.0,0.0,0.0,0.0,0.0,0.0,0.0,0.0,0.0,0.0,0.2178,0.2253,0.224,0.2503,0.2233,0.2407,0.308,0.3181,0.3629,0.4477,0.4537,0.4597,0.4654,0.4654,0.4654,0.4654,0.4654,0.4654,0.4654,0.4651,0.4681,0.4711,0.4537,0.4463,0.4422,0.4082,0.3986,0.3997,0.3709,0.3676,0.3526,0.2431,0.2234,0.1201,-0.557,-0.6017,-0.4057,-0.3815,-0.5485,-0.7471,-0.7481,-0.3837,0.0,0.0,0.0,0.0,0.0,0.0,0.0,0.0,0.0,0.0,0.0,0.0,0.0,0.0,-0.5005,-0.7959,-0.5364,-0.503,-0.6236,-0.9397,-0.9579,-0.965,-0.9818,-0.9965,-1.0139,-1.0378,-1.0835,-1.1156,-1.1275,-1.1389,-1.1455,-1.1455,-1.1455,-1.1455,-1.1455,-1.1455,-1.1455,-1.1455,-1.1335,-1.1221,-1.1101,-1.0982,-1.0857,-1.0737,-1.0737,-1.0737,-1.0737,-1.0737,-1.0737,-1.0726,-1.0118,-0.9907,-0.9722,-0.9293,-0.8705,-0.8291,0.0,0.0,0.0,0.0,0.0,0.0,0.0,0.0,0.0,0.0,0.0,0.0,0.0,0.0,0.0,0.0,0.0,0.0,0.1894,0.2285,0.2358,0.1966,0.2126,0.2321,0.2692,0.323,0.3708,0.4003,0.4298,0.4471,0.4529,0.4529,0.4529,0.4529,0.4529,0.4529,0.4526,0.4485,0.4422,0.4346,0.4253,0.4188,0.4145,0.4098,0.406,0.4019,0.3899,0.382,0.3766,0.3398,0.1421,-0.1317,-0.4085,-0.5806,-0.609,-0.2213,-0.1497,-0.203,-0.2074,-0.1046,0.0,0.0,0.0,0.0,0.0,0.0,0.0,0.0,0.0,0.0,0.0,0.0,0.0,0.0,-0.1307,-0.3699,-0.7595,-0.6519,-0.5648,-0.6403,-0.8576,-0.9981,-0.9976,-1.0166,-1.0356,-1.0503,-1.0878,-1.1194,-1.1395,-1.1438,-1.1455,-1.1455,-1.1455,-1.1455,-1.1455,-1.1455,-1.1455,-1.1455,-1.1422,-1.1302,-1.1101,-1.1069,-1.0768,-1.0237,-1.057,-1.057,-1.0237,-1.057,-1.0737,-1.0732,-1.0206,-0.9813,-0.9409,-0.8889,-0.8328,-0.7919,0.0,0.0,0.0,0.0,0.0,0.0,0.0,0.0,0.0,0.0,0.0,0.0,0.0,0.0,0.0,0.0,0.0,0.0,0.0,0.2247,0.2297,0.2018,0.2041,0.2205,0.2639,0.3066,0.3515,0.3863,0.4044,0.4218,0.4248,0.4248,0.4248,0.4248,0.4248,0.4248,0.4245,0.4215,0.4177,0.0,0.0,0.4006,0.3992,0.3946,0.3924,0.3907,0.382,0.3766,0.373,0.373,0.2226,0.0118,-0.0947,-0.2776,-0.383,-0.0877,0.0,0.0,0.0,0.0,0.0,0.0,0.0,0.0,0.0,0.0,0.0,0.0,0.0,0.0,0.0,0.0,0.0,0.0,0.0,-0.1185,-0.4786,-0.3925,-0.4137,-0.7432,-0.9317,-1.039,-1.0253,-1.0427,-1.059,-1.0704,-1.0954,-1.1183,-1.1362,-1.1427,-1.1455,-1.1455,-1.1455,-1.1455,-1.1455,-1.1455,-1.1455,-1.1455,-1.1455,-1.133,-1.1101,-1.1101,-1.08,-1.0404,-1.057,-1.057,-1.0404,-1.0404,-1.0404,-1.0404,-0.9903,-0.9535,-0.9316,-0.8985,-0.8592,-0.8182,0.0,0.0,0.0,0.0,0.0,0.0,0.0,0.0,0.0,0.0,0.0,0.0,0.0,0.0,0.0,0.0,0.0,0.0,0.0,0.0,0.2152,0.2108,0.1971,0.2085,0.258,0.2768,0.3167,0.3768,0.3754,0.3804,0.3927,0.3927,0.3927,0.3927,0.3927,0.3927,0.3927,0.3927,0.3951,0.3978,0.3877,0.3867,0.3897,0.0,0.3717,0.3755,0.3649,0.364,0.3679,0.3687,0.3467,0.3148,0.2181,0.0995,0.0,0.0,0.0,0.0,0.0,0.0,0.0,0.0,0.0,0.0,0.0,0.0,0.0,0.0,0.0,0.0,0.0,0.0,0.0,0.0,0.0,0.0,0.0,0.0,-0.256,-0.9216,-1.0345,-1.0711,-1.0563,-1.0688,-1.0813,-1.0933,-1.1058,-1.1177,-1.1291,-1.1395,-1.1455,-1.1455,-1.1455,-1.1455,-1.1455,-1.1455,-1.1455,-1.1455,-1.1455,-1.134,-1.1123,-1.1112,-1.0976,-1.0759,-1.0742,-1.0737,-1.0737,-1.0237,-1.007,-1.0075,-0.9569,-0.9407,-0.924,-0.924,-0.9013,-0.861,0.0,0.0,0.0,0.0,0.0,0.0,0.0,0.0,0.0,0.0,0.0609,0.1112,0.0,0.0,0.0,0.0,0.0,0.0,0.0,0.0,0.0,0.179,0.1993,0.214,0.2354,0.2596,0.2981,0.3416,0.3433,0.3561,0.3801,0.3801,0.3801,0.3801,0.3801,0.3801,0.3801,0.3801,0.3777,0.3739,0.3719,0.3717,0.3722,0.3689,0.0,0.0,0.3747,0.3711,0.3687,0.3736,0.3788,0.3468,0.2141,0.0856,0.0,0.0,0.0,0.0,0.0,0.0,0.0,0.0,0.0,0.0,0.0,0.0,0.0,0.0,0.0,0.0,0.0,0.0,0.0,0.0,0.0,0.0,0.0,0.0,-0.1612,-0.5852,-0.8865,-1.0683,-1.0704,-1.0813,-1.0938,-1.1063,-1.1177,-1.1297,-1.1417,-1.1444,-1.1455,-1.1455,-1.1455,-1.1455,-1.1455,-1.1455,-1.1455,-1.1455,-1.1455,-1.1378,-1.1237,-1.1145,-1.1025,-1.0884,-1.078,-1.0737,-1.0737,-1.057,-1.0404,-1.007,-1.007,-0.9574,-0.8738,-0.8738,-0.8558,-0.8207,0.0,0.0,0.0,0.0,0.0,0.0,0.0,0.0,0.0,0.0,0.0213,0.0525,0.0728,0.1431,0.192,0.0,0.0,0.0,0.0,0.0,0.0,0.0,0.1869,0.1996,0.2154,0.2547,0.2815,0.3176,0.0,0.359,0.3676,0.3676,0.3676,0.3676,0.3676,0.3676,0.3676,0.3676,0.3657,0.363,0.363,0.363,0.363,0.0,0.0,0.0,0.3747,0.373,0.3698,0.382,0.3861,0.3497,0.2172,0.0868,0.0,0.0,0.0,0.0,0.0,0.0,0.0,0.0,0.0,0.0,0.0,0.0,0.0,0.0,0.0,0.0,0.0,0.0,0.0,0.0,-0.0561,-0.115,-0.1233,-0.0938,-0.191,-0.4974,-0.8036,-0.9913,-1.0065,-1.0905,-1.1384,-1.1446,-1.1445,-1.1395,-1.1455,-1.1455,-1.1455,-1.1455,-1.1455,-1.1455,-1.1455,-1.1455,-1.1455,-1.1455,-1.1455,-1.1389,-1.127,-1.1156,-1.1036,-1.0911,-1.0791,-1.0737,-1.0737,-1.0404,-1.0237,-1.007,-0.9908,-0.9407,-0.9072,-0.9072,-0.8905,-0.8733,0.0,0.0,0.0,0.0,0.0,0.0,0.0,0.0,0.0,0.0,0.0,0.0,0.0,0.0731,0.1427,0.0,0.0,0.0,0.0,0.0,0.0,0.0,0.0,0.0,0.2086,0.0,0.0,0.2971,0.3275,0.0,0.0,0.0,0.0,0.0,0.3589,0.3589,0.3589,0.3589,0.3589,0.0,0.0,0.3589,0.3589,0.0,0.0,0.0,0.0,0.3766,0.3758,0.3902,0.3918,0.3643,0.2211,0.1008,0.0,0.0,0.0,0.0,0.0,0.0,0.0,0.0,0.0,0.0,0.0,0.0,0.0,0.0,0.0,0.0,0.0,0.0,-0.0136,-0.0419,-0.1394,-0.2133,-0.2436,-0.2012,-0.2525,-0.4923,-0.7002,-0.8399,-0.8725,-1.0439,-1.1268,-1.1268,-1.1319,-1.1455,-1.1455,-1.1455,-1.1455,-1.1455,-1.1455,-1.1455,-1.1455,-1.1455,-1.1455,-1.1455,-1.1455,-1.1406,-1.1308,-1.1194,-1.1074,-1.0954,-1.0829,-1.0759,-1.0737,-1.043,-1.0278,-1.0111,-0.9775,-0.9608,-0.9435,-0.9579,-0.9407,-0.9407,0.0,0.0,0.0,0.0,0.0,0.0,0.0,0.0,0.0,0.0,0.0,0.0,0.0,0.0108,0.0314,0.0,0.0,0.0,0.0,0.0,0.0,0.0,0.0,0.0,0.0,0.0,0.0,0.2688,0.247,0.0,0.0,0.0,0.0,0.0,0.0,0.3589,0.3589,0.3589,0.0,0.0,0.0,0.0,0.0,0.0,0.0,0.0,0.0,0.3883,0.3929,0.3946,0.3948,0.3697,0.2342,0.1008,0.0,0.0,0.0,0.0,0.0,0.0,0.0,0.0,0.0,0.0,0.0,0.0,0.0,0.0,0.0,0.0,0.0,0.0,-0.0408,-0.1817,-0.2266,-0.2461,-0.2263,-0.2343,-0.3205,-0.5039,-0.5479,-0.6053,-0.6888,-0.8727,-0.9874,-0.9362,-1.061,-1.1455,-1.1455,-1.1455,-1.1455,-1.1455,-1.1455,-1.1455,-1.1455,-1.1455,-1.1455,-1.1455,-1.1455,-1.1449,-1.1433,-1.1313,-1.1194,-1.1079,-1.0954,-1.084,-1.0742,-1.0857,-1.0567,-1.0228,-1.0567,-1.0228,-0.954,-0.9943,-0.9741,-0.9407,0.0,0.0,0.0,0.0,0.0,0.0,0.0,0.0,0.0,0.0,0.0,0.0,0.0,0.0,0.0107,0.0304,0.0,0.0,0.0,0.0,0.0,0.0,0.0,0.0,0.0,0.0,0.2179,0.2431,0.2678,0.0,0.0,0.0,0.0,0.0,0.0,0.3589,0.3589,0.3589,0.0,0.0,0.0,0.0,0.0,0.0,0.0,0.0,0.0,0.0,0.3902,0.3937,0.3927,0.3786,0.3357,0.2256,0.1009,0.0258,0.0,0.0,0.0,0.1204,0.2154,0.0404,0.0,0.0,0.0,0.0,0.0,0.0,0.0,-0.0267,-0.121,-0.1346,-0.1359,-0.1536,-0.2086,-0.2253,-0.2379,-0.2428,-0.2793,-0.3529,-0.4598,-0.5505,-0.5873,-0.7529,-0.854,-0.8837,-0.9623,-1.0565,-1.1471,-1.146,-1.1455,-1.1455,-1.1455,-1.1455,-1.1455,-1.1455,-1.1455,-1.1455,-1.1455,-1.1455,-1.1449,-1.133,-1.1248,-1.1199,-1.1079,-1.1003,-1.096,-1.1009,-1.0859,-1.0854,-1.0949,-1.0752,-1.0397,-1.0446,-1.0404,-1.007,0.0,0.0,0.0,0.0,0.0,0.0,0.0,0.0,0.0,0.0,0.0,0.0,0.0,0.0,0.0,0.0,0.0305,0.0,0.0,0.0,0.0,0.0,0.0,0.0,0.0,0.0,0.2093,0.2205,0.259,0.2725,0.0,0.0,0.3162,0.316,0.0,0.0,0.0,0.0,0.0,0.0,0.0,0.0,0.0,0.0,0.0,0.0,0.0,0.0,0.0,0.0,0.0,0.3902,0.3862,0.3235,0.2231,0.0508,0.0,0.0131,0.1059,0.2798,0.3751,0.1739,0.0657,0.0,0.0,0.0,-0.0129,-0.0517,-0.066,-0.0943,-0.175,-0.2019,-0.2039,-0.1536,-0.194,-0.2237,-0.2361,-0.2402,-0.245,-0.2536,-0.3744,-0.4475,-0.451,-0.5981,-0.7178,-0.823,-0.8599,-0.9134,-1.0218,-1.0565,-1.1099,-1.1455,-1.1455,-1.1455,-1.1455,-1.1455,-1.1455,-1.1455,-1.1455,-1.1455,-1.1455,-1.1362,-1.1308,-1.127,-1.1188,-1.1134,-1.1107,-1.1139,-1.115,-1.1145,-1.1058,-1.1025,-1.1009,-1.0889,-1.0846,-1.084,0.0,0.0,0.0,0.0,0.0,0.0,0.0,0.0,0.0,0.0,0.0,0.0,0.0,0.0,0.0,0.0,0.0,0.0,0.0,0.0,0.0,0.0,0.0,0.0,0.0,0.0,0.1908,0.2244,0.1971,0.2103,0.23,0.23,0.2645,0.3215,0.0,0.0,0.0,0.0,0.0,0.0,0.0,0.0,0.0,0.0,0.0,0.0,0.0,0.0,0.0,0.0,0.0,0.0,0.0,0.3951,0.3362,0.078,0.0,0.0649,0.3477,0.427,0.4355,0.4224,0.2087,0.0,0.0,0.0,-0.0388,-0.1938,-0.2114,-0.2019,-0.1212,-0.175,-0.2174,-0.2236,-0.227,-0.2309,-0.2369,-0.2457,-0.2514,-0.2515,-0.2593,-0.2647,-0.2647,-0.4091,-0.578,-0.7684,-0.752,-0.7167,-0.7167,-0.8595,-1.0026,-1.1455,-1.1455,-1.1455,-1.1455,-1.1455,-1.1455,-1.1455,-1.1455,-1.1455,-1.1455,-1.1455,-1.1389,-1.127,-1.127,-1.1204,-1.1112,-1.1226,-1.127,-1.127,-1.127,-1.127,-1.1253,-1.1139,-1.1101,-1.1079,0.0,0.0,0.0,0.0,0.0,0.0,0.0,0.0,0.0,0.0,0.0,0.0,0.0,0.0,0.0,0.0,0.0,0.0,0.0,0.0,0.0,0.0,0.0,0.0,0.0,0.0,0.1805,0.1941,0.2076,0.2093,0.1989,0.2455,0.2672,0.2643,0.2972,0.3172,0.0,0.0,0.0,0.0,0.0,0.0,0.3861,0.0,0.0,0.0,0.0,0.0,0.0,0.0,0.0,0.0,0.0,0.0,0.0,0.2923,0.1413,0.0258,0.116,0.2739,0.4347,0.4308,0.363,0.2186,-0.076,-0.1416,-0.1437,-0.1422,-0.1849,-0.2154,-0.1885,-0.2019,-0.2181,-0.2263,-0.2285,-0.2319,-0.2398,-0.1992,-0.1873,-0.254,-0.2624,-0.2694,-0.2736,-0.3112,-0.3684,-0.4478,-0.5201,-0.5918,-0.6097,-0.8238,-0.9487,-1.0026,-1.0916,-1.1455,-1.1455,-1.1455,-1.1455,-1.1455,-1.1455,-1.1411,-1.133,-1.133,-1.1264,-1.1161,-1.1237,-1.1253,-1.1226,-1.1346,-1.1395,-1.1389,-1.1302,-1.127,-1.1259,-1.1145,-1.1101,-1.1096,0.0,0.0,0.0,0.0,0.0,0.0,0.0,0.0,0.0,0.0,0.0,0.0,0.0,0.0,0.0,0.0,0.0,0.0,0.0,0.0,0.0,0.0,0.0,0.0,0.0,0.1919,0.1827,0.1857,0.2116,0.2139,0.1919,0.2279,0.2489,0.2553,0.2766,0.3075,0.0,0.0,0.0,0.0,0.0,0.0,0.3828,0.0,0.0,0.0,0.0,0.0,0.0,0.0,0.0,0.0,0.0,0.0,0.0,0.0,0.177,0.0128,-0.0255,0.1156,0.2719,0.2953,0.3087,0.231,-0.0881,-0.1922,-0.1957,-0.155,-0.1841,-0.2142,-0.2153,-0.2155,-0.2177,-0.2245,-0.2266,-0.2154,-0.1921,-0.1814,-0.1862,-0.2566,-0.2305,-0.2366,-0.2776,-0.2435,-0.2453,-0.2853,-0.3746,-0.4273,-0.4611,-0.7081,-0.8489,-0.8665,-1.0692,-1.181,-1.181,-1.181,-1.161,-1.1384,-1.1384,-1.1324,-1.121,-1.121,-1.1166,-1.1107,-1.1221,-1.127,0.0,-1.1406,-1.1455,-1.1449,-1.1373,-1.134,-1.1335,-1.1264,-1.1237,-1.1232,0.0,0.0,0.0,0.0,0.0,0.0,0.0,0.0,0.0,0.0,0.0,0.0,0.0,0.0,0.0,0.0,0.0,0.0,0.0,0.0,0.0,0.0,0.0,0.0,0.0,0.1823,0.1853,0.1885,0.1944,0.1975,0.1979,0.1982,0.2315,0.2716,0.244,0.2856,0.0,0.0,0.0,0.0,0.3739,0.3766,0.0,0.0,0.0,0.0,0.0,0.0,0.0,0.0,0.0,0.0,0.0,0.0,0.0,0.0,0.0,0.0,0.0,-0.0637,-0.0,0.0504,0.0763,0.0638,-0.0745,-0.1514,0.0,-0.2064,-0.2089,-0.212,-0.2151,-0.2157,-0.2166,-0.22,-0.2232,-0.1979,-0.1288,-0.1779,-0.2318,-0.2426,-0.1809,-0.1679,-0.2598,-0.1912,-0.1747,-0.2471,-0.2648,-0.2637,-0.2611,-0.5207,-0.6935,-0.7454,-1.0424,-1.2137,-1.2142,-1.2142,-1.1902,-1.1259,-1.1259,-1.1199,-1.109,-1.109,-1.1085,-1.1085,-1.1199,-1.1248,-1.1259,-1.1378,-1.1433,-1.1444,-1.1444,-1.1449,-1.1455,-1.1455,-1.1455,-1.1438,0.0,0.0,0.0,0.0,0.0,0.0,0.0,0.0,0.0,0.0,0.0,0.0,0.0,0.0,0.0,0.0,0.0,0.0,0.0,0.0,0.0,0.0,0.0,0.0,0.0,0.1802,0.1832,0.1885,0.1924,0.1964,0.2009,0.2033,0.2138,0.2198,0.2523,0.3032,0.0,0.0,0.0,0.0,0.3695,0.3728,0.0,0.0,0.0,0.0,0.3768,0.3672,0.0,0.0,0.0,0.0,0.0,0.0,0.0,0.0,0.0865,-0.0124,-0.1371,0.0,-0.1385,-0.0747,-0.0871,-0.137,0.0,-0.1879,-0.2035,-0.2059,-0.2089,-0.2125,-0.218,-0.217,-0.218,-0.2258,-0.2293,-0.2026,-0.1306,-0.0908,-0.0944,-0.1458,-0.1501,-0.1532,-0.1716,-0.1558,-0.1219,-0.0698,-0.0698,-0.1046,-0.1739,-0.3473,-0.4858,-0.607,-0.9225,-1.1345,-1.2397,-1.2397,-1.2211,-1.1663,-1.1663,-1.1423,-1.0965,-1.0965,-1.0911,-1.0829,-1.0949,-1.1003,-1.1014,-1.1134,-1.1237,-1.1313,-1.1313,-1.1373,-1.1455,-1.1455,-1.1455,-1.1449,0.0,0.0,0.0,0.0,0.0,0.0,0.0,0.0,0.0,0.0,0.0,0.0,0.0,0.0,0.0,0.0,0.0,0.0,0.0,0.0,0.0,0.0,0.0,0.0,0.1794,0.157,0.1602,0.1907,0.1924,0.1969,0.2039,0.2042,0.2145,0.2219,0.2751,0.3012,0.0,0.0,0.0,0.0,0.3551,0.0,0.0,0.0,0.0,0.0,0.3503,0.3298,0.0,0.3176,0.3209,0.296,0.0,0.0,0.0,0.0,-0.0123,-0.074,-0.1729,-0.1999,-0.1892,-0.15,-0.1746,-0.1996,-0.1996,-0.1997,-0.2008,-0.2037,-0.2067,-0.2102,-0.215,-0.1897,-0.178,-0.2241,-0.1705,-0.1156,-0.0739,-0.0308,-0.0319,-0.0654,-0.0673,-0.0684,-0.0684,-0.0344,-0.0173,-0.0,-0.0,-0.0344,-0.0685,-0.2566,-0.393,-0.4784,-0.8361,-1.063,-1.1607,-1.23,-1.2441,-1.2045,-1.2045,-1.1804,-1.1507,-1.1507,-1.1299,-1.1076,-1.1205,-1.1091,-1.0927,-1.1052,-1.1166,-1.127,-1.127,-1.1313,-1.1378,-1.1433,-1.1422,-1.1378,0.0,0.0,0.0,0.0,0.0,0.0,0.0,0.0,0.0,0.0,0.0,0.0,0.0,0.0,0.0,0.0,0.0,0.0,0.0,0.0,0.0,0.0,0.0,0.1797,0.169,0.1348,0.1378,0.1924,0.1933,0.1979,0.2057,0.2045,0.2142,0.2462,0.2831,0.2976,0.0,0.0,0.0,0.3591,0.33,0.0,0.0,0.0,0.0,0.0,0.0,0.0,0.0,0.2919,0.2827,0.2706,0.1848,0.0,0.0,0.0,0.0,0.0,-0.1858,-0.2001,-0.1894,-0.2014,-0.2015,-0.2018,-0.1886,-0.1869,-0.1861,-0.1886,-0.1915,-0.1947,-0.1984,-0.149,-0.138,-0.1941,-0.0841,0.0,0.0,0.0157,0.0161,0.0,0.0169,0.0171,0.0171,0.0854,0.1026,0.0512,0.0341,0.034,0.0168,-0.168,-0.3021,-0.3523,-0.7543,-0.981,-1.0164,-1.2057,-1.286,-1.224,-1.224,-1.2179,-1.2069,-1.2069,-1.1902,-1.1576,-1.1687,-1.1396,-1.1069,-1.1174,-1.1112,-1.1221,-1.1221,-1.1237,-1.1281,-1.1368,-1.1346,-1.1286,0.0,0.0,0.0,0.0,0.0,0.0,0.0,0.0,0.0,0.0,0.0,0.0,0.0,0.0,0.0,0.0,0.0,0.0,0.0,0.0,0.0,0.0,0.1795,0.1581,0.1031,0.113,0.137,0.1774,0.1944,0.1989,0.2027,0.2099,0.2206,0.2464,0.2535,0.2686,0.3026,0.0,0.0,0.3589,0.326,0.0,0.0,0.0,0.0,0.0,0.0,0.0,0.0,0.2514,0.2299,0.2064,0.1967,0.0,0.0,0.0,0.0,0.0,-0.2005,-0.1637,-0.1258,-0.1865,-0.2001,-0.1886,-0.1242,-0.1114,-0.1116,-0.1132,-0.1149,-0.1175,-0.1221,-0.1661,-0.1831,-0.144,-0.0579,0.0,0.0,0.1264,0.1595,0.0165,0.0675,0.1023,0.1182,0.1191,0.1534,0.2194,0.2362,0.2023,0.1178,0.0,-0.0841,-0.1681,-0.6041,-0.8399,-0.8429,-1.1617,-1.3125,-1.2599,-1.2599,-1.242,-1.2069,-1.2069,-1.2069,-1.2069,-1.2093,-1.1766,-1.1265,-1.1288,-1.1205,-1.0971,-1.0971,-1.1096,-1.1264,-1.1188,-1.1204,-1.1275,0.0,0.0,0.0,0.0,0.0,0.0,0.0,0.0,0.0,0.0,0.0,0.0,0.0,0.0,0.0,0.0,0.0,0.0,0.0,0.0,0.0,0.1364,0.1137,0.1141,0.115,0.1381,0.1639,0.1934,0.1978,0.2023,0.2068,0.2094,0.2178,0.2435,0.2397,0.2564,0.2917,0.3026,0.3138,0.3141,0.0,0.0,0.0,0.0,0.0,0.0,0.0,0.0,0.0,0.0,0.2036,0.1933,0.1948,0.0,0.0,0.0,0.0,0.0,-0.1992,-0.1505,-0.1131,-0.1364,-0.1241,-0.0872,-0.0618,-0.0487,-0.0608,-0.0877,-0.1014,-0.1034,-0.1079,-0.0968,-0.0567,0.0586,0.075,0.0922,0.1273,0.1617,0.1804,0.1499,0.1355,0.1533,0.2021,0.2029,0.22,0.2694,0.2692,0.2524,0.2018,0.1178,0.0336,-0.0505,-0.4027,-0.654,-0.8052,-1.0554,-1.2395,-1.3065,-1.3065,-1.2899,-1.2733,-1.2733,-1.2733,-1.2401,-1.2401,-1.2235,-1.1736,-1.157,-1.1311,-1.1261,-1.0922,-1.1025,-1.1172,-1.1123,-1.1134,-1.1183,0.0,0.0,0.0,0.0,0.0,0.0,0.0,0.0,0.0,0.0,0.0,0.0,0.0,0.0,0.0,0.0,0.0,0.0,0.0,0.0,0.1573,0.1143,0.0918,0.1041,0.1404,0.1534,0.1686,0.1986,0.2015,0.206,0.212,0.2089,0.2152,0.2302,0.2268,0.2324,0.2582,0.2805,0.2805,0.2694,0.0,0.0,0.0,0.0,0.0,0.0,0.0,0.0,0.0,0.0,0.0,0.0,0.0,0.0,0.0,0.0,-0.0988,-0.1978,-0.1985,-0.1498,-0.1001,-0.0867,-0.0371,-0.0,0.0124,0.0122,0.0,-0.0377,-0.0509,-0.0517,-0.054,-0.0,0.0726,0.1947,0.1701,0.1584,0.2405,0.1976,0.1845,0.2691,0.2035,0.1868,0.2694,0.2692,0.2692,0.2692,0.2692,0.2692,0.2692,0.185,0.0841,0.0,-0.2686,-0.5365,-0.8052,-0.9721,-1.1558,-1.3403,-1.3403,-1.3403,-1.3403,-1.3403,-1.3231,-1.2899,-1.2899,-1.2567,-1.2235,-1.1902,-1.1628,-1.1722,-1.1385,-1.1289,-1.1412,-1.1468,-1.1468,-1.1274,0.0,0.0,0.0,0.0,0.0,0.0,0.0,0.0,0.0,0.0,0.0,0.0,0.0,0.0,0.0,0.0,0.0,0.0,0.0,0.0,0.1767,0.1685,0.1711,0.1762,0.1842,0.1213,0.1223,0.2015,0.2046,0.2091,0.2151,0.212,0.2059,0.1971,0.1941,0.1996,0.2244,0.2244,0.2468,0.2694,0.2356,0.0,0.0,0.0,0.0,0.0,0.0,0.0,0.0,0.0,0.0,0.0,0.0,0.0,0.0,0.0,-0.0988,-0.1982,-0.2008,-0.1498,-0.0866,-0.0247,-0.0125,0.0126,0.0756,0.088,0.0883,0.0898,0.0911,0.0932,0.1111,0.1177,0.1232,0.1405,0.1267,0.1604,0.2432,0.2464,0.2495,0.2688,0.2694,0.2695,0.2692,0.2692,0.2692,0.2692,0.2692,0.2692,0.2692,0.185,0.0841,0.0,-0.2686,-0.5365,-0.8052,-0.9721,-1.1558,-1.3403,-1.3403,-1.3403,-1.3403,-1.3403,-1.3403,-1.3403,-1.3403,-1.3072,-1.2567,-1.2567,-1.2407,-1.2087,-1.2087,-1.2166,-1.2319,-1.2564,-1.2235,-1.179,0.0,0.0,0.0,0.0,0.0,0.0,0.0,0.0,0.0,0.0,0.0,0.0,0.0,0.0,0.0,0.0,0.0,0.0,0.0,0.1306,0.1449,0.1009,0.1253,0.1288,0.1094,0.1356,0.1637,0.2075,0.2105,0.2123,0.2125,0.2095,0.216,0.219,0.2057,0.2009,0.228,0.2394,0.2394,0.2163,0.2367,0.2244,0.0,0.0,0.0,0.0,0.0,0.0,0.0,0.0,0.1854,0.1889,0.1913,0.1094,0.0,0.0,-0.0988,-0.1856,-0.1492,-0.0868,-0.0124,0.0749,0.1139,0.1403,0.1516,0.1639,0.1532,0.1198,0.1071,0.1085,0.1282,0.1612,0.196,0.203,0.2064,0.2253,0.2623,0.2656,0.2679,0.2691,0.2692,0.2692,0.2692,0.2692,0.2692,0.2692,0.2692,0.2692,0.2692,0.2356,0.1682,0.0841,-0.0672,-0.2853,-0.5533,-0.7877,-0.9888,-1.1724,-1.2899,-1.3403,-1.3403,-1.3403,-1.3403,-1.3403,-1.3403,-1.3231,-1.3065,-1.2899,-1.2567,-1.242,-1.2421,-1.2246,-1.2179,-1.2448,-1.2063,-1.1548,0.0,0.0,0.0,0.0,0.0,0.0,0.0,0.0,0.0,0.0,0.0,0.0,0.0,0.0,0.0,0.0,0.0,0.0,0.0519,0.1182,0.1321,0.089,0.1018,0.1159,0.0957,0.1612,0.2044,0.2095,0.2135,0.2133,0.2094,0.2074,0.2147,0.2307,0.2055,0.2028,0.2218,0.2426,0.23,0.1838,0.2485,0.2356,0.0,0.0,0.0,0.0,0.0,0.0,0.0,0.0,0.1843,0.1888,0.1896,0.0967,0.0,0.0247,-0.0617,-0.1482,-0.0864,-0.037,0.0247,0.1249,0.1653,0.1932,0.2307,0.232,0.2099,0.1773,0.1786,0.1807,0.2027,0.2349,0.2538,0.2626,0.2694,0.2587,0.2627,0.2668,0.2692,0.2692,0.2692,0.2692,0.2692,0.2692,0.2692,0.2692,0.2692,0.2692,0.2692,0.2683,0.2176,0.1339,0.0667,-0.0833,-0.3503,-0.617,-0.8518,-1.0382,-1.2395,-1.3403,-1.3403,-1.3403,-1.3403,-1.3403,-1.3403,-1.3403,-1.3403,-1.3065,-1.2899,-1.2925,-1.2828,-1.2803,-1.2663,-1.2898,-1.2495,-1.1801,0.0,0.0,0.0,0.0,0.0,0.0,0.0,0.0,0.0,0.0,0.0,0.0,0.0,0.0,0.0,0.0,0.0,0.0,-0.0,0.1039,0.1584,0.164,0.1334,0.1367,0.1766,0.1971,0.2033,0.2064,0.2124,0.2123,0.2064,0.2064,0.2033,0.1975,0.1945,0.1932,0.1928,0.2216,0.2072,0.1839,0.2487,0.2356,0.1795,0.0,0.0,0.0,0.0,0.0,0.0,0.0,0.1861,0.1891,0.1921,0.0976,0.0123,0.0741,0.0,-0.0864,-0.0123,0.0,0.0247,0.1233,0.1262,0.1424,0.276,0.2967,0.2752,0.2752,0.3092,0.3447,0.3494,0.3278,0.3029,0.3031,0.2839,0.2601,0.2601,0.2654,0.2692,0.2692,0.2692,0.2692,0.2692,0.2692,0.2692,0.2692,0.2692,0.2691,0.2691,0.2662,0.215,0.1323,0.1308,0.0,-0.2639,-0.5273,-0.7616,-0.9369,-1.205,-1.3403,-1.3403,-1.3403,-1.3403,-1.3403,-1.3403,-1.3403,-1.3403,-1.3403,-1.3403,-1.3417,-1.3566,-1.3627,-1.3648,-1.3783,-1.3409,-1.2952,0.0,0.0,0.0,0.0,0.0,0.0,0.0,0.0,0.0,0.0,0.0,0.0,0.0,0.0,0.0,0.0,0.0,0.0,-0.0,0.1044,0.1703,0.172,0.1202,0.1224,0.1821,0.1889,0.1981,0.2095,0.2114,0.2091,0.2033,0.2053,0.2022,0.1947,0.1978,0.197,0.1928,0.2478,0.2355,0.19,0.2426,0.2283,0.1827,0.0,0.0,0.0,0.0,0.0,0.0,0.0,0.0,0.0,0.1299,0.06,0.0,0.0246,-0.037,-0.0741,0.037,0.0851,0.1084,0.1989,0.2417,0.2597,0.2796,0.2871,0.2952,0.3325,0.3218,0.3108,0.3176,0.286,0.2564,0.2632,0.2831,0.2872,0.2596,0.2964,0.3003,0.269,0.2692,0.2692,0.2692,0.2692,0.2852,0.3161,0.316,0.3314,0.3453,0.3604,0.3433,0.3106,0.228,0.1302,0.049,-0.2464,-0.5116,-0.7447,-0.9667,-1.1552,-1.3403,-1.3403,-1.3403,-1.3403,-1.3403,-1.3403,-1.3403,-1.3403,-1.3403,-1.3417,-1.3566,-1.3566,-1.3485,-1.3634,-1.3257,-1.2798,0.0,0.0,0.0,0.0,0.0,0.0,0.0,0.0,0.0,0.0,-0.1617,-0.1617,0.0,0.0,0.0,0.0,0.0,0.0,0.0,0.0829,0.1787,0.1707,0.14,0.1433,0.1829,0.1866,0.2057,0.2164,0.205,0.2031,0.1985,0.2026,0.2018,0.1967,0.2015,0.2009,0.1963,0.2416,0.2396,0.191,0.2458,0.2322,0.1857,0.0,0.0,0.0,0.0,0.0,0.0,0.0,0.0,0.0,0.1396,0.0944,0.06,0.0852,0.0611,0.0367,0.1345,0.1696,0.1933,0.2484,0.268,0.2762,0.2736,0.2806,0.302,0.3569,0.3431,0.3291,0.3357,0.2875,0.2716,0.2623,0.282,0.286,0.2902,0.31,0.3295,0.3152,0.3155,0.3155,0.3155,0.3155,0.3312,0.3453,0.3615,0.3606,0.3907,0.3886,0.3876,0.3876,0.2894,0.241,0.2422,-0.0649,-0.326,-0.5401,-0.7773,-0.9978,-1.2148,-1.3039,-1.3403,-1.3403,-1.3403,-1.3403,-1.3403,-1.3403,-1.3403,-1.341,-1.3505,-1.3485,-1.341,-1.3505,-1.3311,-1.2899,0.0,0.0,-0.1617,-0.1617,0.0,0.0,0.0,0.0,0.0,0.0,-0.1617,-0.1617,0.0,0.0,0.0,0.0,0.0,0.0,0.0,0.0,0.1747,0.1705,0.1819,0.1879,0.1879,0.1879,0.2008,0.2394,0.2076,0.1958,0.1932,0.199,0.2019,0.202,0.205,0.2046,0.2012,0.2227,0.2176,0.2003,0.2472,0.2355,0.1883,0.2203,0.0,0.0,0.0,0.0,0.0,0.0,0.0,0.0,0.1724,0.151,0.1415,0.2158,0.2044,0.1921,0.2292,0.2433,0.2455,0.2472,0.2307,0.2283,0.2832,0.2891,0.2937,0.3462,0.3458,0.3448,0.3486,0.319,0.2888,0.2888,0.2814,0.2716,0.3037,0.3225,0.3412,0.374,0.3905,0.3905,0.3905,0.3905,0.3903,0.3899,0.3899,0.3897,0.4055,0.4012,0.3829,0.3829,0.3473,0.3156,0.319,0.0319,-0.1761,-0.3236,-0.6214,-0.8388,-0.9876,-1.2161,-1.3403,-1.3403,-1.3403,-1.3403,-1.3403,-1.3403,-1.3403,-1.3403,-1.3403,-1.3403,-1.3403,-1.3403,-1.3403,-1.3403,0.0,0.0,-0.1617,-0.1617,0.0,0.0,0.0,0.0,0.0,0.0,0.0,0.0,0.0,0.0,0.0,0.0,0.0,0.0,0.0,0.0,0.113,0.1065,0.1533,0.18,0.1849,0.2055,0.2044,0.1938,0.1903,0.2058,0.2292,0.2115,0.2019,0.202,0.205,0.2035,0.1982,0.2289,0.2135,0.1885,0.2239,0.2239,0.1885,0.1996,0.1861,0.0,0.0,0.0,0.0,0.0,0.0,0.0,0.126,0.1038,0.1046,0.1434,0.1421,0.1288,0.2188,0.2397,0.2253,0.2141,0.2245,0.2344,0.2734,0.2619,0.2644,0.3462,0.3373,0.3261,0.3269,0.2805,0.2651,0.2651,0.2823,0.3004,0.2716,0.3205,0.3542,0.3412,0.3742,0.3905,0.3905,0.3905,0.4052,0.4337,0.4333,0.4474,0.4747,0.4731,0.4726,0.4726,0.4402,0.3931,0.3625,0.2703,0.0799,-0.1918,-0.3557,-0.5526,-0.7973,-1.0958,-1.2733,-1.3403,-1.3403,-1.3403,-1.3403,-1.3403,-1.3403,-1.3403,-1.3403,-1.3403,-1.3403,-1.3403,-1.3403,-1.3403,0.0,0.0,0.0,0.0,0.0,0.0,0.0,0.0,0.0,0.0,0.0,0.0,0.0,0.0,0.0,0.0,0.0,0.0,0.0,0.0,0.0924,0.1278,0.1654,0.1802,0.1819,0.1916,0.2132,0.2244,0.1958,0.199,0.2122,0.1948,0.1992,0.202,0.205,0.2149,0.2196,0.2178,0.2152,0.2122,0.2139,0.2026,0.1906,0.1891,0.1866,0.1836,0.1806,0.0,0.0,0.0,0.0,0.0,0.0,0.0,0.1944,0.2006,0.2002,0.2109,0.242,0.2411,0.23,0.2203,0.2154,0.2223,0.2601,0.2478,0.2493,0.2989,0.2907,0.2808,0.2823,0.2671,0.2514,0.2514,0.2671,0.2833,0.2851,0.3169,0.3495,0.3516,0.3679,0.3999,0.4159,0.4159,0.4307,0.4599,0.4754,0.4739,0.5022,0.5022,0.5022,0.5022,0.4554,0.4241,0.3768,0.3317,0.19,-0.0475,-0.144,-0.3224,-0.5835,-0.9897,-1.2338,-1.3403,-1.3403,-1.3403,-1.3403,-1.3403,-1.3403,-1.3403,-1.3403,-1.3403,-1.3403,-1.3403,-1.3403,-1.3403,0.0,0.0,0.0,0.0,0.0,0.0,0.0,0.0,0.0,0.0,0.0,0.0,0.0,0.0,0.0,0.0,0.0,0.0,0.0,0.0,0.0,0.1605,0.1767,0.1797,0.1802,0.1798,0.2132,0.2582,0.2132,0.1924,0.1842,0.1903,0.1962,0.2019,0.2039,0.2129,0.2292,0.2067,0.2041,0.2224,0.2022,0.1915,0.1913,0.1888,0.0,0.1836,0.1919,0.1908,0.202,0.2138,0.0,0.0,0.0,0.0,0.283,0.2801,0.2932,0.2932,0.2508,0.2443,0.2394,0.226,0.2181,0.223,0.2313,0.2328,0.2335,0.2371,0.2423,0.247,0.25,0.2507,0.2508,0.2514,0.2514,0.2671,0.2983,0.2983,0.3297,0.3611,0.3768,0.3925,0.4241,0.4241,0.4397,0.4865,0.4865,0.4865,0.5022,0.5022,0.5022,0.5022,0.4709,0.4241,0.3925,0.3454,0.2511,0.1098,0.0317,-0.144,-0.404,-0.8152,-1.0874,-1.2649,-1.2986,-1.3171,-1.3363,-1.3363,-1.3376,-1.3403,-1.3403,-1.3403,-1.3403,-1.3403,-1.3403,-1.3403,0.0,0.0,0.0,0.0,0.0,0.0,0.0,0.0,0.0,0.0,-0.1617,-0.1617,0.0,-0.1617,-0.1617,-0.1617,-0.1617,-0.1617,-0.1516,0.0,0.0,0.0762,0.1443,0.1808,0.1834,0.2035,0.2132,0.2244,0.2132,0.2151,0.0,0.0,0.1962,0.2018,0.1997,0.1967,0.1928,0.1879,0.1839,0.1809,0.184,0.1853,0.1851,0.0,0.0,0.0,0.2145,0.2356,0.2588,0.2395,0.2293,0.0,0.0,0.0,0.207,0.2345,0.2195,0.2047,0.2346,0.2339,0.2197,0.2138,0.2198,0.2256,0.2319,0.2313,0.2312,0.2367,0.2406,0.2439,0.2469,0.2474,0.2484,0.251,0.2514,0.2514,0.2514,0.2826,0.3139,0.3139,0.3611,0.3768,0.3925,0.3925,0.4084,0.4397,0.4554,0.4709,0.5019,0.5022,0.5022,0.5022,0.5022,0.4709,0.4397,0.4241,0.3768,0.2825,0.1257,-0.079,-0.3351,-0.4155,-0.6267,-0.9744,-1.0895,-1.2106,-1.32,-1.32,-1.3281,-1.3403,-1.3403,-1.3403,-1.3403,-1.3403,-1.3403,-1.3403,0.0,0.0,0.0,0.0,0.0,0.0,0.0,0.0,0.0,0.0,0.0,-0.1617,-0.1617,-0.1617,-0.1617,-0.1617,-0.1617,-0.1617,-0.1617,-0.0414,0.0423,0.0646,0.1425,0.1776,0.1789,0.1887,0.2101,0.2212,0.2191,0.0,0.0,0.211,0.2041,0.0,0.0,0.2055,0.2141,0.1859,0.1947,0.2047,0.2043,0.2041,0.0,0.0,0.0,0.0,0.0,0.0,0.2476,0.2517,0.2401,0.2276,0.2314,0.0,0.0,0.0,0.2187,0.2063,0.2132,0.2097,0.2053,0.2114,0.2162,0.2215,0.2292,0.23,0.2303,0.2345,0.2364,0.2387,0.2435,0.2443,0.2448,0.2461,0.2463,0.2469,0.2487,0.2643,0.2805,0.2825,0.2985,0.314,0.3454,0.3433,0.3585,0.4081,0.4213,0.4522,0.4709,0.4865,0.5006,0.4976,0.4818,0.4507,0.4042,0.3733,0.3433,0.2828,0.2042,0.1101,-0.0,-0.079,-0.3662,-0.8093,-0.8742,-0.9744,-1.1097,-1.183,-1.2225,-1.2294,-1.3032,-1.3403,-1.3403,-1.3403,-1.3403,-1.3403,0.0,0.0,0.0,0.0,0.0,0.0,0.0,0.0,0.0,0.0,0.0,-0.1617,-0.1617,0.0,0.0,0.0,-0.1617,-0.1518,-0.1424,-0.0515,0.0209,0.0744,0.151,0.1847,0.1847,0.1955,0.2064,0.2391,0.0,0.0,0.2343,0.2324,0.2257,0.0,0.1948,0.2034,0.0,0.0,0.0,0.0,0.0,0.0,0.0,0.0,0.0,0.0,0.0,0.0,0.0,0.0,0.2397,0.2264,0.2419,0.2519,0.0,0.0,0.0,0.2189,0.1903,0.1963,0.202,0.2074,0.2127,0.2187,0.2262,0.2279,0.2289,0.2326,0.2327,0.2338,0.2391,0.2406,0.2414,0.2423,0.2424,0.2432,0.2454,0.2458,0.2466,0.2488,0.2491,0.2646,0.2956,0.2933,0.3084,0.3578,0.3859,0.4162,0.4199,0.4665,0.4802,0.4762,0.4606,0.4297,0.3991,0.3542,0.3254,0.2816,0.2667,0.2671,0.2514,0.157,-0.1265,-0.5299,-0.594,-0.6916,-0.8228,-0.9602,-1.0329,-1.0721,-1.2307,-1.2866,-1.3072,-1.3403,-1.3403,-1.3403,0.0,0.0,0.0,0.0,0.0,0.0,0.0,0.0,0.0,0.0,0.0,-0.1617,-0.1617,-0.1617,-0.1617,-0.1617,-0.1617,-0.1426,-0.0933,-0.0311,0.0209,0.0744,0.1599,0.0,0.2133,0.2346,0.2668,0.2988,0.0,0.0,0.2651,0.2456,0.2414,0.2518,0.2078,0.2034,0.2355,0.0,0.0,0.0,0.0,0.0,0.0,0.0,0.0,0.0,0.0,0.0,0.0,0.0,0.0,0.2304,0.1992,0.1862,0.1838,0.0,0.0,0.0,0.1872,0.1933,0.1986,0.2016,0.211,0.2206,0.224,0.2248,0.2264,0.232,0.2311,0.2303,0.2333,0.2361,0.239,0.2418,0.2424,0.2424,0.2425,0.2425,0.2427,0.2428,0.2428,0.2428,0.2428,0.2427,0.2578,0.3036,0.3186,0.3336,0.379,0.4096,0.4396,0.4394,0.4699,0.4699,0.4699,0.4446,0.4011,0.3704,0.3279,0.2826,0.2514,0.2357,0.1571,0.0,-0.2353,-0.4099,-0.5566,-0.685,-0.775,-0.8401,-1.0552,-1.1788,-1.2235,-1.3072,-1.3403,-1.3403,0.0,0.0,0.0,0.0,0.0,0.0,0.0,0.0,0.0,0.0,0.0,0.0,0.0,-0.1617,-0.1617,-0.1617,-0.1314,-0.1013,-0.0816,0.0,0.0617,0.0838,0.1467,0.1886,0.1886,0.2096,0.2303,0.0,0.0,0.26,0.2606,0.2877,0.2825,0.2776,0.2506,0.2635,0.2784,0.2659,0.0,0.0,0.0,0.0,0.0,0.0,0.0,0.0,0.0,0.0,0.0,0.0,0.0,0.0,0.0,0.0,0.1812,0.1812,0.1831,0.1854,0.1855,0.1915,0.1979,0.1989,0.2053,0.2121,0.2151,0.2203,0.2251,0.2273,0.2285,0.23,0.2327,0.2342,0.2353,0.2364,0.2365,0.2372,0.2391,0.2394,0.2402,0.2421,0.2424,0.2424,0.2424,0.2406,0.2402,0.2574,0.2857,0.3154,0.333,0.3633,0.407,0.4188,0.404,0.404,0.3891,0.3937,0.3825,0.37,0.3562,0.3428,0.3299,0.2983,0.2668,0.2196,0.0941,-0.0785,-0.2837,-0.4126,-0.4798,-0.5319,-0.7799,-0.9351,-1.0431,-1.1605,-1.2656,-1.3403,0.0,0.0,0.0,0.0,0.0,0.0,0.0,0.0,0.0,0.0,0.0,0.0,0.0,0.0,-0.1112,-0.1112,-0.0707,-0.0505,-0.0303,0.0404,0.0914,0.1131,0.1544,0.175,0.175,0.2057,0.0,0.0,0.0,0.0,0.0,0.2941,0.3132,0.2988,0.3058,0.3092,0.0,0.0,0.0,0.3162,0.0,0.0,0.2609,0.0,0.0,0.0,0.0,0.0,0.0,0.0,0.0,0.0,0.0,0.0,0.0,0.1795,0.1831,0.1866,0.1846,0.1899,0.1966,0.1986,0.202,0.2063,0.2113,0.2155,0.2196,0.2237,0.2253,0.2273,0.2311,0.2319,0.2322,0.2331,0.2333,0.2339,0.236,0.2363,0.2371,0.2391,0.2393,0.2393,0.2393,0.2375,0.2371,0.2391,0.2672,0.2817,0.2841,0.314,0.3722,0.4133,0.384,0.384,0.384,0.4036,0.3926,0.3807,0.3839,0.3871,0.3745,0.3447,0.3297,0.3297,0.2985,0.1885,-0.0157,-0.1422,-0.2064,-0.2551,-0.4976,-0.6661,-0.7733,-0.8893,-0.9947,-1.071,0.0,0.0,0.0,0.0,0.0,0.0,0.0,0.0,0.0,0.0,0.0,0.0,0.0,0.0,0.0,0.0101,0.0,0.0303,0.0809,0.0809,0.1011,0.1617,0.182,0.2023,0.2023,0.0,0.0,0.0,0.0,0.0,0.0,0.3001,0.3248,0.3566,0.364,0.363,0.3374,0.3009,0.3224,0.3758,0.0,0.2598,0.2578,0.0,0.0,0.0,0.3253,0.3606,0.0,0.4654,0.0,0.0,0.0,0.0,0.0,0.0,0.0,0.1842,0.0,0.0,0.0,0.2001,0.2015,0.2038,0.2128,0.2104,0.2097,0.2217,0.2218,0.2218,0.2279,0.229,0.2298,0.2327,0.2331,0.233,0.233,0.233,0.2331,0.2331,0.2331,0.2331,0.2333,0.2333,0.2333,0.2333,0.2333,0.2333,0.2333,0.2624,0.3207,0.408,0.408,0.4226,0.4665,0.4722,0.4604,0.4161,0.4264,0.416,0.37,0.3745,0.3766,0.3766,0.3768,0.3299,0.2514,0.1256,0.0474,-0.0319,-0.2389,-0.3551,-0.4116,-0.4936,-0.5303,-0.5521,0.0,0.0,0.0,0.0,0.0,0.0,0.0,0.0,0.0,0.0,0.0,0.0,0.0,0.0,0.0,0.1279,0.0951,0.1043,0.2058,0.1628,0.1415,0.1617,0.174,0.1753,0.1753,0.0,0.0,0.0,0.0,0.0,0.29,0.3319,0.3532,0.3635,0.3747,0.3763,0.3669,0.3467,0.3638,0.3749,0.2964,0.3139,0.0,0.0,0.0,0.0,0.0,0.5677,0.5226,0.0,0.6139,0.5303,0.0,0.0,0.0,0.0,0.0,0.0,0.1846,0.0,0.0,0.0,0.0,0.0,0.1982,0.2012,0.2053,0.2131,0.2158,0.2192,0.2275,0.2273,0.2267,0.2297,0.2283,0.227,0.227,0.227,0.2278,0.23,0.2303,0.2311,0.2331,0.2333,0.2333,0.2333,0.2333,0.2333,0.2333,0.2624,0.3063,0.3207,0.35,0.3791,0.4226,0.4241,0.4417,0.4607,0.4638,0.4678,0.4416,0.4316,0.4185,0.4185,0.391,0.3611,0.3454,0.2668,0.2202,0.1578,0.0158,-0.1271,-0.2414,-0.3406,-0.4586,-0.5462,0.0,0.0,0.0825,0.1228,0.0,0.0,0.0,0.0,0.0,0.0,0.0,0.0,0.0,0.0,0.0,0.2941,0.2916,0.3092,0.3665,0.2885,0.2349,0.2349,0.1962,0.1667,0.168,0.0,0.0,0.0,0.0,0.0,0.0,0.0,0.0,0.3334,0.3344,0.3374,0.3408,0.33,0.3366,0.3643,0.3362,0.3675,0.4508,0.4379,0.4908,0.0,0.0,0.0,0.6662,0.7539,0.7263,0.0,0.0,0.0,0.0,0.0,0.0,0.0,0.0,0.0,0.1933,0.194,0.0,0.0,0.194,0.1947,0.1962,0.2022,0.206,0.2104,0.2181,0.2192,0.2195,0.2213,0.22,0.2202,0.224,0.2245,0.2252,0.227,0.2273,0.2278,0.2294,0.2296,0.2301,0.2315,0.2315,0.232,0.2333,0.2478,0.2771,0.2917,0.3063,0.35,0.408,0.408,0.4387,0.4717,0.4744,0.4774,0.4812,0.4591,0.4473,0.4475,0.4374,0.4238,0.4084,0.3768,0.3454,0.2983,0.204,0.1105,0.0319,-0.0484,-0.1306,-0.2146,0.0,0.0,0.159,0.1045,0.1069,0.0982,0.0,0.0,0.0,0.0,0.0,0.0,0.0,0.0,0.0,0.0,0.5267,0.5539,0.5532,0.4285,0.352,0.352,0.2598,0.2099,0.2135,0.2135,0.0,0.0,0.0,0.0,0.0,0.0,0.0,0.0,0.2709,0.2733,0.2915,0.2735,0.3003,0.346,0.3931,0.4277,0.4594,0.5498,0.5972,0.6368,0.7406,0.774,0.7746,0.8671,0.8314,0.0,0.0,0.0,0.0,0.0,0.2142,0.0,0.0,0.0,0.0,0.1996,0.1954,0.0,0.196,0.1914,0.1876,0.1929,0.1962,0.2,0.2063,0.2095,0.2116,0.2119,0.212,0.2147,0.2225,0.2236,0.2237,0.224,0.224,0.2241,0.2245,0.2245,0.2256,0.2283,0.2286,0.2297,0.2322,0.2323,0.247,0.2765,0.2765,0.3203,0.3935,0.3935,0.4226,0.4665,0.4719,0.4744,0.4749,0.4864,0.4921,0.4929,0.4986,0.486,0.4397,0.4397,0.4241,0.3768,0.3297,0.3159,0.3195,0.2909,0.278,0.2646,0.1689,0.1696,0.1703,0.1591,0.2343,0.0,0.0,0.0,0.0,0.0,0.0,0.0,0.0,0.0,0.0,0.0,0.6057,0.5899,0.6494,0.543,0.4755,0.4755,0.4512,0.4479,0.4557,0.4557,0.0,0.0,0.0,0.0,0.0,0.0,0.0,0.0,0.268,0.2682,0.267,0.276,0.3118,0.3743,0.411,0.4786,0.5954,0.6754,0.7858,0.8853,0.9116,0.93,0.9359,0.9546,0.8753,0.7487,0.7317,0.635,0.505,0.3763,0.0,0.0,0.0,0.0,0.0,0.1951,0.197,0.0,0.1948,0.1963,0.1988,0.1999,0.2007,0.2037,0.2121,0.2142,0.2154,0.2178,0.2183,0.218,0.2173,0.2173,0.2181,0.2206,0.2208,0.2218,0.2243,0.2245,0.2248,0.2253,0.2253,0.2256,0.2262,0.2263,0.2274,0.2442,0.2442,0.2599,0.3061,0.3061,0.3498,0.4226,0.4236,0.4389,0.4684,0.4758,0.4818,0.4867,0.4927,0.4978,0.4865,0.4865,0.4395,0.3768,0.3768,0.3617,0.3629,0.3672,0.3555,0.3596,0.3515,0.3557,0.3588,0.3452,0.0,0.0,0.0,0.0,0.0,0.0,0.0,0.0,0.0,0.0,0.0,0.0,0.0,0.0,0.0,0.0,0.5969,0.5865,0.5387,0.484,0.4416,0.4419,0.3835,0.0,0.0,0.0,0.0,0.0,0.0,0.0,0.3126,0.3138,0.3253,0.3193,0.3282,0.3545,0.4765,0.5809,0.6872,0.8043,0.8981,0.9713,0.9713,0.9761,0.9788,0.9564,0.9207,0.8763,0.783,0.7189,0.6616,0.5313,0.4807,0.4577,0.3282,0.2942,0.2835,0.2097,0.1975,0.0,0.0,0.193,0.1934,0.1949,0.1952,0.1975,0.2052,0.2065,0.208,0.2125,0.2108,0.2104,0.2148,0.2155,0.2161,0.2176,0.2177,0.2184,0.2199,0.22,0.2206,0.2222,0.2237,0.2245,0.2245,0.2245,0.2252,0.2267,0.2268,0.2425,0.2888,0.2888,0.3331,0.408,0.408,0.4371,0.4668,0.4728,0.4788,0.485,0.491,0.497,0.5022,0.5022,0.4709,0.4395,0.4238,0.4084,0.4088,0.3819,0.3852,0.388,0.5333,0.5335,0.5312,0.5247,0.5601,0.5873,0.0,0.0,0.0,0.0,0.0,0.0,0.0,0.0,0.0,0.0,0.0,0.0,0.0,0.0,0.0,0.714,0.6293,0.5414,0.4467,0.4568,0.3975,0.2826,0.0,0.0,0.0,0.0,0.0,0.0,0.3658,0.3698,0.4104,0.3924,0.3883,0.4098,0.5752,0.673,0.7383,0.8968,0.9591,0.97,0.9788,0.9842,0.9815,0.9483,0.9795,1.0089,0.8432,0.8216,0.8292,0.6906,0.6337,0.6056,0.4742,0.4514,0.4153,0.2783,0.238,0.2344,0.0,0.0,0.0,0.19,0.1903,0.1919,0.1974,0.1985,0.2,0.2048,0.2026,0.2034,0.2124,0.2142,0.215,0.2162,0.2143,0.2138,0.2161,0.2158,0.2165,0.2189,0.2214,0.2228,0.2228,0.2228,0.223,0.2236,0.2237,0.2391,0.2707,0.2715,0.3162,0.3921,0.393,0.4226,0.4519,0.4714,0.4777,0.4848,0.4897,0.4957,0.5022,0.5022,0.5022,0.5022,0.4709,0.4554,0.4402,0.4126,0.3988,0.4008,0.5448,0.507,0.5134,0.5126,0.6274,0.7252,0.737,0.8425,0.9155,0.929,0.0,0.0,0.0,0.0,0.0,0.0,0.0,0.0,0.8933,0.0,0.0,0.8461,0.836,0.8323,0.8263,0.8144,0.7576,0.6278,0.0,0.0,0.0,0.0,0.0,0.4915,0.3743,0.392,0.5262,0.4954,0.5665,0.6966,0.7338,0.7127,0.6792,0.8594,0.9211,0.9279,0.968,0.991,1.0039,1.012,1.029,1.048,1.0397,1.0068,0.9638,0.8671,0.814,0.7713,0.6701,0.6435,0.6038,0.4535,0.4218,0.3858,0.2376,0.0,0.2024,0.1977,0.0,0.1975,0.2008,0.0,0.0,0.2023,0.2063,0.209,0.2076,0.2097,0.2135,0.2188,0.2099,0.2076,0.2184,0.217,0.2157,0.2159,0.2163,0.2165,0.2165,0.2165,0.2177,0.2204,0.2206,0.2219,0.2249,0.2277,0.2578,0.3009,0.3337,0.3791,0.4226,0.4525,0.4736,0.4848,0.4853,0.4918,0.5022,0.5022,0.5022,0.5022,0.5022,0.4865,0.4865,0.487,0.4907,0.496,0.7425,0.7259,0.7298,0.7298,0.7826,0.8314,0.8646,0.9294,0.9856,0.9822,0.9897,0.0,0.0,0.0,0.0,0.0,0.0,0.8994,0.0,0.0,0.0,0.0,0.8804,0.0,0.7921,0.7725,0.7056,0.5822,0.5702,0.5382,0.4883,0.0,0.5082,0.634,0.5629,0.5854,0.666,0.6439,0.6705,0.7138,0.7377,0.7533,0.7812,0.9036,0.9598,0.97,0.9883,1.0053,1.0168,1.0053,1.0344,1.0677,1.0222,1.0358,1.0531,0.985,0.967,0.9429,0.827,0.7892,0.7445,0.5885,0.5476,0.5049,0.352,0.0,0.2884,0.2126,0.0,0.0,0.0,0.0,0.0,0.0,0.2011,0.2014,0.2034,0.1989,0.2008,0.2157,0.2113,0.2091,0.2143,0.2136,0.2121,0.2104,0.2135,0.2147,0.2129,0.2146,0.2161,0.2173,0.2174,0.2188,0.2219,0.2249,0.2415,0.2861,0.3043,0.3354,0.3791,0.4226,0.4417,0.4494,0.4643,0.4861,0.4973,0.4973,0.4992,0.5022,0.5022,0.5022,0.5022,0.5022,0.5036,0.5074,0.8893,0.0,0.0,0.8872,0.894,0.9096,0.9401,0.972,0.9903,0.0,0.0,0.0,1.01,0.9903,0.0,0.0,0.9401,0.9205,0.0,0.0,0.8811,0.0,0.0,0.0,0.0,0.0,0.7002,0.6103,0.5917,0.5906,0.0,0.0,0.0,0.0,0.7177,0.7444,0.8137,0.7967,0.7867,0.7725,0.7955,0.8357,0.9028,0.9517,0.9842,1.0053,1.01,1.0209,1.031,1.0002,1.033,0.0,0.9976,1.024,1.0833,1.0444,1.0451,1.0472,0.9734,0.9442,0.8967,0.7417,0.6891,0.637,0.4893,0.0,0.0,0.2768,0.2644,0.0,0.0,0.0,0.2003,0.2007,0.0,0.1977,0.2003,0.1932,0.194,0.2109,0.2125,0.2119,0.211,0.2109,0.2097,0.2067,0.2097,0.2108,0.2086,0.2113,0.2133,0.2142,0.215,0.2165,0.2188,0.2218,0.2388,0.2703,0.2883,0.3052,0.3354,0.3789,0.3962,0.4013,0.431,0.4525,0.4781,0.4781,0.4815,0.5022,0.5022,0.5022,0.5022,0.5022,0.5022,0.5036,0.894,0.8818,0.0,0.0,0.8954,0.9252,0.9557,0.9612,0.0,0.0,0.0,0.0,0.0,0.0,0.0,0.0,0.0,0.934,0.9774,0.0,0.9137,0.0,0.0,0.9157,0.0,0.0,0.8749,0.8602,0.8448,0.8441,0.8582,0.0,0.0,0.0,0.775,0.8022,0.9466,0.9279,0.9483,0.9861,0.9587,0.9849,1.0161,0.9605,0.9666,1.0066,1.0222,1.0365,1.0507,1.0254,1.0264,0.0,0.0,0.0,1.0225,1.0341,1.0551,1.0785,1.107,0.0,1.0835,0.9198,0.0,0.0,0.0,0.0,0.5755,0.429,0.412,0.3924,0.2325,0.2061,0.0,0.0,0.2023,0.0,0.0,0.1974,0.1996,0.206,0.2119,0.2142,0.2112,0.2109,0.2097,0.2067,0.2038,0.2022,0.2022,0.205,0.208,0.211,0.2139,0.2155,0.2157,0.2187,0.2217,0.2247,0.2703,0.2881,0.2917,0.3354,0.3527,0.3569,0.3569,0.3922,0.4473,0.4473,0.4657,0.5022,0.5022,0.5022,0.5022,0.5022,0.5022,0.503,0.9083,0.0,0.0,0.0,0.8947,0.911,0.9415,0.9707,0.0,0.0,0.0,0.0,0.0,0.9519,0.9583,0.0,0.0,0.9566,0.9964,0.9551,0.0,0.0,0.0,0.9361,0.0,0.0,0.0,0.0,0.0,0.8757,0.8716,0.8465,0.8771,0.93,0.8787,0.9013,0.9612,0.9707,0.9808,0.9917,0.9863,0.996,1.0149,1.0109,1.0149,1.0097,1.0052,1.0,0.0,0.9908,1.0015,0.9968,0.9698,0.9918,1.0172,1.0034,1.009,1.0353,0.0,0.0,1.0639,0.9949,0.0,0.0,0.0,0.0,0.7394,0.5886,0.5792,0.5919,0.5304,0.4336,0.3637,0.0,0.2667,0.2014,0.0,0.1947,0.1954,0.1974,0.2029,0.206,0.205,0.2033,0.2008,0.1978,0.1966,0.196,0.196,0.2026,0.2068,0.2079,0.2128,0.2155,0.2155,0.2185,0.2215,0.2245,0.2417,0.2449,0.2478,0.2917,0.307,0.3082,0.3378,0.3707,0.3918,0.3795,0.3988,0.419,0.4224,0.4395,0.4709,0.4865,0.5022,0.5025,0.9225,0.915,0.9062,0.9022,0.9015,0.9096,0.9347,0.0,0.0,0.0,0.9589,0.0,0.9514,0.0,0.9435,0.0,0.9525,0.9551,0.9876,0.9612,0.0,0.9958,0.9741,0.0,0.0,0.0,0.0,0.0,0.0,0.915,0.911,0.9245,0.9422,0.9618,0.9618,0.9646,0.9707,0.9935,0.9995,0.9777,0.9933,1.0002,0.9996,1.027,1.027,0.9977,0.0,0.9852,0.9661,0.9528,0.9576,0.9618,0.918,0.9436,0.9733,0.9522,0.9612,0.9918,1.0054,1.0289,0.0,1.047,1.0511,0.0,0.927,0.0,0.8898,0.7505,0.7449,0.7626,0.7044,0.5964,0.5049,0.4583,0.3472,0.2637,0.0,0.1922,0.1919,0.1929,0.1982,0.2015,0.2004,0.1988,0.1964,0.1933,0.1911,0.1909,0.193,0.1986,0.2026,0.2048,0.2106,0.2144,0.2155,0.2174,0.2204,0.2245,0.2266,0.2294,0.2333,0.2624,0.2624,0.277,0.2917,0.3233,0.3423,0.3464,0.3507,0.3704,0.3749,0.3925,0.4241,0.4709,0.4865,0.5022,0.9354,0.9157,0.9015,0.9144,0.9164,0.9218,0.9367,0.9411,0.9561,0.0,0.9422,0.9514,0.9649,0.9413,0.9383,0.9649,0.9539,0.954,0.9659,0.964,0.0,0.0,0.9861,0.9674,0.9218,0.0,0.0,0.0,0.0,0.9707,0.9822,0.97,0.9781,1.0039,0.9935,0.9861,0.9747,0.994,0.9922,0.9736,0.9991,0.9962,0.9769,1.001,0.9944,0.9709,0.971,0.9661,0.9528,0.925,0.9117,0.8984,0.8717,0.8851,0.9094,0.8978,0.93,0.9661,1.006,1.0283,1.0354,1.0632,1.0585,0.0,0.0,0.0,1.0535,0.0,0.9082,0.8997,0.7666,0.7165,0.6401,0.5104,0.4449,0.3673,0.2064,0.1907,0.1902,0.193,0.1982,0.2005,0.1977,0.1975,0.1962,0.1926,0.1873,0.1865,0.1917,0.1928,0.1958,0.2012,0.2076,0.2124,0.2154,0.2155,0.2184,0.2244,0.2245,0.2275,0.2331,0.2333,0.2333,0.2333,0.2333,0.2496,0.2973,0.3014,0.3355,0.3702,0.3749,0.3768,0.3768,0.4241,0.4552,0.4863,0.9395,0.9415,0.9415,0.9334,0.932,0.9374,0.953,0.9562,0.0,0.0,0.9181,0.9094,0.8851,0.8828,0.895,0.925,0.9221,0.0,0.0,0.0,0.0,0.9557,0.9488,0.9387,0.9243,0.9555,0.0,0.9457,0.0,1.0012,0.9822,1.0019,1.0025,0.9897,0.9976,0.9914,0.9684,0.9845,0.998,1.0009,0.9805,0.9765,0.9706,0.9354,0.9153,0.9148,0.9203,0.9123,0.8856,0.8717,0.8717,0.8717,0.8584,0.8723,0.8712,0.8684,0.8828,0.8856,0.8989,0.9273,0.9448,0.9648,0.9921,1.0169,0.0,0.0,0.0,0.0,0.0,0.0,0.0,0.0,0.0,0.7549,0.5489,0.346,0.2058,0.1944,0.1956,0.1964,0.1978,0.1975,0.1945,0.1963,0.1936,0.1838,0.1857,0.1842,0.1767,0.1891,0.1962,0.1954,0.2054,0.2124,0.2154,0.2155,0.2174,0.2211,0.2234,0.2264,0.2303,0.2323,0.2333,0.2333,0.2333,0.2337,0.2496,0.2552,0.258,0.2745,0.2805,0.2983,0.3297,0.3768,0.4081,0.4081,0.9341,0.9287,0.92,0.9116,0.9155,0.932,0.946,0.9405,0.0,0.9074,0.9001,0.0,0.859,0.859,0.8717,0.8851,0.8851,0.0,0.9312,0.0,0.0,0.9459,0.938,0.9313,0.9252,0.9317,0.0,0.9458,0.0,0.9968,0.9924,0.9975,0.9837,0.9691,0.9748,0.955,0.945,0.9401,0.9461,0.9608,0.9393,0.9277,0.0,0.9043,0.8823,0.8774,0.8901,0.8717,0.859,0.859,0.859,0.859,0.859,0.859,0.859,0.859,0.859,0.86,0.8784,0.9069,0.9232,0.9496,0.9826,1.0002,1.0084,1.0438,1.0763,0.0,1.102,1.1287,0.0,0.0,0.9472,0.8497,0.5922,0.3681,0.2923,0.232,0.1962,0.1975,0.1988,0.1978,0.1936,0.1947,0.1917,0.1821,0.187,0.1881,0.1825,0.1921,0.1981,0.1989,0.208,0.2138,0.2155,0.2181,0.2196,0.22,0.223,0.2262,0.2292,0.232,0.2333,0.2333,0.2333,0.2333,0.2338,0.2398,0.2424,0.2429,0.2491,0.2671,0.2826,0.314,0.3456,0.3768,0.922,0.9014,0.8897,0.8885,0.8871,0.905,0.9192,0.9016,0.0,0.8926,0.0,0.8606,0.859,0.859,0.859,0.859,0.0,0.8679,0.8836,0.8927,0.9071,0.9222,0.9347,0.9293,0.9178,0.9052,0.905,0.0,0.0,0.9699,0.9928,0.9699,0.9574,0.9561,0.9336,0.91,0.8902,0.8903,0.8935,0.8948,0.8932,0.8872,0.8802,0.8878,0.8774,0.859,0.859,0.859,0.859,0.859,0.859,0.859,0.859,0.859,0.859,0.8606,0.8611,0.8773,0.9166,0.92,0.9365,0.9751,0.992,0.9914,1.0034,1.0304,1.0612,1.0722,1.0922,1.1145,1.128,0.0,1.0372,0.8537,0.6256,0.4416,0.4169,0.3022,0.2289,0.2218,0.2247,0.0,0.1941,0.1944,0.1918,0.1846,0.1904,0.1941,0.1941,0.196,0.199,0.2033,0.2101,0.2144,0.2161,0.2208,0.2223,0.2206,0.2233,0.2259,0.2286,0.2318,0.2333,0.2333,0.2333,0.2333,0.2338,0.2398,0.2428,0.244,0.2493,0.2514,0.2514,0.2514,0.2985,0.3611,0.9013,0.9105,0.9148,0.9038,0.8878,0.8736,0.8951,0.8967,0.903,0.8949,0.8867,0.8698,0.86,0.859,0.859,0.859,0.859,0.0,0.0,0.0,0.0,0.869,0.869,0.8679,0.8657,0.8802,0.9115,0.0,0.0,0.0,0.9686,0.9418,0.9286,0.9068,0.9056,0.8819,0.864,0.8889,0.8894,0.8943,0.8845,0.8851,0.8899,0.872,0.8628,0.859,0.859,0.859,0.859,0.859,0.859,0.859,0.859,0.859,0.8606,0.8709,0.8736,0.8764,0.8889,0.8916,0.8927,0.9082,0.9365,0.9613,0.9775,1.0166,1.0554,1.0725,1.0812,1.0806,1.0833,0.0,0.0,0.8525,0.7567,0.0,0.0,0.489,0.4171,0.3552,0.346,0.3088,0.2093,0.2012,0.1985,0.185,0.1941,0.193,0.1761,0.187,0.1921,0.1881,0.1985,0.209,0.2191,0.2177,0.2193,0.2237,0.2243,0.2248,0.2255,0.2308,0.2333,0.2333,0.2333,0.2333,0.2338,0.2398,0.2453,0.2499,0.251,0.2514,0.2514,0.2514,0.2671,0.2671,0.8938,0.8892,0.8845,0.8851,0.8768,0.8699,0.8761,0.8873,0.8912,0.8783,0.8684,0.859,0.859,0.859,0.859,0.859,0.859,0.859,0.859,0.859,0.859,0.859,0.859,0.859,0.859,0.8607,0.8807,0.9193,0.0,0.0,0.0,0.8925,0.8765,0.8711,0.846,0.843,0.859,0.8584,0.8649,0.8758,0.8698,0.8709,0.8747,0.8633,0.859,0.8595,0.866,0.8682,0.8671,0.8606,0.859,0.86,0.866,0.8682,0.8709,0.8829,0.8818,0.8796,0.8916,0.8905,0.8872,0.8938,0.9137,0.931,0.9388,0.9793,1.0034,1.0302,1.0489,1.0551,1.0738,1.0656,0.0,0.0,0.0,0.0,0.0,0.6072,0.5155,0.4794,0.4787,0.4564,0.3858,0.3387,0.2759,0.1874,0.196,0.1954,0.1806,0.1883,0.1925,0.1911,0.1996,0.2078,0.2153,0.2185,0.22,0.2199,0.2214,0.223,0.2247,0.229,0.2319,0.2333,0.2333,0.2333,0.2338,0.2398,0.2459,0.2514,0.2514,0.2514,0.2514,0.2514,0.2514,0.2514,0.8855,0.8622,0.8541,0.8579,0.8633,0.8666,0.8666,0.8747,0.8764,0.8644,0.8524,0.8486,0.8579,0.859,0.859,0.859,0.859,0.859,0.859,0.859,0.859,0.859,0.859,0.859,0.859,0.8475,0.8535,0.0,0.0,0.0,0.0,0.847,0.8312,0.829,0.8088,0.8171,0.8465,0.8329,0.8383,0.8557,0.8606,0.8628,0.8628,0.8628,0.8628,0.8633,0.8704,0.8731,0.872,0.8649,0.8628,0.8644,0.8742,0.8753,0.8753,0.8878,0.8845,0.8796,0.8916,0.8883,0.8834,0.8927,0.9024,0.9095,0.9095,0.9377,0.9771,0.9938,1.0228,1.0502,1.0618,1.0649,0.0,0.0,0.0,0.0,0.0,0.723,0.6201,0.5839,0.603,0.5943,0.5454,0.4774,0.3844,0.2343,0.2058,0.1947,0.187,0.1895,0.1922,0.1947,0.2023,0.2084,0.2128,0.2193,0.2208,0.2174,0.2192,0.2217,0.2247,0.2277,0.2307,0.2333,0.2333,0.2339,0.2356,0.2403,0.2459,0.2514,0.2514,0.2514,0.2514,0.2514,0.2514,0.2514,0.8622,0.8764,0.8834,0.8622,0.8769,0.8916,0.8916,0.8927,0.8894,0.8769,0.8644,0.8579,0.8584,0.859,0.859,0.859,0.859,0.859,0.859,0.859,0.859,0.859,0.859,0.859,0.859,0.8475,0.8491,0.0,0.0,0.8357,0.0,0.8232,0.8144,0.8171,0.8269,0.8269,0.0,0.8318,0.8416,0.8454,0.8666,0.8753,0.8753,0.8753,0.8753,0.8742,0.8638,0.8606,0.8622,0.872,0.8753,0.8753,0.8764,0.8693,0.8628,0.8753,0.878,0.8796,0.8916,0.8943,0.8938,0.8948,0.8959,0.897,0.9382,0.9521,0.966,0.992,1.0228,1.0361,1.0219,1.0558,1.0812,0.0,0.0,0.0,0.0,0.0,0.7967,0.7188,0.6914,0.6389,0.4958,0.5129,0.4746,0.3165,0.2295,0.1842,0.1805,0.1832,0.185,0.1853,0.199,0.2105,0.2191,0.2173,0.2188,0.2237,0.2211,0.2217,0.2247,0.2277,0.2307,0.2333,0.2333,0.2364,0.2416,0.2421,0.2459,0.2514,0.2514,0.2514,0.2514,0.2514,0.2514,0.2514,0.8927,0.8938,0.8943,0.8921,0.8938,0.8976,0.9052,0.9063,0.9046,0.8997,0.8883,0.8807,0.8807,0.8807,0.8807,0.8807,0.8807,0.8807,0.8807,0.8807,0.8807,0.8807,0.8807,0.8774,0.8698,0.8655,0.8701,0.0,0.0,0.0,0.0,0.0,0.81,0.8057,0.0,0.8155,0.8274,0.8296,0.835,0.8432,0.8595,0.866,0.8671,0.8742,0.8769,0.8785,0.8883,0.8916,0.8932,0.9052,0.8948,0.8796,0.8943,0.8954,0.8938,0.9057,0.8992,0.8889,0.8938,0.8845,0.8731,0.8731,0.8785,0.884,0.8982,0.9232,0.9321,0.966,0.9811,0.9974,0.9918,1.0296,1.0505,1.0386,0.0,0.0,0.0,0.9395,0.8903,0.8678,0.853,0.8142,0.732,0.7041,0.6593,0.5771,0.3943,0.2663,0.1824,0.18,0.182,0.1892,0.1936,0.2018,0.2144,0.2151,0.2166,0.2191,0.2198,0.2217,0.2247,0.2277,0.2307,0.2333,0.2333,0.2367,0.2424,0.2424,0.2459,0.2514,0.2514,0.2514,0.2514,0.2514,0.2514,0.2514,0.9144,0.909,0.9073,0.9122,0.909,0.9084,0.9171,0.9182,0.9182,0.9182,0.9139,0.9068,0.8965,0.8954,0.8954,0.8954,0.8954,0.8954,0.8954,0.8954,0.8954,0.8954,0.8954,0.0,0.8774,0.8769,0.8693,0.8535,0.8568,0.0,0.0,0.0,0.0,0.0,0.8057,0.8155,0.8361,0.8312,0.8378,0.853,0.8649,0.8715,0.8758,0.8845,0.8878,0.8899,0.9073,0.9133,0.9155,0.9307,0.9188,0.8997,0.9101,0.9111,0.9095,0.9177,0.9084,0.8954,0.8954,0.8823,0.8687,0.8649,0.8704,0.8769,0.8769,0.8905,0.9003,0.9192,0.9508,0.9703,0.9661,0.985,1.006,1.006,0.0,0.0,0.0,0.9473,0.9084,0.9503,0.9327,0.9049,0.871,0.8406,0.7874,0.7102,0.5585,0.4137,0.2985,0.2919,0.2725,0.2391,0.2413,0.2371,0.2121,0.2144,0.2155,0.2155,0.2185,0.2217,0.2247,0.2286,0.2313,0.2333,0.2333,0.2367,0.2424,0.2424,0.2459,0.2514,0.2514,0.2514,0.2514,0.2514,0.2514,0.2514,0.9155,0.9226,0.9264,0.9155,0.9226,0.9302,0.9302,0.9302,0.9302,0.9302,0.9405,0.9345,0.8992,0.8954,0.8954,0.8954,0.8954,0.8954,0.8954,0.8954,0.8954,0.8954,0.8954,0.8894,0.8774,0.8769,0.8655,0.8421,0.0,0.0,0.8242,0.0,0.835,0.8236,0.8356,0.8345,0.8247,0.8367,0.8552,0.878,0.8899,0.9019,0.9128,0.9128,0.9128,0.9128,0.9133,0.9133,0.9171,0.9405,0.9481,0.9438,0.9209,0.9052,0.8954,0.8954,0.8954,0.8954,0.8954,0.8948,0.8916,0.8796,0.8769,0.8769,0.8769,0.8774,0.8774,0.8774,0.9041,0.9273,0.914,0.9389,0.9661,0.9661,0.0,0.0,0.0,0.8902,0.8706,0.9347,0.8988,0.854,0.8092,0.8594,0.8157,0.6486,0.6669,0.6528,0.5602,0.561,0.0,0.3526,0.3616,0.0,0.2154,0.2154,0.2155,0.2155,0.2185,0.2217,0.2248,0.2305,0.2333,0.2333,0.2333,0.2367,0.2424,0.2424,0.2459,0.2514,0.2514,0.2514,0.2514,0.2514,0.2514,0.2514,0.9144,0.9226,0.9291,0.9258,0.9351,0.9427,0.9427,0.9497,0.9552,0.9552,0.9584,0.9568,0.9454,0.9443,0.9443,0.9443,0.9443,0.9405,0.9323,0.9318,0.928,0.9193,0.9193,0.9139,0.9019,0.9019,0.8943,0.878,0.0,0.0,0.0,0.9395,0.9606,0.9786,1.0154,1.029,1.0213,0.9811,0.9781,0.9724,0.9286,0.945,0.9989,1.0078,1.0054,1.0007,1.0035,0.9809,0.94,0.9557,0.9612,0.9595,0.9525,0.947,0.9443,0.9443,0.9383,0.9318,0.9318,0.9258,0.9166,0.9046,0.9019,0.8976,0.8807,0.8769,0.8796,0.8878,0.8966,0.8894,0.8855,0.9046,0.9256,0.9256,0.9299,0.0,0.9255,0.8939,0.8778,0.9201,0.8985,0.8709,0.8414,0.8817,0.8729,0.8145,0.8501,0.7732,0.5418,0.5406,0.0,0.0,0.5186,0.4859,0.3629,0.3631,0.3094,0.2155,0.2207,0.2258,0.2305,0.2324,0.2333,0.2334,0.2354,0.2387,0.2425,0.2446,0.2478,0.2514,0.2514,0.2514,0.2514,0.2514,0.2514,0.2514,0.9258,0.9323,0.9389,0.9432,0.9503,0.9557,0.9557,0.9622,0.9671,0.9671,0.9704,0.9731,0.9731,0.9775,0.0,0.9677,0.9671,0.9639,0.9563,0.9557,0.9525,0.9443,0.9443,0.9389,0.9269,0.9269,0.0,0.9084,0.94,0.9829,1.0206,1.0295,1.0515,1.0884,1.1077,1.0967,1.0835,1.0448,1.0248,1.0339,0.9798,1.0078,1.0773,1.0855,1.0868,1.0875,1.1097,1.0915,1.0679,1.1409,1.1566,1.1528,1.1521,1.1333,1.0853,0.9966,0.9617,0.9557,0.9557,0.9497,0.9416,0.9296,0.9269,0.9204,0.8965,0.8834,0.8791,0.8867,0.8785,0.8704,0.8704,0.8773,0.8851,0.8851,0.8909,0.8875,0.9026,0.8747,0.872,0.9026,0.8841,0.8689,0.837,0.8615,0.873,0.8587,0.901,0.8537,0.672,0.7018,0.699,0.6332,0.669,0.6268,0.5098,0.5101,0.4445,0.2984,0.2512,0.2288,0.2333,0.2333,0.2333,0.2334,0.2365,0.2395,0.2425,0.2457,0.2487,0.2514,0.2514,0.2514,0.2514,0.2514,0.2514,0.2514,0.9476,0.9497,0.9536,0.965,0.9677,0.9682,0.9682,0.9688,0.9693,0.9693,0.9786,0.9851,0.9851,0.9949,0.9932,0.9715,0.0,0.9693,0.9682,0.9671,0.9666,0.9655,0.965,0.959,0.9476,0.9476,0.9562,0.9446,1.0042,1.076,1.1317,1.1317,1.1317,1.1317,1.1324,1.1134,1.0555,1.0442,1.0395,1.0618,1.0519,1.0973,1.1791,1.1791,1.188,1.2017,1.2168,1.2319,1.2761,1.4412,1.4822,1.4692,1.4667,1.3948,1.2784,1.041,0.9671,0.9671,0.9671,0.9677,0.965,0.9519,0.9476,0.9405,0.9188,0.8954,0.878,0.8774,0.8677,0.8595,0.859,0.859,0.8584,0.8579,0.8399,0.8463,0.8938,0.8477,0.832,0.8919,0.8732,0.0,0.7841,0.813,0.8262,0.8068,0.8633,0.8941,0.8917,0.9693,0.9316,0.7703,0.8046,0.7692,0.6564,0.6564,0.5811,0.4398,0.3107,0.2449,0.2478,0.2333,0.2333,0.2334,0.2367,0.2398,0.2425,0.2459,0.2489,0.2514,0.2514,0.2514,0.2514,0.2514,0.2514,0.2514,0.9622,0.9628,0.9633,0.9666,0.9742,0.9796,0.9796,0.9878,0.9938,0.9938,0.996,0.9976,0.9976,1.0003,0.9998,0.9943,0.9938,0.99,0.9802,0.9715,0.9628,0.9536,0.9438,0.9378,0.9345,0.9925,1.0486,1.1025,1.1166,1.1502,1.2175,1.2168,1.2594,1.3021,1.3154,1.3231,1.3001,1.2641,1.2472,1.255,1.2162,1.234,1.3013,1.3013,1.2962,1.3059,1.3071,1.3824,1.4557,1.475,1.5888,1.6708,1.5353,1.467,1.3983,1.1364,1.0116,0.9671,0.9671,0.9731,0.9748,0.9541,0.9351,0.9204,0.915,0.9019,0.8883,0.8791,0.8747,0.8698,0.8606,0.859,0.8557,0.847,0.8486,0.8459,0.8469,0.848,0.8458,0.8336,0.8481,0.8307,0.8043,0.8078,0.8195,0.0,0.8883,0.9142,0.9297,1.0042,1.0069,0.9297,0.9697,0.9341,0.8035,0.8041,0.7463,0.6121,0.4673,0.4025,0.4075,0.2914,0.2333,0.2335,0.239,0.2417,0.2428,0.2481,0.2507,0.2514,0.2514,0.2514,0.2514,0.2514,0.2514,0.2514,0.9737,0.9748,1.0067,1.0878,1.0944,1.1293,1.2053,1.2126,1.2172,1.2172,1.2172,1.2172,1.2172,1.2172,1.2326,1.2776,1.1095,0.9992,0.9927,0.9862,0.9802,0.9731,0.9966,1.0225,1.0225,1.0971,1.1831,1.25,1.2415,1.2772,1.3426,1.3418,1.3562,1.401,1.4099,1.4043,1.3683,1.3348,1.329,1.3364,1.3991,1.4613,1.5286,1.6126,1.6596,1.6587,1.6706,1.7167,1.7798,1.8404,1.9336,1.9796,1.8897,1.7663,1.6117,1.3829,1.2196,1.0896,1.0591,1.0445,1.0252,0.9766,0.9432,0.9296,0.9296,0.916,0.9019,0.8948,0.8845,0.8753,0.8682,0.8628,0.8552,0.8437,0.8513,0.8503,0.8269,0.8394,0.8421,0.8182,0.8263,0.8187,0.8055,0.8122,0.8267,0.8389,0.8793,0.915,0.943,1.0012,1.0297,1.0046,1.0399,1.0234,0.951,0.8957,0.8417,0.7748,0.6429,0.5774,0.567,0.4075,0.3362,0.3384,0.2702,0.2432,0.2448,0.2495,0.2514,0.2514,0.2514,0.2514,0.2514,0.2514,0.2514,0.2514,1.0896,1.092,1.1415,1.2762,1.3091,1.3553,1.4935,1.5089,1.5089,1.5242,1.5259,1.5283,1.5283,1.53,1.5624,1.6374,1.3303,1.1131,1.1095,1.1071,1.1059,1.1059,1.1509,1.1811,1.1811,1.258,1.3428,1.4342,1.4374,1.4761,1.5206,1.491,1.491,1.4761,1.4588,1.4066,1.3597,1.3798,1.3995,1.4279,1.5949,1.7161,1.7931,1.9446,2.0233,2.0255,2.0255,2.0561,2.1234,2.2591,2.3084,2.3076,2.2712,2.1037,1.8787,1.7152,1.5184,1.3007,1.1837,1.1268,1.0854,1.0167,0.9739,0.9487,0.9487,0.9318,0.9155,0.9139,0.897,0.8812,0.878,0.8687,0.8579,0.8459,0.8557,0.8552,0.8296,0.8383,0.8372,0.8111,0.8171,0.8155,0.7948,0.8095,0.8265,0.8346,0.8591,0.9062,0.9406,0.9844,1.0058,1.023,1.0588,1.0731,1.0751,0.9674,0.9293,0.9394,0.8079,0.7404,0.7259,0.5825,0.5137,0.5046,0.3468,0.275,0.2933,0.2658,0.2514,0.2514,0.2514,0.2514,0.2514,0.2514,0.2514,0.2514,1.6063,1.6072,1.608,1.5675,1.5531,1.5684,1.5837,1.5837,1.6133,1.6876,1.7186,1.7288,1.7288,1.7592,1.7695,1.7851,1.7226,1.6769,1.6133,1.6108,1.6019,1.6011,1.4836,1.4019,1.4019,1.477,1.6232,1.8404,1.8611,1.8842,1.8811,1.7466,1.6871,1.6722,1.5083,1.43,1.434,1.6108,1.7009,1.7056,1.8897,1.959,1.9732,1.9876,1.9833,1.9865,1.9865,2.0928,2.2341,2.2416,2.338,2.4423,2.2805,2.2229,2.1732,2.0048,1.8523,1.6511,1.3,1.1508,1.0914,1.0854,1.0243,0.9487,0.9487,0.9378,0.9253,0.9155,0.9106,0.9014,0.8807,0.8753,0.8704,0.8579,0.8747,0.8774,0.8437,0.8579,0.859,0.8247,0.8225,0.822,0.8182,0.8122,0.8155,0.8323,0.8447,0.873,0.9144,0.9377,0.9652,0.9732,1.0432,1.0778,1.0914,1.0928,1.094,1.0966,0.9666,0.8997,0.8858,0.7491,0.6798,0.6674,0.5316,0.4609,0.4468,0.3125,0.2514,0.2514,0.2514,0.2514,0.2514,0.2514,0.2514,0.2514,1.7322,1.7322,1.7483,1.7957,1.8118,1.8461,1.9506,1.9679,1.9874,2.0298,2.0572,2.0637,2.0637,2.0736,2.0957,2.1423,2.1423,2.1476,2.1696,1.9264,1.7664,1.7664,1.7435,1.7398,1.7864,1.8177,1.8936,2.0005,2.0125,2.0179,2.0179,1.9416,1.9039,1.8764,1.7908,1.751,1.7423,1.8491,1.8927,1.9111,2.1167,2.1946,2.2102,2.3068,2.3389,2.3389,2.3389,2.394,2.4662,2.4521,2.5035,2.5604,2.4688,2.3841,2.3019,2.2093,1.9709,1.664,1.3763,1.2388,1.1717,1.1704,1.1008,1.0179,1.0179,0.9781,0.9389,0.9334,0.9226,0.9079,0.8899,0.8812,0.8753,0.8698,0.8725,0.8677,0.8448,0.8513,0.8492,0.8263,0.8291,0.8356,0.8416,0.8372,0.8388,0.8503,0.8535,0.8671,0.9105,0.9262,0.943,0.9759,1.0296,1.0677,1.1185,1.1321,1.1436,1.1518,1.0855,1.0637,1.0559,0.915,0.8498,0.8459,0.7037,0.633,0.6213,0.5474,0.5173,0.5173,0.4234,0.3922,0.3766,0.2828,0.2514,0.2514,1.9067,1.9077,1.9552,2.0698,2.0872,2.1406,2.2858,2.3047,2.3273,2.3637,2.3723,2.3761,2.3761,2.381,2.4158,2.4778,2.4778,2.5101,2.5718,2.2206,2.0095,1.9834,2.0104,2.0414,2.1212,2.1156,2.1277,2.1597,2.1654,2.1677,2.1677,2.1212,2.099,2.0857,2.0342,2.0091,1.9994,2.0682,2.0946,2.1134,2.3237,2.4046,2.4215,2.5649,2.6186,2.6186,2.6186,2.6186,2.6186,2.6186,2.6186,2.6186,2.6186,2.527,2.3996,2.3798,2.1079,1.7601,1.5341,1.3946,1.3051,1.2634,1.1828,1.1208,1.1208,1.0655,1.011,0.9787,0.963,0.9314,0.9019,0.8916,0.8845,0.8818,0.0,0.8611,0.8443,0.8465,0.8432,0.8258,0.8367,0.8492,0.8579,0.859,0.86,0.8628,0.8628,0.8778,0.9069,0.9166,0.9371,0.9811,1.0085,1.0599,1.1107,1.1281,1.1362,1.1476,1.1653,1.1728,1.183,1.0718,1.026,1.0287,0.8784,0.807,0.7981,0.7669,0.7513,0.7357,0.6108,0.5639,0.5483,0.4079,0.3611,0.3611,2.4521,2.4573,2.4363,2.401,2.3907,2.4061,2.4086,2.4252,2.4406,2.5198,2.5591,2.5763,2.5763,2.6002,2.6162,2.6162,2.6319,2.6319,2.6319,2.6004,2.5596,2.5058,2.3389,2.2493,2.2493,2.2253,2.2881,2.4245,2.422,2.435,2.4803,2.2809,2.2319,2.2817,2.1033,2.0429,2.079,2.2443,2.3188,2.3345,2.514,2.579,2.5763,2.5678,2.5585,2.5585,2.5585,2.5585,2.5585,2.5585,2.5585,2.5585,2.5585,2.5745,2.579,2.5777,2.4478,2.2073,1.8172,1.6465,1.5531,1.4007,1.2824,1.2257,1.2257,1.1992,1.1696,1.0829,1.0645,1.0262,0.9303,0.9111,0.9068,0.8959,0.0,0.8807,0.8465,0.8606,0.8617,0.8274,0.8437,0.8579,0.8584,0.859,0.8633,0.8747,0.8758,0.8807,0.8921,0.8932,0.9131,0.9665,1.0094,1.0242,1.026,1.0817,1.1031,1.1044,1.161,1.1823,1.1843,1.1978,1.2112,1.1987,1.0412,0.9842,0.9698,0.8136,0.7513,0.7513,0.7357,0.7357,0.7357,0.7201,0.7205,0.7213,2.5331,2.5344,2.5232,2.5032,2.5045,2.5111,2.5295,2.5321,2.5542,2.6039,2.6159,2.6226,2.6226,2.6319,2.6386,2.6386,2.6386,2.6386,2.6386,2.6386,2.6293,2.6066,2.5322,2.4946,2.4946,2.483,2.5088,2.5718,2.5684,2.5737,2.5892,2.5101,2.4751,2.483,2.4095,2.3699,2.3816,2.4713,2.4997,2.5166,2.5989,2.6226,2.6213,2.6092,2.6052,2.6052,2.6052,2.6052,2.6052,2.6052,2.6052,2.6052,2.6052,2.6132,2.6186,2.6012,2.5347,2.4187,2.1562,1.906,1.697,1.6353,1.4684,1.318,1.318,1.2754,1.2169,1.1815,1.1288,1.0706,1.0,0.9523,0.9226,0.9177,0.0,0.8867,0.8954,0.8851,0.8747,0.8687,0.8758,0.8812,0.8812,0.8812,0.8834,0.8878,0.8883,0.8905,0.8948,0.9024,0.9117,0.938,0.9523,0.9953,1.0674,1.0875,1.1227,1.1458,1.1657,1.1932,1.2121,1.2237,1.2338,1.2427,1.1856,1.1566,1.1566,1.0785,1.063,1.0474,0.9387,0.9071,0.8915,0.7825,0.755,0.7599,2.5638,2.5651,2.5678,2.5772,2.5785,2.5852,2.6066,2.6092,2.6159,2.636,2.6386,2.6386,2.6386,2.6386,2.6386,2.6386,2.6386,2.6386,2.6386,2.6228,2.6228,2.6386,2.6306,2.6253,2.6253,2.6159,2.6119,2.6119,2.5962,2.5962,2.6119,2.5962,2.5896,2.5959,2.5959,2.5892,2.5798,2.5999,2.6092,2.6106,2.6306,2.6386,2.6386,2.6386,2.6386,2.6386,2.6386,2.6386,2.6386,2.6386,2.6386,2.6386,2.6386,2.6386,2.6346,2.6146,2.5945,2.5476,2.4364,2.1969,1.9284,1.8125,1.6414,1.4895,1.4284,1.3685,1.3094,1.274,1.2196,1.1606,1.1059,1.0292,0.9831,0.9752,0.9236,0.8997,0.9171,0.8981,0.8856,0.8943,0.8954,0.8954,0.8954,0.8954,0.8965,0.9008,0.9008,0.9024,0.9063,0.9144,0.9242,0.9356,0.9362,0.982,1.0736,1.0692,1.1034,1.1462,1.1656,1.1938,1.2291,1.2338,1.2413,1.2501,1.2501,1.2501,1.2501,1.2501,1.2501,1.2347,1.125,1.0785,1.0635,0.9578,0.9169,0.9238,2.5905,2.5959,2.6052,2.6333,2.6386,2.6386,2.6386,2.6386,2.6386,2.6386,2.6386,2.6386,2.6386,2.6386,2.6386,2.6386,2.6386,2.6386,2.6386,2.607,2.5911,2.6386,2.6119,2.5959,2.5959,2.5665,2.5518,2.5518,2.5058,2.5058,2.5518,2.5058,2.537,2.5959,2.5959,2.6119,2.6386,2.6386,2.6386,2.6386,2.64,2.64,2.64,2.64,2.64,2.64,2.64,2.64,2.64,2.64,2.64,2.64,2.6386,2.6386,2.6386,2.6386,2.6386,2.6386,2.6386,2.5046,2.2706,1.9006,1.8017,1.7399,1.5549,1.5098,1.4766,1.3832,1.365,1.3288,1.2373,1.1457,1.0779,1.0504,0.9885,0.9226,0.8992,0.8959,0.8959,0.8959,0.8954,0.8954,0.8954,0.8954,0.9008,0.9128,0.9139,0.9188,0.9302,0.9307,0.9362,0.9487,0.9487,0.9695,1.0116,1.0139,1.0435,1.0871,1.146,1.1835,1.2298,1.244,1.2501,1.2501,1.2501,1.2501,1.2501,1.2501,1.2501,1.2501,1.2501,1.2501,1.2522,1.2671,1.2732,1.2773,2.5924,2.6109,2.6293,2.6373,2.6228,2.5911,2.5911,2.5911,2.5911,2.5911,2.5911,2.5911,2.5911,2.5911,2.5911,2.5911,2.6228,2.6228,2.607,2.5594,2.5289,2.5448,2.5674,2.578,2.578,2.5701,2.5649,2.5649,2.5649,2.5819,2.6132,2.5962,2.6016,2.6266,2.6266,2.6306,2.64,2.66,2.6694,2.6707,2.6921,2.7001,2.7001,2.7001,2.7001,2.7001,2.7001,2.7001,2.7001,2.7001,2.7001,2.6974,2.676,2.6694,2.6653,2.6453,2.6386,2.6386,2.6386,2.6004,2.4901,2.256,2.09,1.9325,1.7604,1.7144,1.6525,1.509,1.4207,1.3617,1.3144,1.2059,1.0944,1.0773,1.015,0.9536,0.9465,0.9454,0.9454,0.9454,0.9378,0.9329,0.9329,0.9329,0.934,0.9378,0.9459,0.9525,0.9557,0.9563,0.9579,0.9612,0.9617,0.9671,0.9937,1.0122,1.0421,1.1011,1.12,1.1421,1.1978,1.2017,1.2192,1.2501,1.2501,1.2501,1.2501,1.2501,1.2501,1.2501,1.2501,1.2569,1.2664,1.2712,1.2861,1.3051,2.5594,2.5753,2.5924,2.5924,2.5753,2.5594,2.5594,2.5753,2.5753,2.5753,2.5753,2.5753,2.5753,2.5594,2.5594,2.5594,2.5753,2.5753,2.5594,2.513,2.497,2.513,2.5391,2.5391,2.5448,2.5594,2.5594,2.5594,2.5594,2.5594,2.5924,2.5924,2.5977,2.6082,2.6082,2.6147,2.6426,2.6611,2.6839,2.7014,2.7188,2.7268,2.7268,2.7268,2.7268,2.7268,2.7268,2.7268,2.7268,2.7268,2.7268,2.7241,2.7054,2.7001,2.6961,2.6787,2.6734,2.6734,2.6734,2.6653,2.6361,2.5041,2.3284,2.1436,1.9707,1.9063,1.8601,1.7511,1.6329,1.5424,1.5242,1.3677,1.2226,1.2025,1.0938,1.0173,1.0127,0.9972,0.9671,0.9671,0.9606,0.9557,0.9557,0.9557,0.9557,0.9557,0.9628,0.9671,0.9671,0.9671,0.9693,0.9731,0.9737,0.9791,0.9911,0.9993,1.0304,1.0839,1.0839,1.1183,1.1727,1.1727,1.1882,1.2192,1.2192,1.2347,1.2501,1.2501,1.2535,1.2589,1.2589,1.2684,1.2827,1.2881,1.3017,1.318,2.497,2.513,2.513,2.513,2.513,2.497,2.497,2.5435,2.5753,2.5753,2.5753,2.5753,2.5753,2.5289,2.497,2.497,2.4996,2.5008,2.5008,2.4714,2.4726,2.5046,2.4963,2.4976,2.5046,2.5046,2.5046,2.5046,2.5046,2.5206,2.5206,2.5206,2.5346,2.5588,2.5575,2.589,2.6626,2.6652,2.698,2.7308,2.7335,2.7348,2.7348,2.7348,2.7348,2.7348,2.7348,2.7348,2.7348,2.7348,2.7348,2.7335,2.7308,2.7308,2.7295,2.7268,2.7268,2.7268,2.7268,2.7068,2.6867,2.6867,2.5302,2.3308,2.1693,2.1031,2.07,2.0554,1.9123,1.7798,1.7611,1.5713,1.3901,1.374,1.2159,1.1048,1.092,1.03,0.9699,0.9699,0.9693,0.9688,0.9688,0.9688,0.9688,0.9699,0.9699,0.9699,0.9699,0.9699,0.9748,0.9851,0.9856,0.9905,1.0019,1.003,1.0186,1.0486,1.0486,1.0796,1.1262,1.1262,1.1417,1.1882,1.1895,1.2057,1.2522,1.2535,1.2623,1.2752,1.2752,1.2847,1.2996,1.3125,1.318,1.3214,2.4652,2.4811,2.513,2.513,2.4811,2.4652,2.4652,2.4652,2.4811,2.4811,2.4811,2.4811,2.4811,2.4652,2.4652,2.4652,2.4851,2.4976,2.4976,2.4674,2.462,2.462,2.4681,2.4681,2.4784,2.5124,2.5288,2.5288,2.5288,2.5451,2.5778,2.5778,2.5804,2.5867,2.6208,2.6397,2.6639,2.7178,2.7437,2.7629,2.7856,2.7949,2.7949,2.7949,2.7949,2.7949,2.7949,2.7949,2.7949,2.7949,2.7949,2.7909,2.7682,2.7602,2.7562,2.7335,2.7268,2.7268,2.7268,2.7215,2.7175,2.7175,2.6571,2.559,2.3608,2.2077,2.0633,1.9214,1.7349,1.6131,1.5931,1.4971,1.4109,1.3908,1.2467,1.1329,1.1195,1.0406,0.9943,0.9943,0.9862,0.9802,0.9802,0.9802,0.984,0.9938,0.9943,0.9943,0.9943,0.9943,0.9954,0.9981,0.9981,0.9992,1.0019,1.0117,1.0117,1.0175,1.0175,1.033,1.0796,1.0796,1.0952,1.1423,1.1848,1.205,1.222,1.2655,1.2881,1.2908,1.2908,1.2996,1.3132,1.3159,1.3247,1.3356,2.4172,2.4332,2.4492,2.4492,2.4332,2.4172,2.4172,2.4332,2.4492,2.4492,2.4492,2.4541,2.4665,2.4517,2.4405,2.4539,2.4674,2.4759,2.4759,2.4717,2.4625,2.4625,2.4758,2.483,2.483,2.5118,2.5224,2.4967,2.4967,2.512,2.5285,2.5285,2.536,2.5496,2.5662,2.607,2.6363,2.7006,2.7407,2.7588,2.8083,2.8136,2.8136,2.8136,2.8136,2.8136,2.8136,2.8136,2.8136,2.8136,2.8136,2.8123,2.7963,2.7909,2.7883,2.7736,2.7682,2.7682,2.7682,2.7575,2.7468,2.7468,2.7255,2.6786,2.5519,2.443,2.327,2.2475,2.0144,1.8126,1.8182,1.6418,1.4937,1.4766,1.3627,1.2648,1.2095,1.1294,1.0662,1.0193,1.0085,0.9987,0.9932,0.9976,1.0041,1.0101,1.0161,1.0193,1.0193,1.0193,1.0193,1.0193,1.0193,1.0193,1.0193,1.0259,1.0259,1.0193,1.0193,1.0352,1.051,1.051,1.0668,1.1148,1.1372,1.1727,1.1886,1.2122,1.2514,1.2734,1.2734,1.299,1.3281,1.3281,1.3336,1.3403,2.384,2.384,2.384,2.384,2.384,2.384,2.384,2.4209,2.4406,2.4406,2.4443,2.4554,2.4775,2.4474,2.4383,2.4601,2.4673,2.4697,2.4697,2.4745,2.477,2.477,2.4987,2.512,2.512,2.5325,2.5216,2.477,2.477,2.477,2.477,2.477,2.489,2.5108,2.5108,2.5567,2.6103,2.6613,2.7135,2.7474,2.7981,2.8136,2.8136,2.8136,2.8136,2.8136,2.8136,2.8136,2.8136,2.8136,2.8136,2.8136,2.8136,2.8136,2.8136,2.8136,2.8136,2.8136,2.8136,2.7963,2.7776,2.7776,2.7562,2.7281,2.7028,2.6547,2.5977,2.5977,2.3508,2.1157,2.1112,1.8371,1.6241,1.6065,1.5074,1.4098,1.3269,1.2301,1.1499,1.0706,1.0456,1.0193,1.009,1.0177,1.0231,1.0231,1.0329,1.0384,1.0384,1.0384,1.0384,1.0384,1.0384,1.0384,1.0384,1.0405,1.0416,1.0416,1.0438,1.0427,1.0384,1.0384,1.0545,1.0867,1.1051,1.1218,1.1547,1.1565,1.1962,1.2389,1.2389,1.2795,1.3238,1.3397,1.3403,1.3403,2.384,2.384,2.384,2.384,2.384,2.384,2.384,2.4033,2.4178,2.4178,2.4383,2.454,2.4576,2.4576,2.4589,2.4625,2.4854,2.4987,2.4987,2.5204,2.5325,2.5325,2.5361,2.5385,2.5385,2.5421,2.5397,2.5325,2.5325,2.5325,2.5325,2.5325,2.5349,2.5385,2.5714,2.6066,2.6103,2.6965,2.7487,2.7474,2.7981,2.8136,2.8136,2.8136,2.8136,2.8136,2.8136,2.8136,2.8136,2.8136,2.8136,2.8136,2.8136,2.8136,2.8136,2.8136,2.8136,2.8136,2.8136,2.811,2.8083,2.8083,2.7856,2.7629,2.7589,2.5993,2.4478,2.4478,2.267,2.1211,2.1179,1.9553,1.8198,1.8003,1.6046,1.4385,1.4091,1.2782,1.1659,1.1499,1.085,1.0356,1.034,1.0351,1.0362,1.0362,1.0378,1.0384,1.0384,1.0384,1.0384,1.0384,1.0384,1.0384,1.0384,1.0481,1.053,1.0536,1.0639,1.0585,1.0384,1.0384,1.0389,1.055,1.0975,1.1184,1.1359,1.18,1.2026,1.221,1.221,1.2382,1.2899,1.3231,1.3403,1.3403,2.384,2.384,2.384,2.384,2.384,2.3888,2.4045,2.4154,2.4287,2.4432,2.4552,2.4685,2.4842,2.4987,2.5083,2.5083,2.5192,2.5264,2.5264,2.5373,2.5433,2.5433,2.5433,2.5433,2.5433,2.5433,2.5433,2.5433,2.5433,2.5433,2.5433,2.5433,2.5433,2.5433,2.5933,2.6103,2.6103,2.7135,2.7487,2.7474,2.7981,2.8136,2.8136,2.8136,2.8136,2.8136,2.8136,2.8136,2.8136,2.8136,2.8136,2.8136,2.8136,2.8136,2.8136,2.8136,2.8136,2.8136,2.8136,2.8136,2.8136,2.8136,2.8043,2.7949,2.7949,2.7105,2.6108,2.5942,2.4498,2.305,2.2912,2.1416,2.0201,1.9977,1.8161,1.6674,1.6112,1.3994,1.2181,1.1132,1.0801,1.0454,1.0394,1.0443,1.0481,1.0481,1.0541,1.0585,1.0585,1.0585,1.0585,1.0585,1.0585,1.0585,1.0585,1.0634,1.0655,1.0655,1.071,1.0683,1.0585,1.0585,1.0585,1.0585,1.0799,1.0986,1.0992,1.1214,1.1403,1.1736,1.1736,1.2069,1.2733,1.2899,1.3231,1.3403]}]]